[[{"header":{"parameterUnit":"m.s-1","parameterCategory":1,"la1":30.6,"la2":29.2853,"lo1":-89.7004,"lo2":-87.6739,"dy":0.0162,"dx":0.0183,"nx":112,"ny":82,"refTime":"2024-07-29T18:00:00:Z","depth":0,"parameterNumber":2,"parameterNumberName":"U-component_of_WINDS"},"data":[0.0,0.0,0.0,0.0,0.0,0.0,0.0,0.0,0.0,0.0,0.0,0.0,0.0,0.0,0.0,0.0,0.0,0.0,0.0,0.0,0.0,0.0,0.0,0.0,0.0,0.0,0.0,0.0,0.0,0.0,0.0,0.0,0.0,0.0,0.0,0.0,0.0,0.0,0.0,0.0,0.0,0.0,0.0,0.0,0.0,0.0,0.0,0.0,0.0,0.0,0.0,0.0,0.0,0.0,0.0,0.0,0.0,0.0,0.0,0.0,0.0,0.0,0.0,0.0,0.0,0.0,0.0,0.0,0.0,0.0,0.0,0.0,0.0,0.0,0.0,0.0,0.0,0.0,0.0,0.0,0.0,0.0,0.0,0.0,0.0,0.0,0.0,0.0,0.0,0.0,1.1611,1.2266,1.2656,1.2881,1.2881,1.3467,1.315,1.1699,0.0,0.0,0.0,0.0,0.0,0.0,0.0,0.0,0.0,0.0,0.0,0.0,0.0,0.0,0.0,0.0,0.0,0.0,0.0,0.0,0.0,0.0,0.0,0.0,0.0,0.0,0.0,0.0,0.0,0.0,0.0,0.0,0.0,0.0,0.0,0.0,0.0,0.0,0.0,0.0,0.0,0.0,0.0,0.0,0.0,0.0,0.0,0.0,0.0,0.0,0.0,0.0,0.0,0.0,0.0,0.0,0.0,0.0,0.0,0.0,0.0,0.0,0.0,0.0,0.0,0.0,0.0,0.0,0.0,0.0,0.0,0.0,0.0,0.0,0.0,0.0,0.0,0.0,0.0,0.0,0.0,0.0,0.0,0.0,0.0,0.0,0.0,0.0,0.0,0.0,0.0,0.0,0.0,0.0,0.0,0.0,0.0,0.0,0.0,0.0,0.0,0.0,0.0,0.0,1.1106,1.2617,1.2842,1.2881,1.2881,1.3467,1.315,1.1699,0.0,0.0,0.0,0.0,0.0,0.0,0.0,0.0,0.0,0.0,0.0,0.0,0.0,0.0,0.0,0.0,0.0,0.0,0.0,0.0,0.0,0.0,0.0,0.0,0.0,0.0,0.0,0.0,0.0,0.0,0.0,0.0,0.0,0.0,0.0,0.0,0.0,0.0,0.0,0.0,0.0,0.0,0.0,0.0,0.0,0.0,0.0,0.0,0.0,0.0,0.0,0.0,0.0,0.0,0.0,0.0,0.0,0.0,0.0,0.0,0.0,0.0,0.0,0.0,0.0,0.0,0.0,0.0,0.0,0.0,0.0,0.0,0.0,0.0,0.0,0.0,0.0,0.0,0.0,0.0,0.0,0.0,0.0,0.0,0.0,0.0,0.0,0.0,0.0,0.0,0.0,0.0,0.0,0.0,0.0,0.0,0.0,0.0,0.0,0.0,0.0,0.0,0.0,1.1211,1.1738,1.2773,1.2881,1.2881,1.2881,1.3467,1.315,1.1699,1.1345,0.0,0.0,0.0,0.0,0.0,0.0,0.0,0.0,0.0,0.0,0.0,0.0,0.0,0.0,0.0,0.0,0.0,0.0,0.0,0.0,0.0,0.0,0.0,0.0,0.0,0.0,0.0,0.0,0.0,0.0,0.0,0.0,0.0,0.0,0.0,0.0,0.0,0.0,0.0,0.0,0.0,0.0,0.0,0.0,0.0,0.0,0.0,0.0,0.0,0.0,0.0,0.0,0.0,0.0,0.0,0.0,0.0,0.0,0.0,0.0,0.0,0.0,0.0,0.0,0.0,0.0,0.0,0.0,0.0,0.0,0.0,0.0,0.0,0.0,0.0,0.0,0.0,0.0,0.0,0.0,0.0,0.0,0.0,0.0,0.0,0.0,0.0,0.0,0.0,0.0,0.0,0.0,0.0,0.0,0.0,0.0,0.0,0.0,0.0,0.0,0.0,0.0,1.2187,1.251,1.2842,1.2881,1.2881,1.2881,1.3365,1.3037,1.1699,1.1252,0.0,0.0,0.0,0.0,0.0,0.0,0.0,0.0,0.0,0.0,0.0,0.0,0.0,0.0,0.0,0.0,0.0,0.0,0.0,0.0,0.0,0.0,0.0,0.0,0.0,0.0,0.0,0.0,0.0,0.0,0.0,0.0,0.0,0.0,0.0,0.0,0.0,0.0,0.0,0.0,0.0,0.0,0.0,0.0,0.0,0.0,0.0,0.0,0.0,0.0,0.0,0.0,0.0,0.0,0.0,0.0,0.0,0.0,0.0,0.0,0.0,0.0,0.0,0.0,0.0,0.0,0.0,0.0,0.0,0.0,0.0,0.0,0.0,0.0,0.0,0.0,0.0,0.0,0.0,0.0,0.0,0.0,0.0,0.0,0.0,0.0,0.0,0.0,0.0,0.0,0.0,0.0,0.0,0.0,0.0,0.0,0.0,0.0,0.0,0.0,0.0,0.0,1.207,1.2842,1.2881,1.2881,1.2881,1.2881,1.3068,1.2696,1.1669,1.0992,0.0,0.0,0.0,0.0,0.0,0.0,0.0,0.0,0.0,0.0,0.0,0.0,0.0,0.0,0.0,0.0,0.0,0.0,0.0,0.0,0.0,0.0,0.0,0.0,0.0,0.0,0.0,0.0,0.0,0.0,0.0,0.0,0.0,0.0,0.0,0.0,0.0,0.0,0.0,0.0,0.0,0.0,0.0,0.0,0.0,0.0,0.0,0.0,0.0,0.0,0.0,0.0,0.0,0.0,0.0,0.0,0.0,0.0,0.0,0.0,0.0,0.0,0.0,0.0,0.0,0.0,0.0,0.0,0.0,0.0,0.0,0.0,0.0,0.0,0.0,0.0,0.0,0.0,0.0,0.0,0.0,0.0,0.0,0.0,0.0,0.0,0.0,0.0,0.0,0.0,0.0,0.0,0.0,0.0,0.0,0.0,0.0,0.0,0.0,0.0,0.0,0.0,1.1992,1.2578,1.2852,1.2881,1.2881,1.2881,1.2954,1.2583,1.1645,0.0,0.0,0.0,0.0,0.0,0.0,0.0,0.0,0.0,0.0,0.0,0.0,0.0,0.0,0.0,0.0,0.0,0.0,0.0,0.0,0.0,0.0,0.0,0.0,0.0,0.0,0.0,0.0,0.0,0.0,0.0,0.0,0.0,0.0,0.0,0.0,0.0,0.0,0.0,0.0,0.0,0.0,0.0,0.0,0.0,0.0,0.0,0.0,0.0,0.0,0.0,0.0,0.0,0.0,0.0,0.0,0.0,0.0,0.0,0.0,0.0,0.0,0.0,0.0,0.0,0.0,0.0,0.0,0.0,0.0,0.0,0.0,0.0,0.0,0.0,0.0,0.0,0.0,0.0,0.0,0.0,0.0,0.0,0.0,0.0,0.0,0.0,0.0,0.0,0.0,0.0,0.0,0.0,0.0,0.0,0.0,0.0,0.0,0.0,0.0,0.0,0.0,1.1459,1.207,1.2549,1.2852,1.2881,1.2881,1.2881,1.2936,1.2566,1.1645,0.0,0.0,0.0,0.0,0.0,0.0,0.0,0.0,0.0,0.0,0.0,0.0,0.0,0.0,0.0,0.0,0.0,0.0,0.0,0.0,0.0,0.0,0.0,0.0,0.0,0.0,0.0,0.0,0.0,0.0,0.0,0.0,0.0,0.0,0.0,0.0,0.0,0.0,0.0,0.0,0.0,0.0,0.0,0.0,0.0,0.0,0.0,0.0,0.0,0.0,0.0,0.0,0.0,0.0,0.0,0.0,0.0,0.0,0.0,0.0,0.0,0.0,0.0,0.0,0.0,0.0,0.0,0.0,0.0,0.0,0.0,0.0,0.0,0.0,0.0,0.0,0.0,0.0,0.0,0.0,0.0,0.0,0.0,0.0,0.0,0.0,0.0,0.0,0.0,0.0,0.0,0.0,0.0,0.0,0.0,0.0,0.0,0.0,0.0,0.0,0.0,0.0,1.1498,1.2381,1.2891,1.2891,1.2891,1.2891,1.2939,1.3047,1.2665,0.0,0.0,0.0,0.0,0.0,0.0,0.0,0.0,0.0,0.0,0.0,0.0,0.0,0.0,0.0,0.0,0.0,0.0,0.0,0.0,0.0,0.0,0.0,0.0,0.0,0.0,0.0,0.0,0.0,0.0,0.0,0.0,0.0,0.0,0.0,0.0,0.0,0.0,0.0,0.0,0.0,0.0,0.0,0.0,0.0,0.0,0.0,0.0,0.0,0.0,0.0,0.0,0.0,0.0,0.0,0.0,0.0,0.0,0.0,0.0,0.0,0.0,0.0,0.0,0.0,0.0,0.0,0.0,0.0,0.0,0.0,0.0,0.0,0.0,0.0,0.0,0.0,0.0,0.0,0.0,0.0,0.0,0.0,0.0,0.0,0.0,0.0,0.0,0.0,0.0,0.0,0.0,0.0,0.0,0.0,0.0,0.0,0.0,0.0,0.0,0.0,0.0,0.0,1.1498,1.2588,1.332,1.332,1.332,1.3511,1.3918,1.3736,1.3188,1.2285,0.0,0.0,0.0,0.0,0.0,0.0,0.0,0.0,0.0,0.0,0.0,0.0,0.0,0.0,0.0,0.0,0.0,0.0,0.0,0.0,0.0,0.0,0.0,0.0,0.0,0.0,0.0,0.0,0.0,0.0,0.0,0.0,0.0,0.0,0.0,0.0,0.0,0.0,0.0,0.0,0.0,0.0,0.0,0.0,0.0,0.0,0.0,0.0,0.0,0.0,0.0,0.0,0.0,0.0,0.0,0.0,0.0,0.0,0.0,0.0,0.0,0.0,0.0,0.0,0.0,0.0,0.0,0.0,0.0,0.0,0.0,0.0,0.0,0.0,0.0,0.0,0.0,0.0,0.0,0.0,0.0,0.0,0.0,0.0,0.0,0.0,0.0,0.0,0.0,0.0,0.0,0.0,0.0,0.0,0.0,0.0,0.0,0.0,0.0,0.0,0.0,0.0,1.1699,1.2812,1.3574,1.374,1.376,1.3836,1.4033,1.4063,1.3653,1.2806,0.0,0.0,0.0,0.0,0.0,0.0,0.0,0.0,0.0,0.0,0.0,0.0,0.0,0.0,0.0,0.0,0.0,0.0,0.0,0.0,0.0,0.0,0.0,0.0,0.0,0.0,0.0,0.0,0.0,0.0,0.0,0.0,0.0,0.0,0.0,0.0,0.0,0.0,0.0,0.0,0.0,0.0,0.0,0.0,0.0,0.0,0.0,0.0,0.0,0.0,0.0,0.0,0.0,0.0,0.0,0.0,0.0,0.0,0.0,0.0,0.0,0.0,0.0,0.0,0.0,0.0,0.0,0.0,0.0,0.0,0.0,0.0,0.0,0.0,0.0,0.0,0.0,0.0,0.0,0.0,0.0,0.0,0.0,0.0,0.0,0.0,0.0,0.0,0.0,0.0,0.0,0.0,0.0,0.0,0.0,0.0,0.0,0.0,0.0,0.0,0.0,0.0,1.2015,1.3008,1.3721,1.4097,1.4136,1.4043,1.3704,1.4114,1.4073,1.3281,0.0,0.0,0.0,0.0,0.0,0.0,0.0,0.0,0.0,0.0,0.0,0.0,0.0,0.0,0.0,0.0,0.0,0.0,0.0,0.0,0.0,0.0,0.0,0.0,0.0,0.0,0.0,0.0,0.0,0.0,0.0,0.0,0.0,0.0,0.0,0.0,0.0,0.0,0.0,0.0,0.0,0.0,0.0,0.0,0.0,0.0,0.0,0.0,0.0,0.0,0.0,0.0,0.0,0.0,0.0,0.0,0.0,0.0,0.0,0.0,1.0314,0.9982,0.0,0.0,0.0,0.0,0.0,0.0,0.0,0.0,0.0,0.0,0.0,0.0,0.0,0.0,0.0,0.0,0.0,0.0,0.0,0.0,0.0,0.0,0.0,0.0,0.0,0.0,0.0,0.0,0.0,0.0,0.0,0.0,0.0,0.0,0.0,0.0,0.0,0.0,0.0,0.0,1.2015,1.3262,1.417,1.46,1.4648,1.482,1.5208,1.4727,1.4403,1.4347,1.3011,0.0,0.0,0.0,0.0,0.0,0.0,0.0,0.0,0.0,0.0,0.0,0.0,0.0,0.0,0.0,0.0,0.0,0.0,0.0,0.0,0.0,0.0,0.0,0.0,0.0,0.0,0.0,0.0,0.0,0.0,0.0,0.0,0.0,0.0,0.0,0.0,0.0,0.0,0.0,0.0,0.0,0.0,0.0,0.0,0.0,0.0,0.0,0.0,0.0,0.0,0.0,0.0,0.0,0.0,0.0,0.0,0.0,0.0,0.0,1.2182,1.1641,0.0,0.0,0.0,0.0,0.0,0.0,0.0,0.0,0.0,0.0,0.0,0.0,0.0,0.0,0.0,0.0,0.0,0.0,0.0,0.0,0.0,0.0,0.0,0.0,0.0,0.0,0.0,0.0,0.0,0.0,0.0,0.0,0.0,0.0,0.0,0.0,0.0,0.0,0.0,0.0,1.2646,1.3542,1.4321,1.5019,1.5088,1.5113,1.524,1.4831,1.4726,1.4949,1.3583,0.0,0.0,0.0,0.0,0.0,0.0,0.0,0.0,0.0,0.0,0.0,0.0,0.0,0.0,0.0,0.0,0.0,0.0,0.0,0.0,0.0,0.0,0.0,0.0,0.0,0.0,0.0,0.0,0.0,0.0,0.0,0.0,0.0,0.0,0.0,0.0,0.0,0.0,0.0,0.0,0.0,0.0,0.0,0.0,0.0,0.0,0.0,0.0,0.0,0.0,0.0,0.0,0.0,1.4744,1.5282,1.5549,1.5549,1.567,1.5791,1.4385,1.3799,1.3779,1.2998,0.0,0.0,0.0,0.0,0.0,0.0,0.0,0.0,0.0,0.0,0.0,0.0,0.0,0.0,0.0,0.0,0.0,0.0,0.0,0.0,0.0,0.0,1.3164,1.4219,1.415,1.3564,1.2606,0.0,0.0,0.0,0.0,0.0,0.0,0.0,0.0,0.0,0.0,0.0,1.3311,1.3945,1.4551,1.5332,1.541,1.5273,1.4922,1.4824,1.4996,1.5532,1.415,1.385,0.0,0.0,0.0,0.0,0.0,0.0,0.0,0.0,0.0,0.0,0.0,0.0,0.0,0.0,0.0,0.0,0.0,0.0,0.0,0.0,0.0,0.0,0.0,0.0,0.0,0.0,0.0,0.0,0.0,0.0,0.0,0.0,0.6135,0.672,0.0,0.0,0.0,0.0,0.0,0.0,0.0,0.0,0.0,0.0,0.0,0.0,0.0,1.1511,1.2468,1.4171,1.4646,1.3745,1.5428,1.6206,1.6251,1.6251,1.6745,1.7656,1.7432,0.0,1.5127,1.4648,0.0,0.0,0.0,0.0,0.0,0.0,0.0,0.0,0.0,0.0,0.0,0.0,0.0,0.0,0.0,0.0,0.0,0.0,0.0,0.0,0.0,0.0,1.5655,1.5771,1.5478,1.5215,1.5488,1.3965,1.2363,1.1518,1.139,1.1165,0.0,0.0,0.0,0.0,0.0,0.0,1.3379,1.4209,1.4883,1.5361,1.541,1.5391,1.5332,1.5,1.5314,1.6558,1.5128,1.4671,1.5651,1.4027,0.0,0.0,0.0,0.0,0.0,0.0,0.0,0.0,0.0,0.0,0.0,0.0,0.0,0.0,0.0,0.0,0.0,0.0,0.0,0.0,0.0,0.0,0.0,0.0,0.0,0.0,0.0,0.0,0.0,0.6549,0.7646,0.7838,0.823,0.8325,0.0,0.0,0.0,0.0,0.0,0.0,0.0,0.0,0.0,1.1766,1.2099,1.2747,1.3822,1.4863,1.513,1.4646,1.5655,1.6499,1.7099,1.7099,1.7694,1.873,1.873,1.8301,1.75,1.6348,1.5771,1.5488,0.0,0.0,0.0,0.0,1.4844,1.4619,1.4941,1.5,1.4873,1.4443,0.0,0.0,0.0,0.0,0.0,0.0,0.0,1.4902,1.5156,1.5635,1.6253,1.6689,1.6475,1.6269,1.6709,1.5879,1.4717,1.3594,1.3429,1.3027,1.1934,1.1738,0.0,0.0,0.0,1.334,1.4434,1.4697,1.5039,1.5703,1.5557,1.541,1.541,1.5244,1.5415,1.6138,1.5521,1.5528,1.6503,1.4992,1.399,0.0,0.0,0.0,0.0,0.0,0.0,0.0,0.0,0.0,0.0,0.0,0.0,0.0,0.0,0.0,0.0,0.0,0.0,0.0,0.0,0.0,0.0,0.0,0.0,0.0,0.0,0.0,0.0,0.7694,0.8905,0.8853,0.9521,0.9817,0.0,0.0,0.0,0.0,0.0,0.0,1.0221,1.0728,1.1572,1.2654,1.2985,1.3542,1.4359,1.5056,1.5229,1.4934,1.5883,1.6757,1.7617,1.793,1.8675,1.9785,1.9785,1.9853,1.9814,1.7978,1.7217,1.7178,1.6738,1.6357,1.6152,1.6816,1.6709,1.6318,1.6865,1.6904,1.667,1.6338,1.6162,1.5957,1.5264,0.0,0.0,0.0,0.0,1.6172,1.6611,1.6807,1.7051,1.7715,1.7627,1.748,1.7803,1.7617,1.6934,1.541,1.5107,1.4775,1.3711,1.3535,0.0,1.3535,1.3887,1.4502,1.5459,1.541,1.5527,1.6162,1.5947,1.5703,1.5586,1.5576,1.5728,1.6166,1.6083,1.6475,1.7531,1.6303,1.5527,1.5362,0.0,0.0,0.0,0.0,0.0,0.0,0.0,0.0,0.0,0.0,0.0,0.0,0.0,0.0,0.0,0.0,0.0,0.0,0.0,0.0,0.0,0.0,0.0,0.0,0.0,0.0,0.0,0.0,0.0,0.9702,1.0584,0.0,0.0,0.0,0.0,1.0517,1.0735,1.1156,1.173,1.2051,1.2358,1.2748,1.3057,1.3225,1.3239,1.4619,1.478,1.3757,1.6064,1.7284,1.7365,1.8417,1.9757,2.1133,2.1133,2.1377,2.1592,1.9434,1.8465,1.8426,1.8076,1.79,1.7881,1.793,1.8164,1.8428,1.8066,1.8193,1.8506,1.8486,1.8203,1.7871,1.7832,1.7266,0.0,0.0,1.7549,1.7978,1.8398,1.8809,1.9141,1.918,1.918,1.917,1.9189,1.917,1.8535,1.6468,1.6056,1.585,1.5371,0.0,1.5283,1.5283,1.5654,1.6017,1.6086,1.6387,1.6587,1.6699,1.668,1.6494,1.6125,1.6086,1.6473,1.7457,1.7044,1.7416,1.8834,1.8334,1.7313,1.5808,1.5284,0.0,0.0,0.0,0.0,0.0,0.0,0.0,0.0,0.0,0.0,0.0,0.0,0.0,0.0,0.0,0.0,0.0,0.0,0.0,0.0,0.0,0.0,0.0,0.0,0.0,0.0,0.0,0.0,1.0605,1.1375,0.0,1.1402,1.1196,1.1196,1.139,1.185,1.2284,1.2493,1.2899,1.33,1.3601,1.3895,1.4148,1.4335,1.4861,1.4916,1.4496,1.5359,1.6174,1.6924,1.8112,1.9287,2.043,2.1303,2.1748,2.1826,2.1055,2.0557,2.0264,1.9824,1.9648,1.9648,1.9648,1.957,1.9394,1.8975,1.8936,1.9053,1.9053,1.8955,1.8838,1.8838,1.8623,1.8408,1.8564,1.8721,1.8867,1.9014,1.917,1.9287,1.9287,1.9287,1.9287,1.9287,1.9287,1.9053,1.8291,1.7695,1.7178,1.6758,1.6445,1.6162,1.5879,1.6211,1.6592,1.6875,1.6807,1.6836,1.7119,1.6894,1.667,1.6514,1.623,1.6227,1.6581,1.6595,1.7049,1.8084,1.8056,1.78,1.7325,1.6467,1.4988,0.0,0.0,0.0,0.0,0.0,0.0,0.0,0.0,0.0,0.0,0.0,0.0,0.0,0.0,0.0,0.0,0.0,0.0,0.0,0.0,0.0,0.0,0.0,0.0,0.0,0.9969,1.1114,1.1372,1.2158,1.2624,1.2429,1.2206,1.2151,1.2445,1.2919,1.324,1.334,1.3814,1.4182,1.4376,1.4569,1.4763,1.4963,1.4963,1.4963,1.4963,1.5397,1.591,1.6675,1.781,1.8826,1.9712,2.095,2.156,2.1759,2.1981,2.2012,2.1816,2.124,2.1016,2.1016,2.1016,2.083,2.0537,2.0264,2.0166,2.0166,2.0166,2.0166,2.0166,2.0166,2.0166,2.0166,2.0166,2.0059,1.9941,1.9941,1.9834,1.9717,1.9717,1.9717,1.9717,1.9717,1.9717,1.9717,1.9717,1.9023,1.835,1.8076,1.7783,1.749,1.7197,1.7402,1.7646,1.7793,1.7559,1.7432,1.7578,1.7334,1.7109,1.6963,1.6543,1.6343,1.6487,1.6733,1.7191,1.795,1.8163,1.8228,1.8216,1.6953,1.5706,1.4502,0.0,0.0,0.0,0.0,0.0,0.0,0.0,0.0,0.0,0.0,0.0,0.0,0.0,0.0,0.0,0.0,0.0,0.0,0.0,0.0,0.0,0.0,0.0,0.8884,1.0286,1.1517,1.1984,1.2906,1.3426,1.3309,1.3271,1.336,1.3579,1.3948,1.4242,1.4522,1.481,1.497,1.4977,1.4977,1.4983,1.499,1.499,1.499,1.508,1.6109,1.6624,1.6624,1.7668,1.8376,1.8871,2.0202,2.095,2.1444,2.216,2.2773,2.3057,2.2227,2.1914,2.1924,2.1904,2.1894,2.1885,2.1885,2.1885,2.1885,2.1885,2.1885,2.1885,2.1885,2.1885,2.1885,2.1885,2.1582,2.125,2.125,2.0937,2.0605,2.0605,2.0596,2.0586,2.0586,2.0576,2.0566,2.0566,1.9893,1.9326,1.9307,1.9297,1.9287,1.9287,1.9287,0.0,1.8711,1.8652,1.8496,1.8076,1.8027,1.7861,1.7441,1.6992,1.6854,1.7176,1.7475,1.7907,1.8685,1.8916,1.8819,1.8267,1.6651,1.6076,1.6522,0.0,0.0,0.0,0.0,0.0,0.0,0.0,0.0,0.0,0.0,0.0,0.0,0.0,0.0,0.0,0.0,0.0,0.0,0.0,0.0,0.0,0.9646,1.0461,1.0675,1.1288,1.1937,1.2476,1.2975,1.3441,1.3878,1.383,1.4055,1.4563,1.4676,1.4756,1.4836,1.4917,1.5064,1.5271,1.5277,1.5378,1.5585,1.5591,1.5591,1.5591,1.5858,1.6037,1.6037,1.7316,1.836,1.934,2.0597,2.1655,2.258,2.2834,2.3037,2.3086,2.2549,2.2519,2.2754,2.2451,2.2148,2.1885,2.1885,2.1885,2.1885,2.1885,2.1885,2.1885,2.1885,2.1885,2.1885,2.1885,2.1797,2.1709,2.1709,2.1611,2.1523,2.1523,2.1279,2.1055,2.1055,2.0791,2.0566,2.0566,2.0371,2.0117,1.9795,1.9482,1.9287,1.9287,1.9287,1.9248,1.9121,1.9111,1.8945,1.8516,1.8467,1.8291,1.7871,1.7158,1.6743,1.6864,1.7316,1.7912,1.8509,1.9624,1.9949,1.9371,1.7797,1.6803,0.0,0.0,0.0,0.0,0.0,0.0,0.0,0.0,0.0,0.0,0.0,0.0,0.0,0.0,0.0,0.0,0.0,0.0,0.0,0.0,0.0,0.0,1.0722,1.1597,1.2265,1.2285,1.2458,1.3053,1.3394,1.3761,1.4222,1.4382,1.4596,1.4937,1.5077,1.5144,1.5144,1.5257,1.5404,1.5571,1.5578,1.5658,1.5832,1.5832,1.5832,1.5832,1.5832,1.5832,1.5832,1.6574,1.7304,1.8033,1.9214,2.0494,2.1587,2.2129,2.2677,2.3115,0.0,0.0,0.0,0.0,2.2617,2.2412,2.2412,2.2412,2.2412,2.2412,2.2412,2.2412,2.2412,2.2412,2.2412,2.2412,2.2285,2.2148,2.2148,2.2021,2.1885,2.1885,2.1689,2.1504,2.1504,2.1299,2.1113,2.1113,2.0967,0.0,2.0508,2.0107,1.9824,1.9824,1.9824,1.9756,1.957,1.9551,1.9385,1.8955,1.8906,1.874,1.8311,1.7656,0.0,0.0,0.0,1.8054,1.8839,2.0043,0.0,0.0,0.0,0.0,0.0,0.0,0.0,0.0,1.7652,1.7589,0.0,0.0,0.0,0.0,0.0,0.0,0.0,0.0,0.0,0.0,0.0,0.0,0.0,0.0,0.0,0.0,1.1784,1.2405,1.3413,1.324,1.314,1.3674,1.3975,1.4262,1.4583,1.4856,1.5023,1.5057,1.5297,1.5444,1.5444,1.5691,0.0,0.0,0.0,1.5832,1.5832,1.5832,1.5832,1.5832,1.5832,1.5832,1.5832,1.5832,1.5927,1.6109,1.7225,1.8503,1.9761,2.0845,2.2031,2.3135,2.3135,2.3135,2.3135,2.3135,2.3135,2.3135,2.3135,0.0,0.0,2.3135,2.3135,2.3135,2.3135,2.3135,2.3135,2.3135,2.2871,2.2578,2.2578,2.2305,2.2031,2.2031,2.1992,2.1953,2.1953,2.1924,2.1885,2.1885,2.1572,2.1309,2.1309,2.0898,2.0566,2.0566,2.0566,2.042,2.0039,1.999,1.9824,1.9404,1.9355,0.0,1.875,1.832,1.792,1.7549,1.7902,1.8578,1.9533,2.0446,2.0853,2.0853,2.0853,2.1091,2.1581,2.1644,2.1707,2.1719,1.9572,1.9359,0.0,0.0,0.0,0.0,0.0,0.0,0.0,0.0,0.0,0.0,0.0,0.0,0.0,0.0,0.0,1.169,1.2438,1.3113,1.3581,1.3955,1.4222,1.4335,1.4402,1.4643,1.517,1.5277,1.5411,1.5645,1.5712,1.5745,1.5745,1.5798,1.5832,1.5832,1.5832,1.5832,1.5832,1.5832,1.5832,1.5832,1.5832,0.0,1.5832,1.5832,1.6386,1.7318,1.7598,1.8956,2.0935,2.1203,2.2031,2.3135,2.3135,2.3135,2.3135,2.3135,2.3135,2.3135,2.3135,2.3135,2.3135,2.3135,2.3135,2.3135,2.3135,2.3135,0.0,2.3135,2.3076,2.3018,2.3018,2.2959,2.2891,2.2891,2.2637,2.2393,2.2393,2.2129,2.1885,2.1885,2.1816,2.1758,2.1758,2.1094,2.0566,2.0566,2.0566,2.0537,2.0449,2.0439,2.0273,1.9844,1.9795,1.9619,1.9199,1.8769,1.8486,1.8398,1.941,2.0262,2.0665,2.1498,2.1995,2.1995,2.1995,2.2046,2.2159,2.2598,2.305,2.3464,2.1681,2.1029,0.0,0.0,0.0,0.0,0.0,0.0,0.0,0.0,0.0,0.0,0.0,1.0294,1.0889,0.0,1.2058,1.2659,1.326,1.3748,1.4041,1.4462,1.4689,1.4536,1.4776,1.5077,1.5364,1.5524,1.5671,1.5818,1.5832,1.5832,1.5832,1.5832,1.5832,1.5832,1.5832,1.5832,1.5832,1.5832,1.5832,1.5832,1.5832,1.5832,1.5832,1.5832,1.6109,1.6763,1.7412,1.8772,2.0486,2.1667,2.258,2.3135,2.3135,2.3135,2.3135,2.3135,2.3135,2.3135,2.3135,2.3135,2.3135,2.3135,2.3135,2.3135,2.3135,2.3135,2.3135,2.3135,2.3135,2.3135,2.3135,2.3135,2.3135,2.3135,2.2978,2.2822,2.2822,2.2656,2.251,2.251,2.2344,2.2197,2.2197,2.166,2.1152,2.0937,2.0713,2.0566,2.0566,2.0566,2.0478,2.0264,2.0244,2.0068,1.9639,1.9209,1.8965,1.8965,1.9979,2.0875,2.1468,2.2309,2.3034,2.3565,2.3565,2.3565,2.3565,2.3841,2.413,2.4393,2.3552,2.315,0.0,0.0,0.0,0.0,0.0,0.0,0.0,0.9559,1.0187,1.0775,1.1129,1.155,1.2258,1.2532,1.2886,1.3614,1.4028,1.4335,1.4576,1.4863,1.4957,1.4716,1.511,1.5418,1.5478,1.5691,1.5832,1.5832,1.5832,1.5832,1.5832,1.5832,1.5832,1.5832,1.5832,1.5832,1.5832,1.5832,1.5832,1.5832,1.6015,1.6015,1.5832,1.6015,1.6197,1.6197,1.7498,1.8503,1.9314,2.1498,2.2403,2.2403,2.2403,2.2403,2.2501,2.296,2.296,2.2775,2.3047,2.3135,2.3135,2.3135,2.3135,2.3135,2.3135,2.3135,2.3135,2.3135,2.3135,2.3135,2.3135,2.3135,2.3135,2.3135,2.3135,2.3135,2.3135,2.3135,2.3135,2.3135,2.2861,2.2637,2.2637,2.2285,2.1855,2.1426,2.1055,2.0791,2.0703,2.0693,2.0664,2.0576,2.0566,2.042,2.0068,1.9727,1.9502,1.9414,2.0247,2.1101,2.1967,2.2863,2.3767,2.4755,2.4921,2.4971,2.4971,2.5084,2.5146,2.5146,2.5146,2.5021,0.823,0.8437,0.8784,0.9305,0.9486,0.988,0.0,1.1349,1.1396,1.1984,1.2345,1.2654,1.2755,1.3353,1.3921,1.4021,1.4502,1.4877,1.491,1.5164,1.5337,1.5304,1.5357,1.5498,1.5758,1.5812,1.5832,1.5832,1.5832,1.5832,1.5832,1.5832,1.5832,1.5832,1.5832,1.5832,1.5832,1.5832,1.5832,1.5825,1.6943,1.685,1.5825,1.6943,1.7505,1.7598,1.8772,1.8772,1.8056,1.9314,1.9861,1.9861,1.9861,1.9861,2.0133,2.2315,2.2403,2.1658,2.2775,2.3135,2.3135,2.3135,2.3135,2.3135,2.3135,2.3135,2.3135,2.3135,2.3135,2.3135,2.3135,2.3135,2.3135,2.3135,2.3135,2.3135,2.3135,2.3135,2.3135,2.3135,2.3096,2.3066,2.3066,2.2725,2.2295,2.1875,2.1768,2.1602,2.1211,2.1162,2.1006,2.0605,2.0566,2.0547,2.0498,2.0449,2.0254,1.9873,2.0622,2.136,2.1989,2.2863,2.3767,2.4755,2.5272,2.5511,2.5511,2.6025,2.6276,2.6276,2.6276,2.5749,0.9299,0.9479,0.9713,1.0301,1.0701,1.1156,1.1944,1.2158,1.2365,1.2959,1.318,1.332,1.3494,1.3968,1.4342,1.4342,1.483,1.5217,1.5217,1.5464,1.5585,1.5418,1.5545,1.5698,1.5818,1.5832,1.5832,1.5832,1.5832,1.5832,1.5832,1.5832,1.5832,1.5832,1.5832,1.5912,1.6086,1.6086,1.6172,1.6339,1.6739,1.6656,1.6079,1.6469,1.7037,1.7692,1.8226,1.8596,1.8772,1.9314,1.9497,1.9497,1.9497,1.9039,1.868,2.0404,2.0674,2.0395,2.1667,2.2031,2.2208,2.2862,2.3135,2.3135,2.3135,2.3135,2.3135,2.3135,2.3135,2.3135,2.3135,2.3135,2.3135,2.3135,2.3135,2.3135,2.3135,2.3135,2.3135,2.3135,2.3135,2.3135,2.3135,2.2988,2.2822,2.2646,2.2197,2.1816,2.1641,2.1611,2.1445,2.1006,2.0957,2.085,2.0586,2.0566,2.0488,2.0303,2.1165,2.2019,2.2838,2.377,2.4776,2.5774,2.5988,2.6101,2.6101,2.6408,2.6533,2.6533,2.6791,2.6691,0.988,1.0174,1.0501,1.1089,1.1677,1.2211,1.2585,1.2839,1.314,1.3661,1.3768,1.3834,1.4048,1.4389,1.4643,1.4643,1.513,1.5518,1.5518,1.5625,1.5665,1.5531,1.5631,1.5745,1.5818,1.5832,1.5832,1.5832,1.5832,1.5832,1.5832,1.5832,1.5832,1.5832,1.5912,1.6052,1.6273,1.6353,1.65,1.67,1.6881,1.6778,1.6386,1.6546,1.6826,1.7487,1.7771,1.8176,1.8629,1.8629,1.8574,1.8488,1.8488,1.7948,1.7318,1.8126,1.8672,1.9222,2.0395,2.1025,2.148,2.2306,2.2862,2.3135,2.3135,2.3135,2.3135,2.3135,2.3135,2.3135,2.3135,2.3135,2.3135,2.3135,2.3135,2.3135,2.3135,2.3135,2.3135,2.3135,2.3135,2.3135,2.3135,2.3135,2.3135,2.3135,2.2617,2.2187,2.207,2.1963,2.1768,2.1445,2.1416,2.1289,2.0957,2.0928,2.1076,2.137,2.2041,2.3015,2.4289,2.5046,2.5948,2.6917,2.6917,2.6917,2.6917,2.6917,2.6917,2.6917,2.7318,2.7507,0.9693,1.0314,1.1109,1.1697,1.2358,1.2872,1.3467,1.3614,1.3701,1.4008,1.4075,1.4075,1.4088,1.4563,1.495,1.495,1.5438,1.5812,1.5812,1.5578,1.5511,1.5785,1.5578,1.5518,1.5798,1.5832,1.5832,1.5832,1.5832,1.5832,1.5832,1.5832,1.5832,1.5832,1.6112,1.6266,1.6273,1.6553,1.67,1.67,1.7867,1.786,1.6693,1.7853,1.7845,1.6773,1.7944,1.7674,1.635,1.635,1.6182,1.592,1.592,1.592,1.5825,1.592,1.6662,1.7963,1.9131,2.0305,2.1293,2.1382,2.212,2.3135,2.3135,2.3135,2.3135,2.3135,2.3135,2.3135,2.3135,2.3135,2.3135,2.3135,2.3135,2.3135,2.3135,2.3135,2.3135,2.3135,2.3135,2.3135,2.3135,2.3135,2.3135,2.3135,2.3115,2.2949,2.2549,2.2139,2.1875,2.1865,2.1865,2.1865,2.1846,2.1846,2.2309,2.3381,2.345,2.4379,2.6391,2.6554,2.7027,2.8047,2.8059,2.8059,2.8059,2.8059,2.8059,2.8059,2.8072,2.8084,1.0628,1.1202,1.1764,1.2559,1.3053,1.3447,1.3848,1.3941,1.3968,1.4068,1.3928,1.3794,1.3794,1.4115,1.4442,1.4636,1.5157,1.5611,1.5798,1.5745,1.5651,1.5558,1.5625,1.5645,1.5551,1.5718,1.5832,1.5832,1.5832,1.5832,1.5832,1.6019,1.6126,1.6126,1.6406,1.6653,1.6854,1.6954,1.7094,1.7281,1.749,1.7291,1.67,1.7093,1.7093,1.6707,1.7093,1.7038,1.656,1.656,1.65,1.6413,1.6413,1.6766,1.7347,1.7347,1.795,1.8948,1.9405,1.9761,2.0395,2.1943,2.2775,2.3135,2.3135,2.3135,2.3135,2.3135,2.3135,2.3135,2.3135,2.3135,2.3135,2.3135,2.3135,2.3135,2.3135,2.3135,2.3135,2.3135,2.3135,2.3135,2.3135,2.3135,2.3135,2.3135,2.3135,2.3086,2.2949,2.2803,2.2607,2.2334,2.2305,2.2187,2.1904,2.1885,2.2349,2.3412,2.4129,2.5137,2.6514,2.7224,2.7779,2.8097,2.8109,2.8109,2.8109,2.8109,2.8109,2.8109,2.8486,2.8649,1.1296,1.1804,1.2238,1.314,1.3581,1.3854,1.4041,1.4008,1.3928,1.3928,1.3607,1.3353,1.3467,1.3641,1.3935,1.4442,1.493,1.5378,1.5772,1.5738,1.5645,1.5565,1.5625,1.5645,1.5558,1.5718,1.5832,1.5832,1.5832,1.5879,1.5979,1.6166,1.6319,1.6426,1.6714,1.6954,1.725,1.7255,1.7402,1.7582,1.7395,1.7208,1.7021,1.7021,1.7021,1.7021,1.7021,1.6961,1.6867,1.6867,1.7095,1.7385,1.7385,1.8138,1.9096,1.9096,1.9423,1.9936,1.9579,1.9761,2.0395,2.1943,2.2775,2.3135,2.3135,2.3135,2.3135,2.3135,2.3135,2.3135,2.3135,2.3135,2.3135,2.3135,2.3135,2.3135,2.3135,2.3135,2.3135,2.3135,2.3135,2.3135,2.3135,2.3135,2.3135,2.3135,2.3135,2.3135,2.3135,2.3135,2.3037,2.2764,2.2734,2.2627,2.2353,2.2334,2.2975,2.4476,2.5201,2.623,2.7657,2.8375,2.8712,2.8712,2.8712,2.8712,2.8712,2.8712,2.8712,2.8725,2.9076,2.9239,1.1683,1.2138,1.2579,1.3447,1.3881,1.4082,1.4068,1.3834,1.3621,1.3601,1.312,1.2862,1.3066,1.316,1.3467,1.4315,1.4736,1.5164,1.5745,1.5591,1.5518,1.5798,1.5585,1.5524,1.5805,1.5845,1.5852,1.5852,1.5852,1.5979,1.6279,1.6313,1.644,1.672,1.7014,1.7174,1.7174,1.7442,1.7582,1.7582,1.7582,1.7582,1.7582,1.7582,1.7687,1.7687,1.7582,1.7526,1.7271,1.7271,1.79,1.8799,1.8799,1.965,2.0883,2.0883,2.0971,2.0853,2.0063,2.0439,2.1329,2.1418,2.2236,2.3135,2.3135,2.3135,2.3135,2.3135,2.3135,2.3135,2.3135,2.3135,2.3135,2.3135,2.3135,2.3135,2.3135,2.3135,2.3135,2.3135,2.3135,2.3135,2.3135,2.3135,2.3135,2.3135,2.3135,2.3135,2.3135,2.3135,2.3135,2.3135,2.3135,2.3135,2.3135,2.3135,2.4059,2.6307,2.6483,2.7476,2.9624,2.9792,2.9792,2.9792,2.9792,2.9792,2.9792,2.9792,2.9792,2.9792,2.9792,2.9792,1.2419,1.2906,1.3407,1.3861,1.4035,1.4028,1.3808,1.3527,1.3253,1.3026,1.2505,1.2051,1.1904,1.2418,1.3013,1.3467,1.4342,1.5164,1.5745,1.5765,1.5745,1.5818,1.5765,1.5745,1.5818,1.6032,1.6159,1.6159,1.6159,1.6286,1.658,1.6807,1.6961,1.7034,1.7321,1.7468,1.7468,1.7549,1.7582,1.7582,1.7582,1.7582,1.7582,1.7582,1.8199,1.9013,1.7989,1.8157,1.9,1.9,1.9155,1.9475,2.0575,2.1511,2.2452,2.2452,2.284,2.342,2.3213,2.2575,2.1953,2.2877,2.3123,2.3135,2.3135,2.3135,2.3135,2.3135,2.3135,2.3135,2.3135,2.3135,2.3135,2.3135,2.3135,2.3135,2.3135,2.3135,2.3135,2.3135,2.3135,2.3135,2.3135,2.3135,2.3135,2.3135,2.3135,2.3135,2.3135,2.3135,2.3135,2.3135,2.3135,2.3135,2.3135,2.3135,2.3724,2.5126,2.6058,2.7128,2.8518,2.9365,2.9792,2.9792,2.9792,2.9792,2.9792,2.9792,2.9792,2.9792,2.9792,2.9365,1.2946,1.3387,1.3714,1.4015,1.3988,1.3781,1.3347,1.2926,1.2498,1.2064,1.151,1.1089,1.1049,1.1557,1.2204,1.2893,1.3895,1.4823,1.5538,1.5752,1.5832,1.5832,1.5832,1.5879,1.6012,1.6179,1.638,1.664,1.654,1.6593,1.6881,1.7061,1.7208,1.7335,1.7495,1.7582,1.7582,1.7582,1.7582,1.7582,1.7582,1.7582,1.7582,1.7582,1.7996,1.8708,1.8506,1.8909,1.9627,2.0231,2.0845,2.1456,2.2265,2.3242,2.4165,2.4165,2.4516,2.5,2.5,2.4229,2.3438,2.3725,2.3623,2.3389,2.3193,2.3135,2.3135,2.3135,2.3135,2.3135,2.3135,2.3135,2.3135,2.3135,2.3135,2.3135,2.3135,2.3135,2.3135,2.3135,2.3135,2.3135,2.3135,2.3135,2.3135,2.3135,2.3135,2.3135,2.3135,2.3135,2.3135,2.3135,2.3135,2.3135,2.3135,2.3135,2.3551,2.4702,2.5378,2.6461,2.8004,2.8688,2.9275,2.9792,2.9792,2.9792,2.9792,2.9792,2.9792,2.9792,2.9275,2.8688,1.3373,1.3647,1.3768,1.4021,1.3868,1.3474,1.2832,1.2231,1.163,1.1009,1.0441,1.0127,1.0341,1.0715,1.1349,1.2526,1.3414,1.4349,1.5271,1.5611,1.5785,1.5825,1.5832,1.5945,1.6246,1.6306,1.656,1.7108,1.6947,1.6934,1.7194,1.7208,1.7321,1.7575,1.7582,1.7582,1.7582,1.7582,1.7582,1.7582,1.7582,1.7582,1.7582,1.7786,1.7989,1.8192,1.942,1.993,2.0238,2.1448,2.2667,2.3692,2.389,2.4707,2.5742,2.5742,2.5742,2.5742,2.5742,2.5478,2.5029,2.4219,2.3887,2.3721,2.334,2.3184,2.3135,2.3135,2.3135,2.3135,2.3135,2.3135,2.3135,2.3135,2.3135,2.3135,2.3135,2.3135,2.3135,2.3135,2.3135,2.3135,2.3135,2.3135,2.3135,2.3135,2.3135,2.3135,2.3135,2.3135,2.3135,2.3135,2.3135,2.3135,2.3135,2.3135,2.3551,2.4542,2.4702,2.5703,2.7763,2.8004,2.8597,2.9792,2.9792,2.9792,2.9792,2.9624,2.9534,2.9534,2.8438,2.7844,1.324,1.3641,1.4021,1.4075,1.3868,1.342,1.2572,1.1924,1.1269,1.0441,1.0,0.9699,0.9506,1.0301,1.1216,1.1911,1.2979,1.4115,1.5237,1.5438,1.5558,1.5798,1.5832,1.5945,1.6246,1.6486,1.6774,1.7121,1.7321,1.7448,1.7502,1.7508,1.7528,1.7582,1.7582,1.7582,1.7582,1.7582,1.7582,1.7582,1.7582,1.7582,1.7687,1.8708,1.993,2.1041,2.1245,2.1954,2.2976,2.3276,2.3484,2.3791,2.4913,2.5528,2.5742,2.5742,2.5742,2.5742,2.5742,2.5684,2.5537,2.5019,2.4365,2.3779,2.3701,2.3428,2.3135,2.3135,2.3135,2.3135,2.3135,2.3135,2.3135,2.3135,2.3135,2.3135,2.3135,2.3135,2.3135,2.3135,2.3135,2.3135,2.3135,2.3135,2.3135,2.3135,2.3135,2.3135,2.3135,2.3135,2.3135,2.3135,2.3135,2.3135,2.3135,2.3135,2.3222,2.3387,2.4296,2.5378,2.6719,2.7602,2.8597,2.9792,2.9792,2.9792,2.9792,2.8846,2.8426,2.8347,2.729,2.6295,1.3307,1.3641,1.3854,1.3854,1.3514,1.2906,1.1857,1.1169,1.0494,0.9613,0.9325,0.9185,0.9045,0.9726,1.0501,1.1162,1.2051,1.3186,1.4529,1.4843,1.5164,1.5758,1.5832,1.6005,1.6453,1.662,1.6894,1.7341,1.7502,1.7582,1.7582,1.7582,1.7582,1.7582,1.7582,1.7582,1.7582,1.7582,1.7582,1.7582,1.8297,1.8603,1.8708,2.0033,2.1041,2.1752,2.2466,2.3076,2.3791,2.4402,2.4716,2.4815,2.543,2.5742,2.5742,2.5742,2.5742,2.5742,2.5742,2.5742,2.5703,2.5488,2.4824,2.4033,2.3584,2.3301,2.3135,2.3135,2.3135,2.3135,2.3135,2.3135,2.3135,2.3135,2.3135,2.3135,2.3135,2.3135,2.3135,2.3135,2.3135,2.3135,2.3135,2.3135,2.3135,2.3135,2.3135,2.3135,2.3135,2.3135,2.3135,2.3135,2.3135,2.3135,2.3135,2.3135,2.3135,2.3135,2.3637,2.4467,2.5546,2.6707,2.7533,2.8051,2.8621,2.8621,2.8051,2.7533,2.7279,2.7197,2.613,2.5294,1.324,1.35,1.3547,1.3547,1.3093,1.2439,1.1243,1.0541,0.9866,0.8991,0.8804,0.8804,0.8804,0.9232,0.9806,1.0517,1.1243,1.2318,1.3868,1.4335,1.485,1.5725,1.5832,1.6059,1.6647,1.6707,1.6947,1.7535,1.7582,1.7582,1.7582,1.7582,1.7582,1.7582,1.7582,1.7582,1.7582,1.7582,1.7793,1.7989,1.9117,1.9731,2.0135,2.1448,2.2156,2.2156,2.3583,2.4097,2.4196,2.5226,2.5742,2.5742,2.5742,2.5742,2.5742,2.5742,2.5742,2.5742,2.5742,2.5742,2.5723,2.5625,2.5059,2.4287,2.3613,2.3281,2.3135,2.3135,2.3135,2.3135,2.3135,2.3135,2.3135,2.3135,2.3135,2.3135,2.3135,2.3135,2.3135,2.3135,2.3135,2.3135,2.3135,2.3135,2.3135,2.3135,2.3135,2.3135,2.3135,2.3135,2.3135,2.3135,2.3135,2.3135,2.3135,2.3135,2.3135,2.3135,2.3135,2.3637,2.4787,2.563,2.6224,2.6483,2.7371,2.736,2.6483,2.6224,2.6141,2.6141,2.4967,2.4457,1.2732,1.3033,1.3253,1.3253,1.2792,1.2104,1.1202,1.0541,0.9866,0.8991,0.8804,0.8804,0.8804,0.9065,0.9566,1.0421,1.1069,1.2078,1.3841,1.4335,1.485,1.5725,1.5832,1.6059,1.6647,1.6707,1.6947,1.7535,1.7582,1.7582,1.7582,1.7582,1.7582,1.7582,1.7582,1.7582,1.7582,1.7582,1.8192,1.942,1.9524,2.0231,2.155,2.2868,2.3484,2.3583,2.4913,2.5528,2.5538,2.5635,2.5742,2.5742,2.5742,2.5742,2.5742,2.5742,2.5742,2.5742,2.5742,2.5742,2.5674,2.5264,2.4805,2.4404,2.4326,2.376,2.3135,2.3135,2.3135,2.3135,2.3135,2.3135,2.3135,2.3135,2.3135,2.3135,2.3135,2.3135,2.3135,2.3135,2.3135,2.3135,2.3135,2.3135,2.3135,2.3135,2.3135,2.3135,2.3135,2.3135,2.3135,2.3135,2.3135,2.3135,2.3135,2.3135,2.3135,2.3135,2.3135,2.3637,2.4787,2.4872,2.5462,2.6472,2.6565,2.6565,2.6483,2.5462,2.4957,2.4957,2.38,2.3222,1.2305,1.2699,1.2933,1.2933,1.2485,1.181,1.0935,1.0274,0.9659,0.8951,0.8804,0.8804,0.8804,0.8898,0.9212,0.992,1.0227,1.0935,1.2525,1.316,1.3848,1.491,1.5351,1.5865,1.6633,1.6707,1.6947,1.7535,1.7582,1.7582,1.7582,1.7582,1.7582,1.7582,1.7582,1.7582,1.7582,1.7582,1.8304,1.9627,2.0436,2.155,2.2976,2.4304,2.4913,2.4913,2.543,2.5742,2.5742,2.5742,2.5742,2.5742,2.5742,2.5742,2.5742,2.5742,2.5742,2.5742,2.5742,2.5742,2.5713,2.5527,2.499,2.4365,2.4111,2.3799,2.3477,2.3213,2.3135,2.3135,2.3135,2.3135,2.3135,2.3135,2.3135,2.3135,2.3135,2.3135,2.3135,2.3135,2.3135,2.3135,2.3135,2.3135,2.3135,2.3135,2.3135,2.3135,2.3135,2.3135,2.3135,2.3135,2.3135,2.3135,2.3135,2.3135,2.3135,2.3135,2.3135,2.3299,2.38,2.4457,2.4713,2.4478,2.5136,2.5136,2.4478,2.3973,2.38,2.38,2.3299,2.3135,1.1724,1.2198,1.254,1.2378,1.1977,1.1403,1.0608,0.9973,0.9412,0.8911,0.8804,0.8804,0.8804,0.8804,0.8971,0.0,0.9699,1.0321,1.179,1.2512,1.3327,1.4509,1.509,1.5705,1.65,1.6814,1.7134,1.7549,1.7582,1.7582,1.7582,1.7582,1.7582,1.7582,1.7582,1.7582,1.7582,1.7582,1.8506,2.0238,2.1245,2.2567,2.4304,2.5226,2.5742,2.5742,2.5742,2.5742,2.5742,2.5742,2.5742,2.5742,2.5742,2.5742,2.5742,2.5742,2.5742,2.5742,2.5742,2.5644,2.5537,2.5537,2.5029,2.4365,2.4062,2.3799,2.3535,2.3223,2.3135,2.3135,2.3135,2.3135,2.3135,2.3135,2.3135,2.3135,2.3135,2.3135,2.3135,2.3135,2.3135,2.3135,2.3135,2.3135,2.3135,2.3135,2.3135,2.3135,2.3135,2.3135,2.3135,2.3135,2.3135,2.3135,2.3135,2.3135,2.3135,2.3135,2.3135,2.3135,2.3135,2.3887,2.3877,2.3135,2.3877,2.3877,2.3135,2.3135,2.3135,2.3135,2.3135,2.3135,1.0922,1.1436,1.1804,1.1516,1.1223,1.0848,1.0254,0.9666,0.9103,0.8871,0.8804,0.8804,0.8804,0.8804,0.8905,0.9143,0.9733,1.0621,1.2091,1.2819,1.3641,1.4816,1.5217,1.5631,1.6219,1.7061,1.7575,1.7582,1.7582,1.7582,1.7582,1.7582,1.7582,1.7582,1.7582,1.7582,1.7582,1.7582,1.9005,2.1651,2.1643,2.3076,2.5635,2.5732,2.5742,2.5742,2.5742,2.5742,2.5742,2.5742,2.5742,2.5742,2.5742,2.5742,2.5742,2.5742,2.5742,2.5742,2.5742,2.5449,2.5078,2.5078,2.4775,2.4414,2.4414,2.3818,2.3144,2.3135,2.3135,2.3135,2.3135,2.3135,2.3135,2.3135,2.3135,2.3135,2.3135,2.3135,2.3135,2.3135,2.3135,2.3135,2.3135,2.3135,2.3135,2.3135,2.3135,2.3135,2.3135,2.3135,2.3135,2.3135,2.3135,2.3135,2.3135,2.3135,2.3135,2.3135,2.3135,2.3135,2.3135,2.3135,2.3135,2.3135,2.3135,2.3135,2.3135,2.3135,2.3135,2.3135,2.3135,2.3135,1.0261,1.0675,1.1021,1.0855,1.0608,1.0294,0.9907,0.9519,0.9103,0.8871,0.8804,0.8804,0.8804,0.8804,0.9098,0.9993,1.0301,0.0,1.2124,1.2999,1.3721,1.4295,1.5331,1.6146,1.6533,1.79,1.8781,1.8998,1.9013,1.9013,1.9013,1.9013,1.8506,1.7582,1.7582,1.7582,1.7582,1.7582,1.9013,2.1752,2.1752,2.3076,2.5742,2.5742,2.5742,2.5742,2.5742,2.5742,2.5742,2.5742,2.5742,2.5742,2.5742,2.5742,2.5742,2.5742,2.5742,2.5742,2.5742,2.5439,2.5068,2.5068,2.458,2.3984,2.3984,2.3994,2.3955,2.3662,2.3369,2.3135,2.3135,2.3135,2.3135,2.3135,2.3135,2.3135,2.3135,2.3135,2.3135,2.3135,2.3135,2.3135,2.3135,2.3135,2.3135,2.3135,2.3135,2.3135,2.3135,2.3135,2.3135,2.3135,2.3135,2.3135,2.3135,2.3135,2.3135,2.3135,2.3135,2.3135,2.3135,2.3135,2.3135,2.3135,2.3135,2.3135,2.3135,2.3135,2.3135,2.3135,2.3135,2.3135,0.9432,1.0,1.0367,1.0322,1.0094,0.988,0.9586,0.9285,0.9025,0.8844,0.8804,0.8804,0.8804,0.8804,0.9045,0.978,1.0174,1.0762,1.1817,1.2839,1.3754,1.4496,1.5484,1.6219,1.6513,1.8189,1.9029,1.8722,1.9758,1.993,1.8909,1.9826,1.9723,1.8401,1.8909,1.8909,1.8401,1.8909,2.0025,2.1752,2.2257,2.3583,2.5742,2.5742,2.5742,2.5742,2.5742,2.5742,0.0,2.5742,2.5742,2.5742,2.5742,2.5742,2.5742,2.5742,2.5635,2.5488,2.5488,2.5088,2.459,2.459,2.4228,2.3789,2.3789,2.3857,2.3877,2.3613,2.335,2.3135,2.3135,2.3135,2.3135,2.3135,2.3135,2.3135,2.3135,2.3135,2.3135,2.3135,2.3135,2.3135,2.3135,2.3135,2.3135,2.3135,2.3135,2.3135,2.3135,2.3135,2.3135,2.3135,2.3135,2.3135,2.3135,2.3135,2.3135,2.3135,2.3135,2.3135,2.3135,2.3135,2.3135,2.3135,2.3135,2.3135,2.3135,2.3135,2.3135,2.3135,2.3135,2.3135,0.0,0.9325,0.99,0.9653,0.9593,0.9526,0.921,0.9005,0.0,0.8804,0.8804,0.8818,0.8864,0.8851,0.8871,0.8978,0.9693,1.0548,1.143,1.2579,1.3854,1.5264,1.5665,1.5945,1.6434,1.813,1.8787,1.7619,2.0202,2.0696,1.8164,2.042,2.1245,1.9937,2.1245,2.1253,1.9627,2.1049,2.1752,2.1752,2.3076,2.4402,2.5742,2.5742,2.5742,2.5742,2.5742,2.5742,2.5742,2.5742,2.5742,2.5742,2.5742,2.5742,2.5732,2.5703,2.543,2.5059,2.5029,2.4482,2.3779,2.375,2.374,2.374,2.374,2.3486,2.3184,2.3184,2.3164,2.3135,2.3135,2.3135,2.3135,2.3135,2.3135,2.3135,2.3135,2.3135,2.3135,2.3135,2.3135,2.3135,2.3135,2.3135,2.3135,2.3135,2.3135,2.3135,2.3135,2.3135,2.3135,2.3135,2.3135,2.3135,2.3135,2.3135,2.3135,2.3135,2.3135,2.3135,2.3135,2.3135,2.3135,2.3135,2.3135,2.3135,2.3135,2.3135,2.3135,2.3135,2.3135,2.3135,0.7768,0.0,0.8484,0.8644,0.8684,0.8724,0.0,0.8858,0.8804,0.8804,0.0,0.8945,0.9392,0.9292,0.9449,1.0628,1.1176,1.177,1.2665,1.3808,1.4843,1.5631,1.5785,1.6313,1.7572,1.9057,2.0213,2.108,2.2117,2.2432,2.1734,2.2711,2.3076,2.2776,2.4097,2.3085,1.9627,2.1049,2.1752,2.1752,2.3076,2.4402,2.5742,2.5742,2.5742,2.5742,2.5742,2.5742,2.5742,2.5742,2.5742,2.5742,2.5742,2.5742,2.5693,2.5352,2.5156,2.5019,2.4687,2.4228,2.374,2.3398,2.3291,2.3291,2.3291,2.3457,2.3633,2.3633,2.3398,2.3135,2.3135,2.3135,2.3135,2.3135,2.3135,2.3135,2.3135,2.3135,2.3135,2.3135,2.3135,2.3135,2.3135,2.3135,2.3135,2.3135,2.3135,2.3135,2.3135,2.3135,2.3135,2.3135,2.3135,2.3135,2.3135,2.3135,2.3135,2.3135,2.3135,2.3135,2.3135,2.3135,2.3135,2.3135,2.3135,2.3135,2.3135,2.3135,2.3135,2.3135,2.3135,2.3135,0.7228,0.7689,0.8176,0.8337,0.8477,0.8611,0.8771,0.0,0.0,0.0,0.0,0.8945,0.9399,0.9459,0.9786,1.0855,1.1503,1.2325,1.3627,1.4589,1.5331,1.5772,1.5832,1.636,1.7742,1.9287,2.0389,2.1165,2.2781,2.3112,2.1847,2.339,2.4017,2.3412,2.4916,2.4304,2.1558,2.2876,2.3276,2.2667,2.3998,2.502,2.5742,2.5742,2.5742,2.5742,2.5742,2.5742,2.5742,2.5742,2.5742,2.5742,2.5742,2.5742,2.5684,2.5234,2.4941,2.4707,2.4277,2.3848,2.3457,2.3213,2.3135,2.3135,2.3135,2.3301,2.3496,2.3496,2.332,2.3135,2.3135,2.3135,2.3135,2.3135,2.3135,2.3135,2.3135,2.3135,2.3135,2.3135,2.3135,2.3135,2.3135,2.3135,2.3135,2.3135,2.3135,2.3135,2.3135,2.3135,2.3135,2.3135,2.3135,2.3135,2.3135,2.3135,2.3135,2.3135,2.3135,2.3135,2.3135,2.3135,2.3135,2.3135,2.3135,2.3135,2.3135,2.3135,2.3135,2.3135,2.3135,2.3135,0.7065,0.7832,0.8502,0.8502,0.8772,0.9058,0.9099,0.0,0.0,0.0,0.0,0.0,0.941,0.967,1.0027,1.0719,1.1536,1.2732,1.4416,1.5084,1.5597,1.6075,1.6109,1.6662,1.8141,1.9491,2.0306,2.0408,2.2834,2.3364,2.106,2.3465,2.4469,2.3295,2.4736,2.4956,2.3898,2.5089,2.502,2.3692,2.502,2.5742,2.5742,2.5742,2.5742,2.5742,2.5742,2.5742,2.5742,2.5742,2.5742,2.5742,2.5742,2.5693,2.5586,2.5137,2.4697,2.4258,2.3838,2.3447,2.3135,2.3135,2.3135,2.3135,2.3135,2.3135,2.3135,2.3135,2.3135,2.3135,2.3135,2.3135,2.3135,2.3135,2.3135,2.3135,2.3135,2.3135,2.3135,2.3135,2.3135,2.3135,2.3135,2.3135,2.3135,2.3135,2.3135,2.3135,2.3135,2.3135,2.3135,2.3135,2.3135,2.3135,2.3135,2.3135,2.3135,2.3135,2.3135,2.3135,2.3135,2.3135,2.3135,2.3135,2.3135,2.3135,2.3135,2.3135,2.3135,2.3135,2.3135,2.3135,0.7691,0.8379,0.8823,0.8823,0.9485,1.0205,1.0452,0.0,0.0,0.0,0.0,0.0,0.0,1.0634,1.0759,1.1606,1.2625,1.3814,1.5084,1.5337,1.5869,1.7282,1.7412,1.8319,2.0567,2.0988,2.1571,2.2498,2.3454,2.3696,2.3314,2.4094,2.4419,2.4224,2.4487,2.4701,2.487,2.545,2.502,2.3692,2.502,2.5742,2.5742,2.5742,2.5742,2.5742,2.5742,2.5742,2.5742,2.5742,2.5742,2.5742,2.5742,2.5508,2.5117,2.4678,2.4248,2.3828,2.3389,2.3193,2.3135,2.3135,2.3135,2.3135,2.3135,2.3135,2.3135,2.3135,2.3135,2.3135,2.3135,2.3135,2.3135,2.3135,2.3135,2.3135,2.3135,2.3135,2.3135,2.3135,2.3135,2.3135,2.3135,2.3135,2.3135,2.3135,2.3135,2.3135,2.3135,2.3135,2.3135,2.3135,2.3135,2.3135,2.3135,2.3135,2.3135,2.3135,2.3135,2.3135,2.3135,2.3135,2.3135,2.3135,2.3135,2.3135,2.3135,2.3135,2.3135,2.3135,2.3135,2.3135,0.7457,0.8579,0.952,0.9839,1.0454,1.1014,1.1121,0.0,0.0,0.0,0.0,0.0,0.0,1.2092,1.2871,1.3805,1.4739,1.5605,1.6259,1.7059,1.7865,1.8572,1.868,1.9405,2.1114,2.1293,2.1756,2.3047,2.332,2.3437,2.3437,2.3848,2.4082,2.4082,2.4297,2.4512,2.4717,2.4922,2.4842,2.4466,2.5315,2.5605,2.5381,2.5625,2.5742,2.5742,2.5742,2.5742,2.5742,2.5742,2.5742,2.5713,2.5469,2.5254,2.499,2.4316,2.3809,2.3408,2.3213,2.3135,2.3135,2.3135,2.3135,2.3135,2.3135,2.3135,2.3135,2.3135,2.3135,2.3135,2.3135,2.3135,2.3135,2.3135,2.3135,2.3135,2.3135,2.3135,2.3135,2.3135,2.3135,2.3135,2.3135,2.3135,2.3135,2.3135,2.3135,2.3135,2.3135,2.3135,2.2862,2.2217,2.2677,2.2862,2.2217,2.2775,2.3135,2.3135,2.3135,2.3135,2.3135,2.3135,2.3135,2.3135,2.3135,2.3135,2.3135,2.3135,2.3135,2.3135,2.3135,2.3135,0.7463,0.8757,1.0017,1.0894,0.0,1.1861,1.2096,0.0,0.0,0.0,0.0,0.0,0.0,1.3721,1.498,1.6006,1.6722,1.7339,1.7666,1.8771,1.9579,1.9852,1.9943,2.0395,2.1569,2.1747,2.212,2.3047,2.3135,2.3135,2.3135,2.3457,2.3633,2.3633,2.3945,2.417,2.4268,2.4268,2.4482,2.4922,2.5264,2.5244,2.4922,2.5273,2.543,2.543,2.543,2.543,2.543,2.543,2.543,2.5391,2.5049,2.4853,2.4678,2.3916,2.3428,2.3135,2.3135,2.3135,2.3135,2.3135,2.3135,2.3135,2.3135,2.3135,2.3135,2.3135,2.3135,2.3135,2.3135,2.3135,2.3135,2.3135,2.3135,2.3135,2.3135,2.3135,2.3135,2.3135,2.3135,2.3135,2.3135,2.3135,2.3135,2.3135,2.2862,2.2775,2.3047,2.2862,2.2403,2.1756,2.2589,2.2775,2.1756,2.2589,2.3135,2.3135,2.3135,2.3135,2.3135,2.3135,2.3135,2.3135,2.3135,2.3135,2.3135,2.3135,2.3135,2.3135,2.3135,2.3135,0.8302,0.9199,0.9935,1.1655,1.2454,0.0,1.3739,1.3951,0.0,1.4984,0.0,0.0,1.4621,1.5248,1.6146,1.7433,1.7997,1.8567,1.9266,1.9389,1.9943,2.1025,2.1203,2.1658,2.2862,2.296,2.3047,2.3047,2.3135,2.3135,2.3135,2.3164,2.3184,2.3184,2.3213,2.3428,2.3828,2.3838,2.4043,2.4463,2.4492,2.4492,2.4463,2.4492,2.4512,2.4512,2.4512,2.4512,2.4512,2.4512,2.4512,2.4512,2.4473,2.4228,2.3828,2.3359,2.3164,2.3135,2.3135,2.3135,2.3135,2.3135,2.3135,2.3135,2.3135,2.3135,2.3135,2.3135,2.3135,2.3135,2.3135,2.3135,2.3135,2.3135,2.3135,2.3135,2.3135,2.3135,2.3135,2.3135,2.3135,2.3135,2.3135,2.3135,2.3135,2.3135,2.212,2.1845,2.296,2.212,2.1845,2.2862,2.3047,2.3047,2.296,2.3047,2.3135,2.3135,2.3135,2.3135,2.3135,2.3135,2.3135,2.3135,2.3135,2.3135,2.3135,2.3135,2.3135,2.3135,2.3135,2.3135,0.7759,0.9213,1.0454,1.1183,1.2493,0.0,0.0,1.4951,1.5576,1.6455,1.6645,0.0,1.7102,1.6793,1.7002,1.8538,1.919,1.979,2.0552,2.1311,2.1952,2.2403,2.2403,2.2589,2.3047,2.3135,2.3135,2.3135,2.3135,2.3135,2.3135,2.3135,2.3135,2.3135,2.3135,2.3213,2.3379,2.3389,2.3467,2.3623,2.416,2.4277,2.4033,2.4297,2.4414,2.4414,2.4414,2.4414,2.4414,2.4414,2.4414,2.4394,2.4131,2.3769,2.3359,2.3203,2.3135,2.3135,2.3135,2.3135,2.3135,2.3135,2.3135,2.3135,2.3135,2.3135,2.3135,2.3135,2.3135,2.3135,2.3135,2.3135,2.3135,2.3135,2.3135,2.3135,2.3135,2.3135,2.3135,2.3135,2.3135,2.3135,2.3135,2.3135,2.3135,2.3135,2.2677,2.2589,2.3047,2.2677,2.2306,2.2031,2.1943,2.2306,2.3047,2.3135,2.3135,2.3135,2.3135,2.3135,2.3135,2.3135,2.3135,2.3135,2.3135,2.3135,2.3135,2.3135,2.3135,2.3135,2.3135,2.3135,0.7945,0.9511,1.0947,0.0,0.0,0.0,1.5029,1.5644,1.6387,1.7539,1.8008,1.834,1.876,1.8175,1.8142,1.9723,2.0384,2.1014,2.1734,2.2589,2.3135,2.3135,2.3135,2.3135,2.3135,2.3135,2.3135,2.3135,2.3135,2.3135,2.3135,2.3135,2.3135,2.3135,2.3135,2.3135,2.3135,2.3135,2.3135,2.3144,2.373,2.3867,2.3594,2.3887,2.4014,2.4014,2.4014,2.4014,2.4014,2.4014,2.4014,2.3984,2.3701,2.3398,2.3135,2.3135,2.3135,2.3135,2.3135,2.3135,2.3135,2.3135,2.3135,2.3135,2.3135,2.3135,2.3135,2.3135,2.3135,2.3135,2.3135,2.3135,2.3135,2.3135,2.3135,2.3135,2.3135,2.3135,2.3135,2.3135,2.3135,2.3135,2.3135,2.3135,2.3135,2.3135,2.2775,2.2677,2.3047,2.2775,2.2403,2.1943,2.1845,2.2217,2.3047,2.3135,2.3135,2.3135,2.3135,2.3135,2.3135,2.3135,2.3135,2.3135,2.3135,2.3135,2.3135,2.3135,2.3135,2.3135,2.3135,2.3135,0.9177,1.0286,1.1311,0.0,0.0,0.0,1.5771,1.6135,1.6562,1.8291,1.8652,1.8789,1.9219,1.9297,1.9727,2.1025,2.1602,2.2178,2.3018,2.3135,2.3135,2.3135,2.3135,2.3135,2.3135,2.3135,2.3135,2.3135,2.3135,2.3135,2.3135,2.3135,2.3135,2.3135,2.3135,2.3135,2.3135,2.3135,2.3135,2.3135,2.3135,2.3135,2.3135,2.3135,2.3135,2.3135,2.3135,2.3135,2.3135,2.3135,2.3135,2.3135,2.3135,2.3135,2.3135,2.3135,2.3135,2.3135,2.3135,2.3135,2.3135,2.3135,2.3135,2.3135,2.3135,2.3135,2.3135,2.3135,2.3135,2.3135,2.3135,2.3135,2.3135,2.3135,2.3135,2.3135,2.3135,2.3135,2.3135,2.3135,2.3135,2.3135,2.3135,2.3135,2.3135,2.3135,2.212,2.1756,2.296,2.2031,2.1756,2.296,2.3135,2.3135,2.3135,2.3135,2.3135,2.3135,2.3135,2.3135,2.3135,2.3135,2.3135,2.3135,2.3135,2.3135,2.3135,2.3135,2.3135,2.3135,2.3135,2.3135,0.8921,1.0205,0.0,1.2147,0.0,0.0,0.0,1.6543,0.0,0.0,1.9775,1.9941,1.9766,1.998,2.041,2.1123,2.1602,2.2178,2.3018,2.3135,2.3135,2.3135,2.3135,2.3135,2.3135,2.3135,2.3135,2.3135,2.3135,2.3135,2.3135,2.3135,2.3135,2.3135,2.3135,2.3135,2.3135,2.3135,2.3135,2.3135,2.3135,2.3135,2.3135,2.3135,2.3135,2.3135,2.3135,2.3135,2.3135,2.3135,2.3135,2.3135,2.3135,2.3135,2.3135,2.3135,2.3135,2.3135,2.3135,2.3135,2.3135,2.3135,2.3135,2.3135,2.3135,2.3135,2.3135,2.3135,2.3135,2.3135,2.3135,2.3135,2.3135,2.3135,2.3135,2.3135,2.3135,2.3135,2.3135,2.3135,2.3135,2.3135,2.3135,2.3135,2.3135,2.3135,2.2775,2.2677,2.3047,2.2775,2.2677,2.3047,2.3135,2.3135,2.3135,2.3135,2.3135,2.3135,2.3135,2.3135,2.3135,2.3135,2.3135,2.3135,2.3135,2.3135,2.3135,2.3135,2.3135,2.3135,2.3135,2.3135,0.9337,1.0724,0.0,1.2673,1.4246,1.5869,1.666,0.0,0.0,1.9453,2.001,2.0283,2.0185,2.0244,2.0508,2.1133,2.1602,2.2119,2.2793,2.3037,2.3135,2.3135,2.3135,2.3135,2.3135,2.3135,2.3135,2.3135,2.3135,2.3135,2.3135,2.3135,2.3135,2.3135,2.3135,2.3135,2.3135,2.3135,2.3135,2.3135,2.3135,2.3135,2.3135,2.3135,2.3135,2.3135,2.3135,2.3135,2.3135,2.3135,2.3135,2.3135,2.3135,2.3135,2.3135,2.3135,2.3135,2.3135,2.3135,2.3135,2.3135,2.3135,2.3135,2.3135,2.3135,2.3135,2.3135,2.3135,2.3135,2.3135,2.3135,2.3135,2.3135,2.3135,2.3135,2.3135,2.3135,2.3135,2.3135,2.3135,2.3135,2.3135,2.3135,2.3135,2.3135,2.3135,2.3135,2.3135,2.3135,2.3135,2.3135,2.3135,2.3135,2.3135,2.3135,2.3135,2.3135,2.3135,2.3135,2.3135,2.3135,2.3135,2.3135,2.3135,2.3135,2.3135,2.3135,2.3135,2.3135,2.3135,2.3135,2.3135,1.0145,1.1501,0.0,1.3801,1.5137,0.0,1.7725,1.8643,1.9238,1.9277,1.9619,2.0049,2.0478,2.0244,2.0254,2.1094,2.1562,2.1982,2.2451,2.2842,2.3096,2.3135,2.3135,2.3135,2.3135,2.3135,2.3135,2.3135,2.3135,2.3135,2.3135,2.3135,2.3135,2.3135,2.3135,2.3135,2.3135,2.3135,2.3135,2.3135,2.3135,2.3135,2.3135,2.3135,2.3135,2.3135,2.3135,2.3135,2.3135,2.3135,2.3135,2.3135,2.3135,2.3135,2.3135,2.3135,2.3135,2.3135,2.3135,2.3135,2.3135,2.3135,2.3135,2.3135,2.3135,2.3135,2.3135,2.3135,2.3135,2.3135,2.3135,2.3135,2.3135,2.3135,2.3135,2.3135,2.3135,2.3135,2.3135,2.3135,2.3135,2.3135,2.3135,2.3135,2.3135,2.3135,2.3135,2.3135,2.3135,2.3135,2.3135,2.3135,2.3135,2.3135,2.3135,2.3135,2.3135,2.3135,2.3135,2.3135,2.3135,2.3135,2.3135,2.3135,2.3135,2.3135,2.3135,2.3135,2.3135,2.3135,2.3135,2.3135,1.0143,1.1138,0.0,0.0,1.5371,1.6836,1.7793,1.8408,1.8877,1.9219,1.9619,2.0049,2.0478,2.0488,2.0605,2.1143,2.1309,2.1641,2.2402,2.2588,2.2773,2.3096,2.3135,2.3135,2.3135,2.3135,2.3135,2.3135,2.3135,2.3135,2.3135,2.3135,2.3135,2.3135,2.3135,2.3135,2.3135,2.3135,2.3135,2.3135,2.3135,2.3135,2.3135,2.3135,2.3135,2.3135,2.3135,2.3135,2.3135,2.3135,2.3135,2.3135,2.3135,2.3135,2.3135,2.3135,2.3135,2.3135,2.3135,2.3135,2.3135,2.3135,2.3135,2.3135,2.3135,2.3135,2.3135,2.3135,2.3135,2.3135,2.3135,2.3135,2.3135,2.3135,2.3135,2.3135,2.3135,2.3135,2.3135,2.3135,2.3135,2.3135,2.3135,2.3135,2.3135,2.3135,2.3135,2.3135,2.3135,2.3135,2.3135,2.3135,2.3135,2.3135,2.3135,2.3135,2.3135,2.3135,2.3135,2.3135,2.3135,2.3135,2.3135,2.3135,2.3135,2.3135,2.3135,2.3135,2.3135,2.3135,2.3135,2.3135,0.9721,0.0,0.0,1.4141,0.0,1.6904,1.7559,1.8037,1.8457,1.8887,1.9473,1.998,2.0215,2.042,2.0644,2.0879,2.1094,2.1396,2.1836,2.208,2.2295,2.251,2.2715,2.2832,2.2832,2.3018,2.3135,2.3135,2.3135,2.3135,2.3135,2.3135,2.3135,2.3135,2.3135,2.3135,2.3135,2.3135,2.3135,2.3135,2.3135,2.3135,2.3135,2.3135,2.3135,2.3135,2.3135,2.3135,2.3135,2.3135,2.3135,2.3135,2.3135,2.3135,2.3135,2.3135,2.3135,2.3135,2.3135,2.3135,2.3135,2.3135,2.3135,2.3135,2.3135,2.3135,2.3135,2.3135,2.3135,2.3135,2.3135,2.3135,2.3135,2.3135,2.3135,2.3135,2.3135,2.3135,2.3135,2.3135,2.3135,2.3135,2.3135,2.3135,2.3135,2.3135,2.3135,2.3135,2.3135,2.3135,2.3135,2.3135,2.3135,2.3135,2.3135,2.3135,2.3135,2.3135,2.3135,2.3135,2.3135,2.3135,2.3135,2.3135,2.3135,2.3135,2.3135,2.3135,2.3135,2.3135,2.3135,2.3135,0.8993,0.0,1.1903,1.4687,1.6016,0.0,1.7266,1.7656,1.8018,1.8437,1.915,1.9717,1.9795,2.0156,2.0449,2.0449,2.083,2.1143,2.1221,2.1543,2.1807,2.1875,2.2256,2.251,2.251,2.2891,2.3135,2.3135,2.3135,2.3135,2.3135,2.3135,2.3135,2.3135,2.3135,2.3135,2.3135,2.3135,2.3135,2.3135,2.3135,2.3135,2.3135,2.3135,2.3135,2.3135,2.3135,2.3135,2.3135,2.3135,2.3135,2.3135,2.3135,2.3135,2.3135,2.3135,2.3135,2.3135,2.3135,2.3135,2.3135,2.3135,2.3135,2.3135,2.3135,2.3135,2.3135,2.3135,2.3135,2.3135,2.3135,2.3135,2.3135,2.3135,2.3135,2.3135,2.3135,2.3135,2.3135,2.3135,2.3135,2.3135,2.3135,2.3135,2.3135,2.3135,2.3135,2.3135,2.3135,2.3135,2.3135,2.3135,2.3135,2.3135,2.3135,2.3135,2.3135,2.3135,2.3135,2.3135,2.3135,2.3135,2.3135,2.3135,2.3135,2.3135,2.3135,2.3135,2.3135,2.3135,2.3135,2.3135,0.0,0.0,1.2656,0.0,1.5781,1.6367,1.7197,1.7432,1.7588,1.8008,1.8477,1.8926,1.9307,1.9717,2.0,2.0,2.0371,2.0791,2.1182,2.1279,2.1455,2.1836,2.2256,2.251,2.251,2.2891,2.3135,2.3135,2.3135,2.3135,2.3135,2.3135,2.3135,2.3135,2.3135,2.3135,2.3135,2.3135,2.3135,2.3135,2.3135,2.3135,2.3135,2.3135,2.3135,2.3135,2.3135,2.3135,2.3135,2.3135,2.3135,2.3135,2.3135,2.3135,2.3135,2.3135,2.3135,2.3135,2.3135,2.3135,2.3135,2.3135,2.3135,2.3135,2.3135,2.3135,2.3135,2.3135,2.3135,2.3135,2.3135,2.3135,2.3135,2.3135,2.3135,2.3135,2.3135,2.3135,2.3135,2.3135,2.3135,2.3135,2.3135,2.3135,2.3135,2.3135,2.3135,2.3135,2.3135,2.3135,2.3135,2.3135,2.3135,2.3135,2.3135,2.3135,2.3135,2.3135,2.3135,2.3135,2.3135,2.3135,2.3135,2.3135,2.3135,2.3135,2.3135,2.3135,2.3135,2.3135,2.3135,2.3135,0.8221,1.0293,1.2344,0.0,1.5195,1.5869,1.6494,1.7031,1.7432,1.7627,1.7988,1.8418,1.8848,1.9277,1.9639,1.9873,2.0078,2.0352,2.0801,2.0859,2.0928,2.1123,2.1533,2.1797,2.1797,2.2402,2.2783,2.2783,2.3008,2.3135,2.3135,2.3135,2.3135,2.3135,2.3135,2.3135,2.3135,2.3135,2.3135,2.3135,2.3135,2.3135,2.3135,2.3135,2.3135,2.3135,2.3135,2.3135,2.3135,2.3135,2.3135,2.3135,2.3135,2.3135,2.3135,2.3135,2.3135,2.3135,2.3135,2.3135,2.3135,2.3135,2.3135,2.3135,2.3135,2.3135,2.3135,2.3135,2.3135,2.3135,2.3135,2.3135,2.3135,2.3135,2.3135,2.3135,2.3135,2.3135,2.3135,2.3135,2.3135,2.3135,2.3135,2.3135,2.3135,2.3135,2.3135,2.3135,2.3135,2.3135,2.3135,2.3135,2.3135,2.3135,2.3135,2.3135,2.3135,2.3135,2.3135,2.3135,2.3135,2.3135,2.3135,2.3135,2.3135,2.3135,2.3135,2.3135,2.3135,2.3135,2.3135,2.3135,0.0,0.0,1.1705,1.3384,1.4453,1.5225,1.5771,1.6406,1.6943,1.7168,1.7559,1.7949,1.8262,1.876,1.9228,1.9541,1.9775,2.0029,2.0352,2.0498,2.0566,2.0566,2.0967,2.123,2.123,2.1914,2.2353,2.2353,2.2646,2.2861,2.2969,2.2978,2.3027,2.3135,2.3135,2.3135,2.3135,2.3135,2.3135,2.3135,2.3135,2.3135,2.3135,2.3135,2.3135,2.3135,2.3135,2.3135,2.3135,2.3135,2.3135,2.3135,2.3135,2.3135,2.3135,2.3135,2.3135,2.3135,2.3135,2.3135,2.3135,2.3135,2.3135,2.3135,2.3135,2.3135,2.3135,2.3135,2.3135,2.3135,2.3135,2.3135,2.3135,2.3135,2.3135,2.3135,2.3135,2.3135,2.3135,2.3135,2.3135,2.3135,2.3135,2.3135,2.3135,2.3135,2.3135,2.3135,2.3135,2.3135,2.3135,2.3135,2.3135,2.3135,2.3135,2.3135,2.3135,2.3135,2.3135,2.3135,2.3135,2.3135,2.3135,2.3135,2.3135,2.3135,2.3135,2.3135,2.3135,2.3135,2.3135,2.3135,0.0,0.9395,0.0,1.2522,1.3574,1.436,1.5254,1.5478,1.5752,1.6592,1.7109,1.7422,1.7451,1.8115,1.8601,1.863,1.9385,1.9922,1.9941,2.0303,2.0566,2.0566,2.0967,2.123,2.123,2.165,2.1924,2.1924,2.1934,2.2129,2.2519,2.2549,2.2734,2.3125,2.3135,2.3135,2.3135,2.3135,2.3135,2.3135,2.3135,2.3135,2.3135,2.3135,2.3135,2.3135,2.3135,2.3135,2.3135,2.3135,2.3135,2.3135,2.3135,2.3135,2.3135,2.3135,2.3135,2.3135,2.3135,2.3135,2.3135,2.3135,2.3135,2.3135,2.3135,2.3135,2.3135,2.3135,2.3135,2.3135,2.3135,2.3135,2.3135,2.3135,2.3135,2.3135,2.3135,2.3135,2.3135,2.3135,2.3135,2.3135,2.3135,2.3135,2.3135,2.3135,2.3135,2.3135,2.3135,2.3135,2.3135,2.3135,2.3135,2.3135,2.3135,2.3135,2.3135,2.3135,2.3135,2.3135,2.3135,2.3135,2.3135,2.3135,2.3135,2.3135,2.3135,2.3135,2.3135,2.3135,2.3135,2.3135,0.0,0.0,0.0,1.1733,1.2686,1.3477,1.4053,1.4824,1.5508,1.582,1.6455,1.6963,1.6963,1.7656,1.832,1.8594,1.8896,1.9189,1.9473,1.9883,2.0146,2.0146,2.0537,2.0801,2.0801,2.1211,2.1465,2.1465,2.1728,2.1953,2.21,2.2109,2.2178,2.2334,2.2334,2.2461,2.2734,2.2998,2.3135,2.3135,2.3135,2.3135,2.3135,2.3135,2.3135,2.3135,2.3135,2.3135,2.3135,2.3135,2.3135,2.3135,2.3135,2.3135,2.3135,2.3135,2.3135,2.3135,2.3135,2.3135,2.3135,2.3135,2.3135,2.3135,2.3135,2.3135,2.3135,2.3135,2.3135,2.3135,2.3135,2.3135,2.3135,2.3135,2.3135,2.3135,2.3135,2.3135,2.3135,2.3135,2.3135,2.3135,2.3135,2.3135,2.3135,2.3135,2.3135,2.3135,2.3135,2.3135,2.3135,2.3135,2.3135,2.3135,2.3135,2.3135,2.3135,2.3135,2.3135,2.3135,2.3135,2.3135,2.3135,2.3135,2.3135,2.3135,2.3135,2.3135,2.3135,2.3135,2.3135,2.3135,0.7924,0.0,0.0,0.0,1.1787,1.2441,1.3311,1.4053,1.4678,1.5117,1.5781,1.6328,1.6484,1.71,1.7715,1.8144,1.8457,1.874,1.9023,1.9434,1.9707,1.9707,2.0078,2.0352,2.0352,2.0752,2.1016,2.1016,2.1279,2.1514,2.166,2.167,2.1738,2.1885,2.1885,2.209,2.251,2.2793,2.2998,2.3135,2.3135,2.3135,2.3135,2.3135,2.3135,2.3135,2.3135,2.3135,2.3135,2.3135,2.3135,2.3135,2.3135,2.3135,2.3135,2.3135,2.3135,2.3135,2.3135,2.3135,2.3135,2.3135,2.3135,2.3135,2.3135,2.3135,2.3135,2.3135,2.3135,2.3135,2.3135,2.3135,2.3135,2.3135,2.3135,2.3135,2.3135,2.3135,2.3135,2.3135,2.3135,2.3135,2.3135,2.3135,2.3135,2.3135,2.3135,2.3135,2.3135,2.3135,2.3135,2.3135,2.3135,2.3135,2.3135,2.3135,2.3135,2.3135,2.3135,2.3135,2.3135,2.3135,2.3135,2.3135,2.3135,2.3135,2.3135,2.3135,2.3135,2.3135,2.3135,2.3135,0.0,0.0,0.0,1.0547,1.0879,1.1348,1.3047,1.3135,1.3213,1.4473,1.5078,1.5508,1.6007,1.6406,1.6855,1.7275,1.8047,1.8603,1.8613,1.8994,1.9268,1.9268,1.9639,1.9902,1.9912,2.0303,2.0557,2.0566,2.0566,2.0752,2.1191,2.1211,2.1406,2.1836,2.1865,2.206,2.2471,2.249,2.2705,2.3125,2.3125,2.3125,2.3135,2.3135,2.3135,2.3135,2.3135,2.3135,2.3135,2.3135,2.3135,2.3135,2.3135,2.3135,2.3135,2.3135,2.3135,2.3135,2.3135,2.3135,2.3135,2.3135,2.3135,2.3135,2.3135,2.3135,2.3135,2.3135,2.3135,2.3135,2.3135,2.3135,2.3135,2.3135,2.3135,2.3135,2.3135,2.3135,2.3135,2.3135,2.3135,2.3135,2.3135,2.3135,2.3135,2.3135,2.3135,2.3135,2.3135,2.3135,2.3135,2.3135,2.3135,2.3135,2.3135,2.3135,2.3135,2.3135,2.3135,2.3135,2.3135,2.3135,2.3135,2.3135,2.3135,2.3135,2.3135,2.3135,2.3135,2.3135,2.3135,2.3135,0.7779,0.0,0.0,0.0,0.0,0.0,1.1514,1.2031,1.2598,1.3271,1.3984,1.4619,1.5059,1.5742,1.6289,1.6468,1.7158,1.7832,1.8144,1.8545,1.8818,1.8818,1.9199,1.958,1.9883,2.0019,2.0225,2.0537,2.0566,2.0625,2.0742,2.0752,2.081,2.0928,2.124,2.1475,2.1592,2.1904,2.2266,2.2685,2.2685,2.2842,2.3135,2.3135,2.3135,2.3135,2.3135,2.3135,2.3135,2.3135,2.3135,2.3135,2.3135,2.3135,2.3135,2.3135,2.3135,2.3135,2.3135,2.3135,2.3135,2.3135,2.3135,2.3135,2.3135,2.3135,2.3135,2.3135,2.3135,2.3135,2.3135,2.3135,2.3135,2.3135,2.3135,2.3135,2.3135,2.3135,2.3135,2.3135,2.3135,2.3135,2.3135,2.3135,2.3135,2.3135,2.3135,2.3135,2.3135,2.3135,2.3135,2.3135,2.3135,2.3135,2.3135,2.3135,2.3135,2.3135,2.3135,2.3135,2.3135,2.3135,2.3135,2.3135,2.3135,2.3135,2.3135,2.3135,2.3135,2.3135,2.3135,2.3135,0.8561,0.9248,1.002,1.0059,0.0,0.0,1.1562,1.1846,1.2178,1.2978,1.3525,1.4004,1.4434,1.4922,1.5371,1.5732,1.6221,1.6836,1.7637,1.8115,1.8379,1.8379,1.875,1.9111,1.9355,1.9541,1.9756,2.001,2.0195,2.0371,2.0557,2.0566,2.0566,2.0566,2.082,2.1045,2.123,2.1484,2.1826,2.2246,2.2246,2.2383,2.2617,2.2617,2.2715,2.2881,2.2881,2.2978,2.3135,2.3135,2.3135,2.3135,2.3135,2.3135,2.3135,2.3135,2.3135,2.3135,2.3135,2.3135,2.3135,2.3135,2.3135,2.3135,2.3135,2.3135,2.3135,2.3135,2.3135,2.3135,2.3135,2.3135,2.3135,2.3135,2.3135,2.3135,2.3135,2.3135,2.3135,2.3135,2.3135,2.3135,2.3135,2.3135,2.3135,2.3135,2.3135,2.3135,2.3135,2.3135,2.3135,2.3135,2.3135,2.3135,2.3135,2.3135,2.3135,2.3135,2.3135,2.3135,2.3135,2.3135,2.2862,2.2403,2.2306,2.2306,2.2306,2.2862,2.3135,2.3135,2.3135,2.3135,0.968,0.9738,1.0107,1.1253,1.0989,0.0,1.2324,1.2096,1.1861,1.2978,1.3262,1.3437,1.3906,1.398,1.4326,1.5137,1.5352,1.5859,1.7129,1.7676,1.7939,1.7939,1.8311,1.8584,1.8633,1.8984,1.9238,1.9287,1.9639,2.0029,2.0469,2.0498,2.0518,2.0566,2.0566,2.0752,2.1152,2.1162,2.1377,2.1816,2.1816,2.1836,2.1885,2.1885,2.209,2.2441,2.2441,2.2685,2.3066,2.3066,2.3096,2.3135,2.3135,2.3135,2.3135,2.3135,2.3135,2.3135,2.3135,2.3135,2.3135,2.3135,2.3135,2.3135,2.3135,2.3135,2.3135,2.3135,2.3135,2.3135,2.3135,2.3135,2.3135,2.3135,2.3135,2.3135,2.3135,2.3135,2.3135,2.3135,2.3135,2.3135,2.3135,2.3135,2.3135,2.3135,2.3135,2.3135,2.3135,2.3135,2.3135,2.3135,2.3135,2.3135,2.3135,2.3135,2.3135,2.3135,2.3135,2.3135,2.3135,2.296,2.2492,2.148,2.148,2.148,2.148,2.2589,2.3135,2.3135,2.3135,2.3135,1.0244,1.0695,1.1162,1.1064,1.1172,0.0,1.1299,1.1162,1.1113,1.1367,1.1699,1.2233,1.2978,1.3398,1.3799,1.4253,1.4961,1.5752,1.6728,1.7236,1.75,1.75,1.7881,1.8262,1.8603,1.8711,1.8906,1.9268,1.9365,1.96,2.0019,2.0039,2.0205,2.0557,2.0566,2.0605,2.0693,2.0693,2.0918,2.1357,2.1357,2.1543,2.1885,2.1885,2.1934,2.2012,2.2012,2.2246,2.2637,2.2637,2.2832,2.3135,2.3135,2.3135,2.3135,2.3135,2.3135,2.3135,2.3135,2.3135,2.3135,2.3135,2.3135,2.3135,2.3135,2.3135,2.3135,2.3135,2.3135,2.3135,2.3135,2.3135,2.3135,2.3135,2.3135,2.3135,2.3135,2.3135,2.3135,2.3135,2.3135,2.3135,2.3135,2.3135,2.3135,2.3135,2.3135,2.3135,2.3135,2.3135,2.3135,2.3135,2.3135,2.3135,2.3135,2.3135,2.3135,2.3135,2.3135,2.3135,2.3135,2.2208,2.2031,2.2765,2.2775,2.2775,2.2775,2.296,2.3135,2.3135,2.3135,2.3135,1.1309,1.1572,1.1895,1.1895,1.1895,0.0,0.0,1.1728,1.1631,1.1846,1.1895,1.21,1.2764,1.2871,1.3076,1.3721,1.418,1.4687,1.5284,1.6377,1.7061,1.7061,1.7246,1.7539,1.7969,1.8008,1.8281,1.8916,1.8965,1.915,1.958,1.96,1.9795,2.0225,2.0244,2.0342,2.0566,2.0566,2.0674,2.0898,2.0898,2.1016,2.123,2.123,2.1348,2.1562,2.1562,2.1807,2.2197,2.2197,2.2451,2.2852,2.3057,2.3135,2.3135,2.3135,2.3135,2.3135,2.3135,2.3135,2.3135,2.3135,2.3135,2.3135,2.3135,2.3135,2.3135,2.3135,2.3135,2.3135,2.3135,2.3135,2.3135,2.3135,2.3135,2.3135,2.3135,2.3135,2.3135,2.3135,2.3135,2.3135,2.3135,2.3135,2.3135,2.3135,2.3135,2.3135,2.3135,2.3135,2.3135,2.3135,2.3135,2.3135,2.3135,2.3135,2.3135,2.3135,2.3135,2.3135,2.3135,2.2492,2.2217,2.2217,2.2217,2.2217,2.2217,2.2775,2.3135,2.3135,2.3135,2.3135,1.2483,1.253,1.2609,1.311,1.2882,1.2599,0.0,0.0,0.0,1.2578,1.2344,1.2236,1.2676,1.2471,1.2443,1.3262,1.3457,1.3623,1.3965,1.5235,1.6198,1.6348,1.6504,1.6738,1.709,1.7129,1.748,1.833,1.832,1.8535,1.9131,1.916,1.9355,1.9775,1.9795,2.0,2.0439,2.0439,2.0478,2.0566,2.0566,2.0566,2.0566,2.0566,2.0762,2.1103,2.1103,2.1348,2.1768,2.1768,2.2012,2.2432,2.2852,2.3066,2.3135,2.3135,2.3135,2.3135,2.3135,2.3135,2.3135,2.3135,2.3135,2.3135,2.3135,2.3135,2.3135,2.3135,2.3135,2.3135,2.3135,2.3135,2.3135,2.3135,2.3135,2.3135,2.3135,2.3135,2.3135,2.3135,2.3135,2.3135,2.3135,2.3135,2.3135,2.3135,2.3135,2.3135,2.3135,2.3135,2.3135,2.3135,2.3135,2.3135,2.3135,2.3135,2.3135,2.3135,2.3135,2.3135,2.3135,2.3135,2.2492,2.1293,2.1569,2.1667,2.1658,2.2589,2.3135,2.3135,2.3135,2.3135,1.347,1.3601,1.3763,1.4376,1.4064,1.3507,1.3153,0.0,1.2129,1.1822,0.0,1.1768,1.2217,0.0,0.0,1.2871,1.3262,1.3525,1.3574,1.4072,1.457,1.4961,1.5674,1.6223,1.6262,1.6272,1.6582,1.7461,1.7168,1.7395,1.8652,1.8711,1.8906,1.9346,1.9355,1.9561,1.999,1.999,2.0185,2.0566,2.0566,2.0566,2.0566,2.0566,2.0596,2.0644,2.0644,2.0898,2.1309,2.1309,2.1562,2.2002,2.2422,2.2812,2.3135,2.3135,2.3135,2.3135,2.3135,2.3135,2.3135,2.3135,2.3135,2.3135,2.3135,2.3135,2.3135,2.3135,2.3135,2.3135,2.3135,2.3135,2.3135,2.3135,2.3135,2.3135,2.3135,2.3135,2.3135,2.3135,2.3135,2.3135,2.3135,2.3135,2.3135,2.3135,2.3135,2.3135,2.3135,2.3135,2.3135,2.3135,2.3135,2.3135,2.3135,2.3135,2.3135,2.3135,2.3135,2.3135,2.3135,2.3135,2.2492,2.1293,2.2306,2.2862,2.2862,2.3047,2.3135,2.3135,2.3135,2.3135,1.3647,1.4015,1.4345,1.4638,1.4724,1.4566,1.3719,1.331,1.299,1.2457,0.0,0.0,0.0,0.0,0.0,0.0,1.3027,1.3057,1.2803,1.2871,1.3319,1.4297,1.4727,1.5137,1.5635,1.5918,1.6328,1.6963,1.6592,1.6807,1.7852,1.791,1.8223,1.8887,1.8906,1.9121,1.9541,1.9795,2.001,2.0195,2.0449,2.0566,2.0566,2.0566,2.0566,2.0566,2.0566,2.0674,2.084,2.084,2.1113,2.1523,2.1699,2.2031,2.2412,2.2412,2.2412,2.2441,2.2685,2.2773,2.2812,2.3057,2.3135,2.3135,2.3135,2.3135,2.3135,2.3135,2.3135,2.3135,2.3135,2.3135,2.3135,2.3135,2.3135,2.3135,2.3135,2.3135,2.3135,2.3135,2.3135,2.3299,2.3963,2.3551,2.3135,2.3135,2.3135,2.3135,2.3135,2.3135,2.3135,2.3135,2.3135,2.3135,2.3135,2.3135,2.3135,2.3135,2.3135,2.3135,2.3135,2.3135,2.2862,2.2306,2.2862,2.3135,2.3135,2.3135,2.3135,2.3135,2.3135,2.3135,1.3647,1.4201,1.467,1.4868,1.5245,1.5323,1.4488,1.4287,1.4116,1.3498,1.3125,0.0,0.0,0.0,1.251,1.2832,0.0,1.2773,1.2451,1.2258,1.2531,1.3445,1.3766,1.4248,1.499,1.5244,1.5596,1.6152,1.5781,1.5967,1.6973,1.7139,1.7539,1.8271,1.8408,1.8672,1.9102,1.9414,1.9678,1.9922,2.0234,2.0449,2.0566,2.0566,2.0566,2.0566,2.0566,2.0566,2.0566,2.0566,2.0752,2.1055,2.1055,2.124,2.1553,2.1797,2.1885,2.1934,2.2236,2.2412,2.2578,2.2998,2.3135,2.3135,2.3135,2.3135,2.3135,2.3135,2.3135,2.3135,2.3135,2.3135,2.3135,2.3135,2.3135,2.3135,2.3135,2.3135,2.3135,2.3135,2.3135,2.3387,2.4211,2.3627,2.3222,2.3551,2.3299,2.3135,2.3135,2.3135,2.3135,2.3135,2.3135,2.3135,2.3135,2.3135,2.3135,2.3135,2.3135,2.3135,2.3135,2.3135,2.3135,2.3135,2.3135,2.3135,2.3135,2.3135,2.3135,2.3135,2.3135,2.3135,1.3647,1.4247,1.4858,1.541,1.5599,1.5611,1.5543,1.5476,1.528,1.4753,1.4595,1.438,1.3852,1.3266,1.2861,1.2881,1.2881,0.0,0.0,1.25,1.22,1.2239,1.3027,1.3691,1.4077,1.3818,1.3936,1.4785,1.4443,1.4756,1.6096,1.6514,1.6953,1.7412,1.7822,1.8232,1.8652,1.8672,1.9092,1.9912,1.9932,2.0156,2.0566,2.0566,2.0566,2.0566,2.0566,2.0566,2.0566,2.0566,2.0576,2.0586,2.0586,2.0596,2.0713,2.1572,2.1885,2.1885,2.1904,2.2168,2.2578,2.2998,2.3135,2.3135,2.3135,2.3135,2.3135,2.3135,2.3135,2.3135,2.3135,2.3135,2.3135,2.3135,2.3135,2.3135,2.3135,2.3135,2.3135,2.3135,2.3135,2.3135,2.3135,2.3135,2.3464,2.4542,2.38,2.3135,2.3135,2.3135,2.3135,2.3135,2.3135,2.3135,2.3135,2.3135,2.3135,2.3135,2.3135,2.3135,2.3135,2.3135,2.3135,2.3135,2.3135,2.3135,2.3135,2.3135,2.3135,2.3135,2.3135,2.3135,1.3952,1.4637,1.5192,1.5893,1.6338,1.6397,1.5742,1.5855,1.5846,1.4891,1.4664,1.4422,1.39,1.3334,1.2881,1.2881,1.2881,1.2724,0.0,1.1631,1.1465,1.1758,1.2559,1.3037,1.2842,1.3252,1.3633,1.3916,1.4062,1.457,1.5576,1.6045,1.6631,1.7363,1.7519,1.7803,1.8213,1.8496,1.8779,1.9072,1.9365,1.958,1.9727,2.001,2.0137,2.0146,2.0439,2.0566,2.0566,2.0566,2.0566,2.0566,2.0566,2.0566,2.0605,2.0898,2.1016,2.1055,2.1348,2.1738,2.2119,2.2266,2.2305,2.2363,2.2637,2.2725,2.2783,2.3057,2.3135,2.3135,2.3135,2.3135,2.3135,2.3135,2.3135,2.3135,2.3135,2.3135,2.3135,2.3135,2.3135,2.3299,2.4135,2.3637,2.3222,2.3637,2.3387,2.3135,2.3135,2.3135,2.3135,2.3135,2.3135,2.3135,2.3135,2.3135,2.3135,2.3135,2.3135,2.3135,2.3135,2.3135,2.3135,2.3135,2.3135,2.3135,2.3135,2.3135,2.3135,2.3135,2.3135,2.3135,1.3861,1.4469,1.5063,1.5702,1.6287,1.6495,1.5684,1.608,1.6397,1.5476,1.5249,1.5178,1.5045,1.4238,1.3625,1.3779,1.3484,1.2832,0.0,1.1455,1.1309,1.1175,1.193,1.2422,1.2461,1.2676,1.2949,1.3262,1.3389,1.3776,1.4687,1.5283,1.6066,1.6885,1.7217,1.7578,1.8008,1.8281,1.8486,1.8572,1.8926,1.9275,1.9785,1.9708,1.9915,2.0362,2.0358,2.042,2.0566,2.0566,2.0566,2.0566,2.0566,2.0779,2.1078,2.1078,2.1078,2.1215,2.1982,2.203,2.1762,2.2217,2.2195,2.1963,2.2383,2.251,2.2598,2.3018,2.3135,2.3135,2.3135,2.3135,2.3135,2.3135,2.3135,2.3135,2.3135,2.3135,2.3135,2.3135,2.3135,2.3299,2.4049,2.3551,2.3222,2.3637,2.3387,2.3135,2.3135,2.3135,2.3135,2.3135,2.3135,2.3135,2.3135,2.3135,2.3135,2.3135,2.3135,2.3135,2.3135,2.3135,2.3135,2.3135,2.3135,2.3135,2.3135,2.3135,2.3135,2.3135,2.3135,2.3135]},{"header":{"parameterUnit":"m.s-1","parameterCategory":1,"la1":30.6,"la2":29.2853,"lo1":-89.7004,"lo2":-87.6739,"dy":0.0162,"dx":0.0183,"nx":112,"ny":82,"refTime":"2024-07-29T18:00:00:Z","depth":0,"parameterNumber":3,"parameterNumberName":"V-component_of_WINDS"},"data":[0.0,0.0,0.0,0.0,0.0,0.0,0.0,0.0,0.0,0.0,0.0,0.0,0.0,0.0,0.0,0.0,0.0,0.0,0.0,0.0,0.0,0.0,0.0,0.0,0.0,0.0,0.0,0.0,0.0,0.0,0.0,0.0,0.0,0.0,0.0,0.0,0.0,0.0,0.0,0.0,0.0,0.0,0.0,0.0,0.0,0.0,0.0,0.0,0.0,0.0,0.0,0.0,0.0,0.0,0.0,0.0,0.0,0.0,0.0,0.0,0.0,0.0,0.0,0.0,0.0,0.0,0.0,0.0,0.0,0.0,0.0,0.0,0.0,0.0,0.0,0.0,0.0,0.0,0.0,0.0,0.0,0.0,0.0,0.0,0.0,0.0,0.0,0.0,0.0,0.0,-2.0111,-2.1245,-2.1921,-2.231,-2.231,-2.1869,-2.1147,-2.0061,0.0,0.0,0.0,0.0,0.0,0.0,0.0,0.0,0.0,0.0,0.0,0.0,0.0,0.0,0.0,0.0,0.0,0.0,0.0,0.0,0.0,0.0,0.0,0.0,0.0,0.0,0.0,0.0,0.0,0.0,0.0,0.0,0.0,0.0,0.0,0.0,0.0,0.0,0.0,0.0,0.0,0.0,0.0,0.0,0.0,0.0,0.0,0.0,0.0,0.0,0.0,0.0,0.0,0.0,0.0,0.0,0.0,0.0,0.0,0.0,0.0,0.0,0.0,0.0,0.0,0.0,0.0,0.0,0.0,0.0,0.0,0.0,0.0,0.0,0.0,0.0,0.0,0.0,0.0,0.0,0.0,0.0,0.0,0.0,0.0,0.0,0.0,0.0,0.0,0.0,0.0,0.0,0.0,0.0,0.0,0.0,0.0,0.0,0.0,0.0,0.0,0.0,0.0,0.0,-1.914,-2.1854,-2.2243,-2.231,-2.231,-2.1869,-2.1147,-2.0061,0.0,0.0,0.0,0.0,0.0,0.0,0.0,0.0,0.0,0.0,0.0,0.0,0.0,0.0,0.0,0.0,0.0,0.0,0.0,0.0,0.0,0.0,0.0,0.0,0.0,0.0,0.0,0.0,0.0,0.0,0.0,0.0,0.0,0.0,0.0,0.0,0.0,0.0,0.0,0.0,0.0,0.0,0.0,0.0,0.0,0.0,0.0,0.0,0.0,0.0,0.0,0.0,0.0,0.0,0.0,0.0,0.0,0.0,0.0,0.0,0.0,0.0,0.0,0.0,0.0,0.0,0.0,0.0,0.0,0.0,0.0,0.0,0.0,0.0,0.0,0.0,0.0,0.0,0.0,0.0,0.0,0.0,0.0,0.0,0.0,0.0,0.0,0.0,0.0,0.0,0.0,0.0,0.0,0.0,0.0,0.0,0.0,0.0,0.0,0.0,0.0,0.0,0.0,-1.9418,-2.0331,-2.2124,-2.231,-2.231,-2.231,-2.1869,-2.1147,-2.0061,-1.8245,0.0,0.0,0.0,0.0,0.0,0.0,0.0,0.0,0.0,0.0,0.0,0.0,0.0,0.0,0.0,0.0,0.0,0.0,0.0,0.0,0.0,0.0,0.0,0.0,0.0,0.0,0.0,0.0,0.0,0.0,0.0,0.0,0.0,0.0,0.0,0.0,0.0,0.0,0.0,0.0,0.0,0.0,0.0,0.0,0.0,0.0,0.0,0.0,0.0,0.0,0.0,0.0,0.0,0.0,0.0,0.0,0.0,0.0,0.0,0.0,0.0,0.0,0.0,0.0,0.0,0.0,0.0,0.0,0.0,0.0,0.0,0.0,0.0,0.0,0.0,0.0,0.0,0.0,0.0,0.0,0.0,0.0,0.0,0.0,0.0,0.0,0.0,0.0,0.0,0.0,0.0,0.0,0.0,0.0,0.0,0.0,0.0,0.0,0.0,0.0,0.0,0.0,-2.1109,-2.1667,-2.2243,-2.231,-2.231,-2.231,-2.1703,-2.0965,-2.0061,-1.8095,0.0,0.0,0.0,0.0,0.0,0.0,0.0,0.0,0.0,0.0,0.0,0.0,0.0,0.0,0.0,0.0,0.0,0.0,0.0,0.0,0.0,0.0,0.0,0.0,0.0,0.0,0.0,0.0,0.0,0.0,0.0,0.0,0.0,0.0,0.0,0.0,0.0,0.0,0.0,0.0,0.0,0.0,0.0,0.0,0.0,0.0,0.0,0.0,0.0,0.0,0.0,0.0,0.0,0.0,0.0,0.0,0.0,0.0,0.0,0.0,0.0,0.0,0.0,0.0,0.0,0.0,0.0,0.0,0.0,0.0,0.0,0.0,0.0,0.0,0.0,0.0,0.0,0.0,0.0,0.0,0.0,0.0,0.0,0.0,0.0,0.0,0.0,0.0,0.0,0.0,0.0,0.0,0.0,0.0,0.0,0.0,0.0,0.0,0.0,0.0,0.0,0.0,-2.0906,-2.2243,-2.231,-2.231,-2.231,-2.231,-2.1221,-2.0417,-2.001,-1.759,0.0,0.0,0.0,0.0,0.0,0.0,0.0,0.0,0.0,0.0,0.0,0.0,0.0,0.0,0.0,0.0,0.0,0.0,0.0,0.0,0.0,0.0,0.0,0.0,0.0,0.0,0.0,0.0,0.0,0.0,0.0,0.0,0.0,0.0,0.0,0.0,0.0,0.0,0.0,0.0,0.0,0.0,0.0,0.0,0.0,0.0,0.0,0.0,0.0,0.0,0.0,0.0,0.0,0.0,0.0,0.0,0.0,0.0,0.0,0.0,0.0,0.0,0.0,0.0,0.0,0.0,0.0,0.0,0.0,0.0,0.0,0.0,0.0,0.0,0.0,0.0,0.0,0.0,0.0,0.0,0.0,0.0,0.0,0.0,0.0,0.0,0.0,0.0,0.0,0.0,0.0,0.0,0.0,0.0,0.0,0.0,0.0,0.0,0.0,0.0,0.0,0.0,-2.0771,-2.1786,-2.226,-2.231,-2.231,-2.231,-2.1883,-2.1149,-2.0069,0.0,0.0,0.0,0.0,0.0,0.0,0.0,0.0,0.0,0.0,0.0,0.0,0.0,0.0,0.0,0.0,0.0,0.0,0.0,0.0,0.0,0.0,0.0,0.0,0.0,0.0,0.0,0.0,0.0,0.0,0.0,0.0,0.0,0.0,0.0,0.0,0.0,0.0,0.0,0.0,0.0,0.0,0.0,0.0,0.0,0.0,0.0,0.0,0.0,0.0,0.0,0.0,0.0,0.0,0.0,0.0,0.0,0.0,0.0,0.0,0.0,0.0,0.0,0.0,0.0,0.0,0.0,0.0,0.0,0.0,0.0,0.0,0.0,0.0,0.0,0.0,0.0,0.0,0.0,0.0,0.0,0.0,0.0,0.0,0.0,0.0,0.0,0.0,0.0,0.0,0.0,0.0,0.0,0.0,0.0,0.0,0.0,0.0,0.0,0.0,0.0,0.0,-1.9748,-2.0906,-2.1735,-2.226,-2.231,-2.231,-2.231,-2.1961,-2.1227,-2.0069,0.0,0.0,0.0,0.0,0.0,0.0,0.0,0.0,0.0,0.0,0.0,0.0,0.0,0.0,0.0,0.0,0.0,0.0,0.0,0.0,0.0,0.0,0.0,0.0,0.0,0.0,0.0,0.0,0.0,0.0,0.0,0.0,0.0,0.0,0.0,0.0,0.0,0.0,0.0,0.0,0.0,0.0,0.0,0.0,0.0,0.0,0.0,0.0,0.0,0.0,0.0,0.0,0.0,0.0,0.0,0.0,0.0,0.0,0.0,0.0,0.0,0.0,0.0,0.0,0.0,0.0,0.0,0.0,0.0,0.0,0.0,0.0,0.0,0.0,0.0,0.0,0.0,0.0,0.0,0.0,0.0,0.0,0.0,0.0,0.0,0.0,0.0,0.0,0.0,0.0,0.0,0.0,0.0,0.0,0.0,0.0,0.0,0.0,0.0,0.0,0.0,0.0,-1.9816,-2.1336,-2.2327,-2.2327,-2.2327,-2.2327,-2.2299,-2.1188,-2.0368,0.0,0.0,0.0,0.0,0.0,0.0,0.0,0.0,0.0,0.0,0.0,0.0,0.0,0.0,0.0,0.0,0.0,0.0,0.0,0.0,0.0,0.0,0.0,0.0,0.0,0.0,0.0,0.0,0.0,0.0,0.0,0.0,0.0,0.0,0.0,0.0,0.0,0.0,0.0,0.0,0.0,0.0,0.0,0.0,0.0,0.0,0.0,0.0,0.0,0.0,0.0,0.0,0.0,0.0,0.0,0.0,0.0,0.0,0.0,0.0,0.0,0.0,0.0,0.0,0.0,0.0,0.0,0.0,0.0,0.0,0.0,0.0,0.0,0.0,0.0,0.0,0.0,0.0,0.0,0.0,0.0,0.0,0.0,0.0,0.0,0.0,0.0,0.0,0.0,0.0,0.0,0.0,0.0,0.0,0.0,0.0,0.0,0.0,0.0,0.0,0.0,0.0,0.0,-1.9816,-2.1803,-2.3071,-2.3071,-2.3071,-2.2937,-2.2601,-2.1771,-2.0801,-1.9661,0.0,0.0,0.0,0.0,0.0,0.0,0.0,0.0,0.0,0.0,0.0,0.0,0.0,0.0,0.0,0.0,0.0,0.0,0.0,0.0,0.0,0.0,0.0,0.0,0.0,0.0,0.0,0.0,0.0,0.0,0.0,0.0,0.0,0.0,0.0,0.0,0.0,0.0,0.0,0.0,0.0,0.0,0.0,0.0,0.0,0.0,0.0,0.0,0.0,0.0,0.0,0.0,0.0,0.0,0.0,0.0,0.0,0.0,0.0,0.0,0.0,0.0,0.0,0.0,0.0,0.0,0.0,0.0,0.0,0.0,0.0,0.0,0.0,0.0,0.0,0.0,0.0,0.0,0.0,0.0,0.0,0.0,0.0,0.0,0.0,0.0,0.0,0.0,0.0,0.0,0.0,0.0,0.0,0.0,0.0,0.0,0.0,0.0,0.0,0.0,0.0,0.0,-2.0264,-2.2192,-2.3511,-2.3799,-2.3833,-2.3607,-2.3012,-2.2396,-2.1431,-1.9909,0.0,0.0,0.0,0.0,0.0,0.0,0.0,0.0,0.0,0.0,0.0,0.0,0.0,0.0,0.0,0.0,0.0,0.0,0.0,0.0,0.0,0.0,0.0,0.0,0.0,0.0,0.0,0.0,0.0,0.0,0.0,0.0,0.0,0.0,0.0,0.0,0.0,0.0,0.0,0.0,0.0,0.0,0.0,0.0,0.0,0.0,0.0,0.0,0.0,0.0,0.0,0.0,0.0,0.0,0.0,0.0,0.0,0.0,0.0,0.0,0.0,0.0,0.0,0.0,0.0,0.0,0.0,0.0,0.0,0.0,0.0,0.0,0.0,0.0,0.0,0.0,0.0,0.0,0.0,0.0,0.0,0.0,0.0,0.0,0.0,0.0,0.0,0.0,0.0,0.0,0.0,0.0,0.0,0.0,0.0,0.0,0.0,0.0,0.0,0.0,0.0,0.0,-2.0916,-2.253,-2.3765,-2.454,-2.4608,-2.4323,-2.3617,-2.3031,-2.209,-2.0648,0.0,0.0,0.0,0.0,0.0,0.0,0.0,0.0,0.0,0.0,0.0,0.0,0.0,0.0,0.0,0.0,0.0,0.0,0.0,0.0,0.0,0.0,0.0,0.0,0.0,0.0,0.0,0.0,0.0,0.0,0.0,0.0,0.0,0.0,0.0,0.0,0.0,0.0,0.0,0.0,0.0,0.0,0.0,0.0,0.0,0.0,0.0,0.0,0.0,0.0,0.0,0.0,0.0,0.0,0.0,0.0,0.0,0.0,0.0,0.0,-1.8512,-1.7466,0.0,0.0,0.0,0.0,0.0,0.0,0.0,0.0,0.0,0.0,0.0,0.0,0.0,0.0,0.0,0.0,0.0,0.0,0.0,0.0,0.0,0.0,0.0,0.0,0.0,0.0,0.0,0.0,0.0,0.0,0.0,0.0,0.0,0.0,0.0,0.0,0.0,0.0,0.0,0.0,-2.0916,-2.297,-2.4543,-2.5287,-2.5372,-2.5159,-2.4697,-2.3455,-2.2179,-2.0972,-1.9658,0.0,0.0,0.0,0.0,0.0,0.0,0.0,0.0,0.0,0.0,0.0,0.0,0.0,0.0,0.0,0.0,0.0,0.0,0.0,0.0,0.0,0.0,0.0,0.0,0.0,0.0,0.0,0.0,0.0,0.0,0.0,0.0,0.0,0.0,0.0,0.0,0.0,0.0,0.0,0.0,0.0,0.0,0.0,0.0,0.0,0.0,0.0,0.0,0.0,0.0,0.0,0.0,0.0,0.0,0.0,0.0,0.0,0.0,0.0,-2.1315,-2.0162,0.0,0.0,0.0,0.0,0.0,0.0,0.0,0.0,0.0,0.0,0.0,0.0,0.0,0.0,0.0,0.0,0.0,0.0,0.0,0.0,0.0,0.0,0.0,0.0,0.0,0.0,0.0,0.0,0.0,0.0,0.0,0.0,0.0,0.0,0.0,0.0,0.0,0.0,0.0,0.0,-2.1904,-2.3575,-2.4929,-2.6015,-2.6133,-2.5915,-2.5363,-2.4561,-2.334,-2.1649,-2.0521,0.0,0.0,0.0,0.0,0.0,0.0,0.0,0.0,0.0,0.0,0.0,0.0,0.0,0.0,0.0,0.0,0.0,0.0,0.0,0.0,0.0,0.0,0.0,0.0,0.0,0.0,0.0,0.0,0.0,0.0,0.0,0.0,0.0,0.0,0.0,0.0,0.0,0.0,0.0,0.0,0.0,0.0,0.0,0.0,0.0,0.0,0.0,0.0,0.0,0.0,0.0,0.0,0.0,-2.6328,-2.7012,-2.7624,-2.7624,-2.7555,-2.7351,-2.4915,-2.39,-2.3866,-2.2513,0.0,0.0,0.0,0.0,0.0,0.0,0.0,0.0,0.0,0.0,0.0,0.0,0.0,0.0,0.0,0.0,0.0,0.0,0.0,0.0,0.0,0.0,-2.2801,-2.4628,-2.4509,-2.3494,-2.1725,0.0,0.0,0.0,0.0,0.0,0.0,0.0,0.0,0.0,0.0,0.0,-2.3054,-2.4154,-2.5203,-2.6556,-2.6691,-2.6454,-2.5845,-2.5676,-2.4712,-2.2599,-2.1481,-2.0058,0.0,0.0,0.0,0.0,0.0,0.0,0.0,0.0,0.0,0.0,0.0,0.0,0.0,0.0,0.0,0.0,0.0,0.0,0.0,0.0,0.0,0.0,0.0,0.0,0.0,0.0,0.0,0.0,0.0,0.0,0.0,0.0,-1.6743,-1.8463,0.0,0.0,0.0,0.0,0.0,0.0,0.0,0.0,0.0,0.0,0.0,0.0,0.0,-2.6792,-2.7201,-2.8268,-2.9057,-2.9644,-3.0609,-3.1132,-3.1219,-3.1219,-3.1001,-3.0581,-3.0192,0.0,-2.6201,-2.5372,0.0,0.0,0.0,0.0,0.0,0.0,0.0,0.0,0.0,0.0,0.0,0.0,0.0,0.0,0.0,0.0,0.0,0.0,0.0,0.0,0.0,0.0,-2.6978,-2.7317,-2.681,-2.6353,-2.6691,-2.4188,-2.1414,-1.9849,-1.963,-1.9241,0.0,0.0,0.0,0.0,0.0,0.0,-2.3173,-2.4611,-2.5778,-2.6607,-2.6691,-2.6657,-2.6556,-2.5981,-2.5113,-2.3979,-2.2965,-2.1649,-1.9943,-1.9044,0.0,0.0,0.0,0.0,0.0,0.0,0.0,0.0,0.0,0.0,0.0,0.0,0.0,0.0,0.0,0.0,0.0,0.0,0.0,0.0,0.0,0.0,0.0,0.0,0.0,0.0,0.0,0.0,0.0,-1.6733,-1.8924,-1.9646,-2.0499,-2.0735,0.0,0.0,0.0,0.0,0.0,0.0,0.0,0.0,0.0,-2.876,-2.9574,-3.0214,-3.0683,-3.1515,-3.208,-3.2325,-3.3193,-3.3457,-3.3199,-3.3199,-3.293,-3.2442,-3.2442,-3.1698,-3.0311,-2.8315,-2.7317,-2.6962,0.0,0.0,0.0,0.0,-2.571,-2.5321,-2.5879,-2.5981,-2.5761,-2.5017,0.0,0.0,0.0,0.0,0.0,0.0,0.0,-2.5812,-2.6251,-2.708,-2.8009,-2.8907,-2.8535,-2.818,-2.8941,-2.7503,-2.549,-2.3545,-2.3144,-2.2564,-2.067,-2.0331,0.0,0.0,0.0,-2.3105,-2.5,-2.5456,-2.6048,-2.7199,-2.6945,-2.6691,-2.6691,-2.6404,-2.5782,-2.4732,-2.4247,-2.3239,-2.1507,-2.054,-1.9433,0.0,0.0,0.0,0.0,0.0,0.0,0.0,0.0,0.0,0.0,0.0,0.0,0.0,0.0,0.0,0.0,0.0,0.0,0.0,0.0,0.0,0.0,0.0,0.0,0.0,0.0,0.0,0.0,-1.8925,-2.0727,-2.0982,-2.2566,-2.3268,0.0,0.0,0.0,0.0,0.0,0.0,-2.8081,-2.9475,-3.0746,-3.1919,-3.2754,-3.3309,-3.3625,-3.4217,-3.461,-3.476,-3.5259,-3.5329,-3.4952,-3.4814,-3.4576,-3.4269,-3.4269,-3.4387,-3.432,-3.114,-2.982,-2.9753,-2.8991,-2.8332,-2.7977,-2.9127,-2.8941,-2.8264,-2.9211,-2.9279,-2.8873,-2.8298,-2.7994,-2.7638,-2.6572,0.0,0.0,0.0,0.0,-2.801,-2.8772,-2.911,-2.9533,-3.0683,-3.0531,-3.0277,-3.0835,-3.0514,-2.933,-2.6691,-2.6167,-2.5592,-2.3748,-2.3444,0.0,-2.3444,-2.4052,-2.5118,-2.6776,-2.6691,-2.6894,-2.7994,-2.7621,-2.7199,-2.6996,-2.6979,-2.6437,-2.5133,-2.4884,-2.4084,-2.254,-2.1635,-2.0605,-1.94,0.0,0.0,0.0,0.0,0.0,0.0,0.0,0.0,0.0,0.0,0.0,0.0,0.0,0.0,0.0,0.0,0.0,0.0,0.0,0.0,0.0,0.0,0.0,0.0,0.0,0.0,0.0,0.0,0.0,-2.3422,-2.5551,0.0,0.0,0.0,0.0,-2.87,-2.9494,-3.065,-3.2228,-3.3109,-3.3954,-3.4789,-3.5632,-3.6091,-3.6127,-3.6413,-3.6812,-3.7289,-3.7165,-3.7066,-3.7029,-3.6539,-3.6388,-3.6603,-3.6603,-3.7026,-3.7398,-3.366,-3.2144,-3.2076,-3.1309,-3.1004,-3.097,-3.1055,-3.1461,-3.1918,-3.1292,-3.1512,-3.2053,-3.2019,-3.1529,-3.0954,-3.0886,-2.9905,0.0,0.0,-3.0395,-3.114,-3.1867,-3.2577,-3.3152,-3.322,-3.322,-3.3203,-3.3237,-3.3203,-3.2104,-2.8381,-2.7671,-2.7452,-2.6623,0.0,-2.6471,-2.6471,-2.7114,-2.7603,-2.7722,-2.8383,-2.8876,-2.8924,-2.889,-2.8569,-2.7789,-2.7722,-2.7014,-2.5281,-2.4569,-2.3752,-2.2746,-2.2044,-2.119,-2.0143,-1.9387,0.0,0.0,0.0,0.0,0.0,0.0,0.0,0.0,0.0,0.0,0.0,0.0,0.0,0.0,0.0,0.0,0.0,0.0,0.0,0.0,0.0,0.0,0.0,0.0,0.0,0.0,0.0,0.0,-2.5922,-2.7633,0.0,-2.8044,-2.9552,-3.076,-3.1292,-3.2559,-3.3523,-3.4092,-3.544,-3.6541,-3.7367,-3.8175,-3.8872,-3.9386,-3.9483,-3.963,-3.9827,-3.9753,-3.9534,-3.9155,-3.862,-3.8265,-3.8023,-3.7653,-3.7669,-3.7804,-3.6468,-3.5605,-3.5098,-3.4336,-3.4032,-3.4032,-3.4032,-3.3897,-3.3592,-3.2865,-3.2797,-3.3,-3.3,-3.2831,-3.2628,-3.2628,-3.2256,-3.1884,-3.2154,-3.2425,-3.2679,-3.2933,-3.3203,-3.3406,-3.3406,-3.3406,-3.3406,-3.3406,-3.3406,-3.3,-3.1681,-3.0649,-2.9753,-2.9025,-2.8484,-2.7994,-2.7503,-2.8078,-2.8738,-2.9228,-2.911,-2.9161,-2.9651,-2.9262,-2.8873,-2.8602,-2.8112,-2.7549,-2.6925,-2.5924,-2.504,-2.4327,-2.3319,-2.2278,-2.1205,-2.0065,-1.8675,0.0,0.0,0.0,0.0,0.0,0.0,0.0,0.0,0.0,0.0,0.0,0.0,0.0,0.0,0.0,0.0,0.0,0.0,0.0,0.0,0.0,0.0,0.0,0.0,0.0,-2.5147,-2.6832,-2.7972,-2.9718,-3.0857,-3.0957,-3.2218,-3.3385,-3.4192,-3.5495,-3.6376,-3.6652,-3.7955,-3.8964,-3.9496,-4.0029,-4.0561,-4.1111,-4.1111,-4.1111,-4.1111,-4.0909,-4.065,-4.0257,-3.9768,-3.947,-3.932,-3.8786,-3.8696,-3.8853,-3.8458,-3.8125,-3.7787,-3.6789,-3.64,-3.64,-3.64,-3.6079,-3.5571,-3.5098,-3.4928,-3.4928,-3.4928,-3.4928,-3.4928,-3.4928,-3.4928,-3.4928,-3.4928,-3.4742,-3.4539,-3.4539,-3.4353,-3.415,-3.415,-3.415,-3.415,-3.415,-3.415,-3.415,-3.415,-3.2949,-3.1782,-3.1309,-3.0801,-3.0294,-2.9786,-3.0142,-3.0565,-3.0818,-3.0412,-3.0192,-3.0446,-3.0023,-2.9634,-2.9381,-2.8653,-2.8024,-2.7576,-2.6392,-2.5486,-2.4934,-2.3778,-2.2711,-2.171,-2.0474,-1.9224,-1.7988,0.0,0.0,0.0,0.0,0.0,0.0,0.0,0.0,0.0,0.0,0.0,0.0,0.0,0.0,0.0,0.0,0.0,0.0,0.0,0.0,0.0,0.0,0.0,-2.441,-2.6113,-2.7976,-2.9663,-3.1944,-3.3441,-3.3571,-3.5261,-3.6707,-3.7562,-3.8322,-3.9129,-3.99,-4.0689,-4.113,-4.1148,-4.1148,-4.1167,-4.1185,-4.1185,-4.1185,-4.1152,-4.0634,-4.0384,-4.0384,-3.9917,-4.0091,-4.0701,-4.0079,-4.0245,-4.0758,-3.9569,-3.9445,-3.9935,-3.8497,-3.7956,-3.7973,-3.7939,-3.7922,-3.7905,-3.7905,-3.7905,-3.7905,-3.7905,-3.7905,-3.7905,-3.7905,-3.7905,-3.7905,-3.7905,-3.7381,-3.6806,-3.6806,-3.6265,-3.569,-3.569,-3.5673,-3.5656,-3.5656,-3.5639,-3.5622,-3.5622,-3.4455,-3.3474,-3.344,-3.3423,-3.3406,-3.3406,-3.3406,0.0,-3.2408,-3.2307,-3.2036,-3.1309,-3.1224,-3.0937,-3.0209,-2.9431,-2.8471,-2.7222,-2.5907,-2.4989,-2.4461,-2.336,-2.2428,-2.1769,-2.0746,-2.003,-1.969,0.0,0.0,0.0,0.0,0.0,0.0,0.0,0.0,0.0,0.0,0.0,0.0,0.0,0.0,0.0,0.0,0.0,0.0,0.0,0.0,0.0,-2.6502,-2.8741,-2.9329,-3.0393,-3.1715,-3.3369,-3.4704,-3.5948,-3.7119,-3.7741,-3.8615,-4.001,-4.0322,-4.0543,-4.0763,-4.0983,-4.1387,-4.1956,-4.1974,-4.2249,-4.2818,-4.2837,-4.2837,-4.2837,-4.2697,-4.2609,-4.2609,-4.2063,-4.1725,-4.1474,-4.0864,-4.0513,-4.0319,-3.9951,-3.9901,-3.9986,-3.9056,-3.9005,-3.9411,-3.8886,-3.8362,-3.7905,-3.7905,-3.7905,-3.7905,-3.7905,-3.7905,-3.7905,-3.7905,-3.7905,-3.7905,-3.7905,-3.7753,-3.7601,-3.7601,-3.7432,-3.728,-3.728,-3.6857,-3.6468,-3.6468,-3.6011,-3.5622,-3.5622,-3.5284,-3.4844,-3.4286,-3.3744,-3.3406,-3.3406,-3.3406,-3.3339,-3.3119,-3.3102,-3.2814,-3.207,-3.1985,-3.1681,-3.0954,-2.9719,-2.8854,-2.8488,-2.6412,-2.5345,-2.571,-2.467,-2.3774,-2.3086,-2.1398,-2.0294,0.0,0.0,0.0,0.0,0.0,0.0,0.0,0.0,0.0,0.0,0.0,0.0,0.0,0.0,0.0,0.0,0.0,0.0,0.0,0.0,0.0,0.0,-2.9457,-3.1861,-3.3697,-3.3752,-3.4229,-3.5862,-3.6798,-3.7808,-3.9074,-3.9515,-4.0102,-4.1038,-4.1423,-4.1607,-4.1607,-4.1919,-4.2323,-4.2782,-4.28,-4.302,-4.3497,-4.3497,-4.3497,-4.3497,-4.3497,-4.3497,-4.3497,-4.3178,-4.2828,-4.2483,-4.1919,-4.1331,-4.0814,-4.0546,-4.0286,-4.0037,0.0,0.0,0.0,0.0,-3.9174,-3.8819,-3.8819,-3.8819,-3.8819,-3.8819,-3.8819,-3.8819,-3.8819,-3.8819,-3.8819,-3.8819,-3.8599,-3.8362,-3.8362,-3.8142,-3.7905,-3.7905,-3.7567,-3.7246,-3.7246,-3.6891,-3.6569,-3.6569,-3.6315,0.0,-3.552,-3.4827,-3.4336,-3.4336,-3.4336,-3.4218,-3.3897,-3.3863,-3.3575,-3.2831,-3.2747,-3.2459,-3.1715,-3.0581,0.0,0.0,0.0,-2.6269,-2.593,-2.5085,0.0,0.0,0.0,0.0,0.0,0.0,0.0,0.0,-2.1036,-2.0961,0.0,0.0,0.0,0.0,0.0,0.0,0.0,0.0,0.0,0.0,0.0,0.0,0.0,0.0,0.0,0.0,-3.2375,-3.4082,-3.7103,-3.6376,-3.6101,-3.7569,-3.8395,-3.9184,-4.0065,-4.0818,-4.1277,-4.1368,-4.2029,-4.2433,-4.2433,-4.3112,0.0,0.0,0.0,-4.3497,-4.3497,-4.3497,-4.3497,-4.3497,-4.3497,-4.3497,-4.3497,-4.3497,-4.3463,-4.3375,-4.2902,-4.2302,-4.1664,-4.1133,-4.0577,-4.007,-4.007,-4.007,-4.007,-4.007,-4.007,-4.007,-4.007,0.0,0.0,-4.007,-4.007,-4.007,-4.007,-4.007,-4.007,-4.007,-3.9614,-3.9106,-3.9106,-3.8633,-3.8159,-3.8159,-3.8091,-3.8024,-3.8024,-3.7973,-3.7905,-3.7905,-3.7364,-3.6907,-3.6907,-3.6197,-3.5622,-3.5622,-3.5622,-3.5368,-3.4709,-3.4624,-3.4336,-3.3609,-3.3525,0.0,-3.2476,-3.1732,-3.1038,-3.0395,-2.9071,-2.7543,-2.5804,-2.5137,-2.4852,-2.4852,-2.4852,-2.5136,-2.5719,-2.5794,-2.5869,-2.5884,-2.3325,-2.3071,0.0,0.0,0.0,0.0,0.0,0.0,0.0,0.0,0.0,0.0,0.0,0.0,0.0,0.0,0.0,-3.2118,-3.4174,-3.6028,-3.7312,-3.834,-3.9074,-3.9386,-3.957,-4.023,-4.168,-4.1974,-4.2341,-4.2983,-4.3167,-4.3259,-4.3259,-4.3406,-4.3497,-4.3497,-4.3497,-4.3497,-4.3497,-4.3497,-4.3497,-4.3497,-4.3497,0.0,-4.3497,-4.3497,-4.325,-4.2864,-4.275,-4.208,-4.1087,-4.0949,-4.0577,-4.007,-4.007,-4.007,-4.007,-4.007,-4.007,-4.007,-4.007,-4.007,-4.007,-4.007,-4.007,-4.007,-4.007,-4.007,0.0,-4.007,-3.9969,-3.9868,-3.9868,-3.9766,-3.9648,-3.9648,-3.9208,-3.8785,-3.8785,-3.8328,-3.7905,-3.7905,-3.7787,-3.7686,-3.7686,-3.6535,-3.5622,-3.5622,-3.5622,-3.5571,-3.5419,-3.5402,-3.5115,-3.437,-3.4286,-3.3981,-3.3254,-3.251,-3.2019,-3.1867,-3.0175,-2.8538,-2.7176,-2.6547,-2.6213,-2.6213,-2.6213,-2.6273,-2.6408,-2.6931,-2.747,-2.7964,-2.5839,-2.5061,0.0,0.0,0.0,0.0,0.0,0.0,0.0,0.0,0.0,0.0,0.0,-2.8282,-2.9916,0.0,-3.3128,-3.478,-3.6431,-3.7771,-3.8579,-3.9735,-4.0359,-3.9937,-4.0598,-4.1423,-4.2213,-4.2653,-4.3057,-4.3461,-4.3497,-4.3497,-4.3497,-4.3497,-4.3497,-4.3497,-4.3497,-4.3497,-4.3497,-4.3497,-4.3497,-4.3497,-4.3497,-4.3497,-4.3497,-4.3497,-4.3375,-4.3105,-4.2826,-4.2162,-4.1313,-4.075,-4.0319,-4.007,-4.007,-4.007,-4.007,-4.007,-4.007,-4.007,-4.007,-4.007,-4.007,-4.007,-4.007,-4.007,-4.007,-4.007,-4.007,-4.007,-4.007,-4.007,-4.007,-4.007,-4.007,-4.007,-3.98,-3.9529,-3.9529,-3.9242,-3.8988,-3.8988,-3.87,-3.8447,-3.8447,-3.7516,-3.6637,-3.6265,-3.5876,-3.5622,-3.5622,-3.5622,-3.547,-3.5098,-3.5064,-3.4759,-3.4015,-3.3271,-3.2848,-3.2848,-3.1665,-3.0516,-2.9548,-2.8943,-2.8445,-2.8083,-2.8083,-2.8083,-2.8083,-2.8412,-2.8757,-2.9071,-2.8068,-2.759,0.0,0.0,0.0,0.0,0.0,0.0,0.0,-2.6264,-2.7989,-2.9604,-3.0577,-3.1733,-3.3678,-3.4431,-3.5404,-3.7404,-3.8542,-3.9386,-4.0047,-4.0836,-4.1093,-4.0432,-4.1515,-4.2359,-4.2525,-4.3112,-4.3497,-4.3497,-4.3497,-4.3497,-4.3497,-4.3497,-4.3497,-4.3497,-4.3497,-4.3497,-4.3497,-4.3497,-4.3497,-4.3497,-4.341,-4.341,-4.3497,-4.341,-4.3321,-4.3321,-4.277,-4.2302,-4.1895,-4.0861,-4.0417,-4.0417,-4.0417,-4.0417,-4.0385,-4.0171,-4.0171,-4.0254,-4.0121,-4.007,-4.007,-4.007,-4.007,-4.007,-4.007,-4.007,-4.007,-4.007,-4.007,-4.007,-4.007,-4.007,-4.007,-4.007,-4.007,-4.007,-4.007,-4.007,-4.007,-4.007,-3.9597,-3.9208,-3.9208,-3.8599,-3.7855,-3.711,-3.6468,-3.6011,-3.5859,-3.5842,-3.5791,-3.5639,-3.5622,-3.5368,-3.4759,-3.4167,-3.3778,-3.3626,-3.304,-3.2338,-3.1518,-3.0898,-3.0283,-2.9633,-2.9699,-2.9759,-2.9759,-2.9894,-2.9968,-2.9968,-2.9968,-2.9819,-2.2611,-2.318,-2.4135,-2.5566,-2.6062,-2.7145,0.0,-3.1182,-3.1311,-3.2926,-3.3917,-3.4532,-3.4807,-3.6688,-3.8248,-3.8524,-3.9845,-4.0873,-4.0965,-4.1662,-4.2139,-4.2047,-4.2194,-4.258,-4.3296,-4.3442,-4.3497,-4.3497,-4.3497,-4.3497,-4.3497,-4.3497,-4.3497,-4.3497,-4.3497,-4.3497,-4.3497,-4.3497,-4.3497,-4.3479,-4.3014,-4.305,-4.3479,-4.3014,-4.2788,-4.275,-4.2162,-4.2162,-4.2537,-4.1895,-4.1639,-4.1639,-4.1639,-4.1639,-4.1508,-4.0466,-4.0417,-4.0733,-4.0254,-4.007,-4.007,-4.007,-4.007,-4.007,-4.007,-4.007,-4.007,-4.007,-4.007,-4.007,-4.007,-4.007,-4.007,-4.007,-4.007,-4.007,-4.007,-4.007,-4.007,-4.007,-4.0003,-3.9952,-3.9952,-3.936,-3.8616,-3.7889,-3.7702,-3.7415,-3.6738,-3.6654,-3.6383,-3.569,-3.5622,-3.5588,-3.5504,-3.5419,-3.5081,-3.4421,-3.3818,-3.2892,-3.155,-3.0898,-3.0283,-2.9633,-3.0118,-3.0402,-3.0402,-3.1016,-3.1315,-3.1315,-3.1315,-3.0687,-2.5548,-2.6043,-2.6686,-2.8301,-2.9402,-3.065,-3.2816,-3.3403,-3.3972,-3.5605,-3.6211,-3.6597,-3.7074,-3.8377,-3.9405,-3.9405,-4.0744,-4.1809,-4.1809,-4.2488,-4.2818,-4.2359,-4.2708,-4.313,-4.3461,-4.3497,-4.3497,-4.3497,-4.3497,-4.3497,-4.3497,-4.3497,-4.3497,-4.3497,-4.3497,-4.3718,-4.4195,-4.4195,-4.4433,-4.4892,-4.4181,-4.3962,-4.4176,-4.3469,-4.2976,-4.2711,-4.2422,-4.2262,-4.2162,-4.1895,-4.181,-4.181,-4.181,-4.2021,-4.2203,-4.1375,-4.1241,-4.1358,-4.075,-4.0577,-4.048,-4.0204,-4.007,-4.007,-4.007,-4.007,-4.007,-4.007,-4.007,-4.007,-4.007,-4.007,-4.007,-4.007,-4.007,-4.007,-4.007,-4.007,-4.007,-4.007,-4.007,-4.007,-4.007,-3.9817,-3.9529,-3.9225,-3.8447,-3.7787,-3.7483,-3.7432,-3.7144,-3.6383,-3.6299,-3.6113,-3.5656,-3.5622,-3.5487,-3.5165,-3.4539,-3.3744,-3.2768,-3.2123,-3.1428,-3.0717,-3.0971,-3.1106,-3.1106,-3.1332,-3.1482,-3.1482,-3.1928,-3.1809,-2.7145,-2.7952,-2.8851,-3.0467,-3.2082,-3.355,-3.4578,-3.5275,-3.6101,-3.7533,-3.7826,-3.801,-3.8597,-3.9533,-4.023,-4.023,-4.157,-4.2635,-4.2635,-4.2928,-4.3039,-4.2671,-4.2947,-4.3259,-4.3461,-4.3497,-4.3497,-4.3497,-4.3497,-4.3497,-4.3497,-4.3497,-4.3497,-4.3497,-4.3718,-4.4103,-4.4709,-4.4929,-4.5333,-4.5883,-4.515,-4.4876,-4.5021,-4.4254,-4.3834,-4.3554,-4.3439,-4.308,-4.2588,-4.2588,-4.2463,-4.2266,-4.2266,-4.2541,-4.2864,-4.2444,-4.2185,-4.1937,-4.1358,-4.1041,-4.0827,-4.0449,-4.0204,-4.007,-4.007,-4.007,-4.007,-4.007,-4.007,-4.007,-4.007,-4.007,-4.007,-4.007,-4.007,-4.007,-4.007,-4.007,-4.007,-4.007,-4.007,-4.007,-4.007,-4.007,-4.007,-4.007,-3.9174,-3.843,-3.8227,-3.8041,-3.7702,-3.7144,-3.7094,-3.6874,-3.6299,-3.6248,-3.6139,-3.592,-3.5444,-3.4772,-3.3895,-3.3388,-3.2767,-3.2078,-3.2078,-3.2078,-3.2078,-3.2078,-3.2078,-3.2078,-3.2557,-3.2781,-2.6631,-2.8338,-3.0522,-3.2137,-3.3725,-3.5367,-3.7,-3.7404,-3.7643,-3.8487,-3.867,-3.867,-3.8707,-4.001,-4.1075,-4.1075,-4.2415,-4.3442,-4.3442,-4.28,-4.2616,-4.3369,-4.28,-4.2635,-4.3406,-4.3497,-4.3497,-4.3497,-4.3497,-4.3497,-4.3497,-4.3497,-4.3497,-4.3497,-4.4268,-4.469,-4.4709,-4.548,-4.5883,-4.5883,-4.5358,-4.534,-4.5865,-4.5321,-4.5303,-4.5773,-4.5264,-4.4867,-4.4618,-4.4618,-4.416,-4.3444,-4.3444,-4.3444,-4.3479,-4.3444,-4.3124,-4.2577,-4.1979,-4.1402,-4.0903,-4.0856,-4.0528,-4.007,-4.007,-4.007,-4.007,-4.007,-4.007,-4.007,-4.007,-4.007,-4.007,-4.007,-4.007,-4.007,-4.007,-4.007,-4.007,-4.007,-4.007,-4.007,-4.007,-4.007,-4.007,-4.007,-4.0037,-3.9749,-3.9056,-3.8345,-3.7889,-3.7872,-3.7872,-3.7872,-3.7838,-3.7838,-3.7498,-3.6701,-3.6633,-3.5974,-3.455,-3.445,-3.413,-3.3425,-3.344,-3.344,-3.344,-3.344,-3.344,-3.344,-3.3455,-3.3469,-2.92,-3.0779,-3.232,-3.4504,-3.5862,-3.6945,-3.8046,-3.8303,-3.8377,-3.8652,-3.8267,-3.79,-3.79,-3.8781,-3.968,-4.0212,-4.1644,-4.2892,-4.3406,-4.3259,-4.3002,-4.2745,-4.2928,-4.2983,-4.2727,-4.3185,-4.3497,-4.3497,-4.3497,-4.3497,-4.3497,-4.4011,-4.4305,-4.4305,-4.5076,-4.5755,-4.6305,-4.6581,-4.6966,-4.748,-4.6779,-4.6248,-4.5883,-4.5718,-4.5718,-4.5902,-4.5718,-4.5571,-4.5498,-4.5498,-4.5333,-4.5094,-4.5094,-4.4547,-4.3757,-4.3757,-4.3069,-4.2062,-4.1853,-4.1664,-4.1358,-4.0625,-4.0254,-4.007,-4.007,-4.007,-4.007,-4.007,-4.007,-4.007,-4.007,-4.007,-4.007,-4.007,-4.007,-4.007,-4.007,-4.007,-4.007,-4.007,-4.007,-4.007,-4.007,-4.007,-4.007,-4.007,-4.007,-3.9986,-3.9749,-3.9495,-3.9157,-3.8684,-3.8633,-3.843,-3.7939,-3.7905,-3.7565,-3.675,-3.6283,-3.5568,-3.4554,-3.4073,-3.3698,-3.3484,-3.3499,-3.3499,-3.3499,-3.3499,-3.3499,-3.3499,-3.3948,-3.4143,-3.1035,-3.243,-3.3623,-3.6101,-3.7312,-3.8065,-3.8579,-3.8487,-3.8267,-3.8267,-3.7386,-3.6688,-3.7,-3.7477,-3.8285,-3.968,-4.102,-4.2249,-4.3332,-4.324,-4.2983,-4.2763,-4.2928,-4.2983,-4.2745,-4.3185,-4.3497,-4.3497,-4.3497,-4.3626,-4.3901,-4.4415,-4.4837,-4.5131,-4.592,-4.6581,-4.7075,-4.7407,-4.781,-4.8306,-4.7792,-4.7278,-4.6764,-4.6764,-4.6764,-4.6764,-4.6764,-4.6599,-4.6342,-4.6342,-4.6029,-4.5586,-4.5586,-4.4892,-4.3918,-4.3918,-4.3369,-4.251,-4.1987,-4.1664,-4.1358,-4.0625,-4.0254,-4.007,-4.007,-4.007,-4.007,-4.007,-4.007,-4.007,-4.007,-4.007,-4.007,-4.007,-4.007,-4.007,-4.007,-4.007,-4.007,-4.007,-4.007,-4.007,-4.007,-4.007,-4.007,-4.007,-4.007,-4.007,-4.007,-4.007,-3.9901,-3.9428,-3.9377,-3.9191,-3.8717,-3.8684,-3.8238,-3.7155,-3.6667,-3.5938,-3.4926,-3.4422,-3.4218,-3.4218,-3.4218,-3.4218,-3.4218,-3.4218,-3.4218,-3.4233,-3.4651,-3.4846,-3.21,-3.3348,-3.4559,-3.6945,-3.8138,-3.8689,-3.8652,-3.801,-3.7422,-3.7367,-3.6046,-3.51,-3.5899,-3.6156,-3.7,-3.9331,-4.0487,-4.1662,-4.3259,-4.2837,-4.2635,-4.3406,-4.2818,-4.2653,-4.3424,-4.3534,-4.3552,-4.3552,-4.3552,-4.3901,-4.4727,-4.4819,-4.5168,-4.5938,-4.6746,-4.7186,-4.7186,-4.7921,-4.8306,-4.8306,-4.8306,-4.8306,-4.8306,-4.8306,-4.8267,-4.8267,-4.8306,-4.7827,-4.713,-4.713,-4.633,-4.5106,-4.5106,-4.4657,-4.4029,-4.4029,-4.3966,-4.3719,-4.23,-4.1445,-4.0972,-4.0926,-4.0531,-4.007,-4.007,-4.007,-4.007,-4.007,-4.007,-4.007,-4.007,-4.007,-4.007,-4.007,-4.007,-4.007,-4.007,-4.007,-4.007,-4.007,-4.007,-4.007,-4.007,-4.007,-4.007,-4.007,-4.007,-4.007,-4.007,-4.007,-4.007,-4.007,-4.007,-4.007,-4.007,-4.007,-3.9454,-3.7921,-3.7822,-3.7131,-3.5619,-3.5504,-3.5504,-3.5504,-3.5504,-3.5504,-3.5504,-3.5504,-3.5504,-3.5504,-3.5504,-3.5504,-3.389,-3.5459,-3.6835,-3.8083,-3.856,-3.8542,-3.7936,-3.7165,-3.6413,-3.5789,-3.4357,-3.3109,-3.2706,-3.4119,-3.5752,-3.7,-3.9405,-4.1662,-4.3259,-4.3314,-4.3259,-4.3461,-4.3314,-4.3259,-4.3461,-4.4048,-4.4397,-4.4397,-4.4397,-4.4745,-4.5553,-4.6177,-4.6599,-4.6801,-4.759,-4.7994,-4.7994,-4.8214,-4.8306,-4.8306,-4.8306,-4.8306,-4.8306,-4.8306,-4.8035,-4.7656,-4.8114,-4.7926,-4.7324,-4.7324,-4.7114,-4.6729,-4.6212,-4.5352,-4.4303,-4.4303,-4.3642,-4.2689,-4.2312,-4.2014,-4.1726,-4.1271,-4.0662,-4.007,-4.007,-4.007,-4.007,-4.007,-4.007,-4.007,-4.007,-4.007,-4.007,-4.007,-4.007,-4.007,-4.007,-4.007,-4.007,-4.007,-4.007,-4.007,-4.007,-4.007,-4.007,-4.007,-4.007,-4.007,-4.007,-4.007,-4.007,-4.007,-4.007,-4.007,-4.007,-4.007,-3.9679,-3.869,-3.8092,-3.7338,-3.6337,-3.5782,-3.5504,-3.5504,-3.5504,-3.5504,-3.5504,-3.5504,-3.5504,-3.5504,-3.5504,-3.5782,-3.5569,-3.678,-3.7679,-3.8505,-3.8432,-3.7863,-3.667,-3.5514,-3.4339,-3.3146,-3.1623,-3.0467,-3.0356,-3.1751,-3.3532,-3.5422,-3.8175,-4.0726,-4.269,-4.3277,-4.3497,-4.3497,-4.3497,-4.3626,-4.3993,-4.4452,-4.5002,-4.5718,-4.5443,-4.559,-4.6379,-4.6874,-4.7278,-4.7627,-4.8067,-4.8306,-4.8306,-4.8306,-4.8306,-4.8306,-4.8306,-4.8306,-4.8306,-4.8306,-4.8132,-4.7797,-4.7897,-4.7697,-4.7385,-4.7088,-4.6819,-4.6542,-4.6161,-4.537,-4.4507,-4.4507,-4.4002,-4.3301,-4.3301,-4.3044,-4.2501,-4.1511,-4.0916,-4.051,-4.0172,-4.007,-4.007,-4.007,-4.007,-4.007,-4.007,-4.007,-4.007,-4.007,-4.007,-4.007,-4.007,-4.007,-4.007,-4.007,-4.007,-4.007,-4.007,-4.007,-4.007,-4.007,-4.007,-4.007,-4.007,-4.007,-4.007,-4.007,-4.007,-4.007,-4.007,-4.007,-3.9782,-3.8962,-3.8525,-3.779,-3.6661,-3.6228,-3.5831,-3.5504,-3.5504,-3.5504,-3.5504,-3.5504,-3.5504,-3.5504,-3.5831,-3.6228,-3.6743,-3.7496,-3.7826,-3.8524,-3.8102,-3.7019,-3.5257,-3.3605,-3.1953,-3.0246,-2.8686,-2.7824,-2.8411,-2.9439,-3.1182,-3.4183,-3.6853,-3.9423,-4.1956,-4.2892,-4.3369,-4.3479,-4.3497,-4.3809,-4.4635,-4.48,-4.5498,-4.7003,-4.6562,-4.6526,-4.7241,-4.7278,-4.759,-4.8288,-4.8306,-4.8306,-4.8306,-4.8306,-4.8306,-4.8306,-4.8306,-4.8306,-4.8306,-4.821,-4.8114,-4.8017,-4.747,-4.7237,-4.7106,-4.6524,-4.5965,-4.5511,-4.5407,-4.5035,-4.4587,-4.4587,-4.4587,-4.4587,-4.4587,-4.413,-4.3352,-4.1948,-4.1373,-4.1085,-4.0426,-4.0155,-4.007,-4.007,-4.007,-4.007,-4.007,-4.007,-4.007,-4.007,-4.007,-4.007,-4.007,-4.007,-4.007,-4.007,-4.007,-4.007,-4.007,-4.007,-4.007,-4.007,-4.007,-4.007,-4.007,-4.007,-4.007,-4.007,-4.007,-4.007,-4.007,-4.007,-3.9782,-3.9086,-3.8962,-3.8286,-3.6843,-3.6661,-3.6275,-3.5504,-3.5504,-3.5504,-3.5504,-3.5619,-3.5668,-3.5668,-3.6399,-3.6783,-3.6376,-3.7477,-3.8524,-3.867,-3.8102,-3.6872,-3.4541,-3.2761,-3.0962,-2.8686,-2.7475,-2.6649,-2.6117,-2.8301,-3.0815,-3.2724,-3.5661,-3.8781,-4.1864,-4.2415,-4.2745,-4.3406,-4.3497,-4.3809,-4.4635,-4.5296,-4.6085,-4.704,-4.759,-4.7939,-4.8086,-4.8104,-4.8159,-4.8306,-4.8306,-4.8306,-4.8306,-4.8306,-4.8306,-4.8306,-4.8306,-4.8306,-4.8267,-4.7797,-4.7237,-4.671,-4.6618,-4.6288,-4.5833,-4.5681,-4.5597,-4.5459,-4.4944,-4.4665,-4.4587,-4.4587,-4.4587,-4.4587,-4.4587,-4.4485,-4.4231,-4.3335,-4.2202,-4.1187,-4.1052,-4.0578,-4.007,-4.007,-4.007,-4.007,-4.007,-4.007,-4.007,-4.007,-4.007,-4.007,-4.007,-4.007,-4.007,-4.007,-4.007,-4.007,-4.007,-4.007,-4.007,-4.007,-4.007,-4.007,-4.007,-4.007,-4.007,-4.007,-4.007,-4.007,-4.007,-4.007,-4.002,-3.9901,-3.9262,-3.8525,-3.7632,-3.6964,-3.6275,-3.5504,-3.5504,-3.5504,-3.5504,-3.6102,-3.6384,-3.6446,-3.7219,-3.7905,-3.656,-3.7477,-3.8065,-3.8065,-3.7129,-3.5459,-3.2577,-3.0687,-2.8833,-2.641,-2.5621,-2.5236,-2.485,-2.6722,-2.8851,-3.0461,-3.3109,-3.6229,-3.9918,-4.0781,-4.1662,-4.3296,-4.3497,-4.3975,-4.5204,-4.5663,-4.6416,-4.7645,-4.8086,-4.8306,-4.8306,-4.8306,-4.8306,-4.8306,-4.8306,-4.8306,-4.8306,-4.8306,-4.8306,-4.8306,-4.7977,-4.7838,-4.7797,-4.7194,-4.671,-4.6383,-4.6063,-4.5783,-4.5459,-4.5178,-4.5052,-4.4998,-4.472,-4.4587,-4.4587,-4.4587,-4.4587,-4.4587,-4.4587,-4.4587,-4.4519,-4.4147,-4.2997,-4.1627,-4.0849,-4.0358,-4.007,-4.007,-4.007,-4.007,-4.007,-4.007,-4.007,-4.007,-4.007,-4.007,-4.007,-4.007,-4.007,-4.007,-4.007,-4.007,-4.007,-4.007,-4.007,-4.007,-4.007,-4.007,-4.007,-4.007,-4.007,-4.007,-4.007,-4.007,-4.007,-4.007,-4.007,-4.007,-3.9731,-3.9156,-3.8414,-3.7616,-3.704,-3.6723,-3.6305,-3.6305,-3.6723,-3.704,-3.7203,-3.7263,-3.8019,-3.858,-3.6376,-3.7092,-3.7221,-3.7221,-3.5973,-3.3945,-3.0889,-2.8962,-2.7108,-2.4704,-2.419,-2.419,-2.419,-2.5364,-2.6943,-2.87,-3.0889,-3.3844,-3.8102,-3.9386,-4.0799,-4.3204,-4.3497,-4.4121,-4.5736,-4.5902,-4.6562,-4.8177,-4.8306,-4.8306,-4.8306,-4.8306,-4.8306,-4.8306,-4.8306,-4.8306,-4.8306,-4.8306,-4.8229,-4.8114,-4.7614,-4.7342,-4.715,-4.6524,-4.6192,-4.6192,-4.5545,-4.532,-4.5267,-4.4814,-4.4587,-4.4587,-4.4587,-4.4587,-4.4587,-4.4587,-4.4587,-4.4587,-4.4587,-4.4587,-4.4553,-4.4384,-4.3403,-4.2066,-4.0899,-4.0324,-4.007,-4.007,-4.007,-4.007,-4.007,-4.007,-4.007,-4.007,-4.007,-4.007,-4.007,-4.007,-4.007,-4.007,-4.007,-4.007,-4.007,-4.007,-4.007,-4.007,-4.007,-4.007,-4.007,-4.007,-4.007,-4.007,-4.007,-4.007,-4.007,-4.007,-4.007,-4.007,-4.007,-3.9731,-3.8908,-3.8358,-3.7978,-3.7822,-3.716,-3.7144,-3.7822,-3.7978,-3.8035,-3.8035,-3.8816,-3.9139,-3.4981,-3.5807,-3.6413,-3.6413,-3.5147,-3.3256,-3.0779,-2.8962,-2.7108,-2.4704,-2.419,-2.419,-2.419,-2.4905,-2.6282,-2.8631,-3.0411,-3.3183,-3.8028,-3.9386,-4.0799,-4.3204,-4.3497,-4.4121,-4.5736,-4.5902,-4.6562,-4.8177,-4.8306,-4.8306,-4.8306,-4.8306,-4.8306,-4.8306,-4.8306,-4.8306,-4.8306,-4.8306,-4.8017,-4.747,-4.7428,-4.7088,-4.6478,-4.5865,-4.5597,-4.5545,-4.4944,-4.4665,-4.4682,-4.4626,-4.4587,-4.4587,-4.4587,-4.4587,-4.4587,-4.4587,-4.4587,-4.4587,-4.4587,-4.4587,-4.4468,-4.3758,-4.2963,-4.2269,-4.2134,-4.1153,-4.007,-4.007,-4.007,-4.007,-4.007,-4.007,-4.007,-4.007,-4.007,-4.007,-4.007,-4.007,-4.007,-4.007,-4.007,-4.007,-4.007,-4.007,-4.007,-4.007,-4.007,-4.007,-4.007,-4.007,-4.007,-4.007,-4.007,-4.007,-4.007,-4.007,-4.007,-4.007,-4.007,-3.9731,-3.8908,-3.8854,-3.8469,-3.7806,-3.7764,-3.7764,-3.7822,-3.8469,-3.8799,-3.8799,-3.961,-4.002,-3.3807,-3.489,-3.5532,-3.5532,-3.4302,-3.2449,-3.0044,-2.8227,-2.6539,-2.4593,-2.419,-2.419,-2.419,-2.4447,-2.5309,-2.7255,-2.8099,-3.0044,-3.4412,-3.6156,-3.8046,-4.0965,-4.2176,-4.3589,-4.57,-4.5902,-4.6562,-4.8177,-4.8306,-4.8306,-4.8306,-4.8306,-4.8306,-4.8306,-4.8306,-4.8306,-4.8306,-4.8306,-4.7995,-4.7385,-4.6999,-4.6478,-4.5833,-4.5232,-4.4944,-4.4944,-4.472,-4.4587,-4.4587,-4.4587,-4.4587,-4.4587,-4.4587,-4.4587,-4.4587,-4.4587,-4.4587,-4.4587,-4.4587,-4.4587,-4.4536,-4.4215,-4.3284,-4.2202,-4.1762,-4.1221,-4.0663,-4.0206,-4.007,-4.007,-4.007,-4.007,-4.007,-4.007,-4.007,-4.007,-4.007,-4.007,-4.007,-4.007,-4.007,-4.007,-4.007,-4.007,-4.007,-4.007,-4.007,-4.007,-4.007,-4.007,-4.007,-4.007,-4.007,-4.007,-4.007,-4.007,-4.007,-4.007,-4.007,-3.9952,-3.961,-3.9139,-3.8978,-3.9172,-3.8707,-3.8707,-3.9172,-3.9506,-3.961,-3.961,-3.9952,-4.007,-3.221,-3.3513,-3.422,-3.4009,-3.2908,-3.1329,-2.9145,-2.7402,-2.586,-2.4483,-2.419,-2.419,-2.419,-2.419,-2.4649,0.0,-2.6649,-2.8356,-3.2394,-3.4376,-3.6615,-3.9863,-4.146,-4.3149,-4.5333,-4.6195,-4.7076,-4.8214,-4.8306,-4.8306,-4.8306,-4.8306,-4.8306,-4.8306,-4.8306,-4.8306,-4.8306,-4.8306,-4.7897,-4.7106,-4.6618,-4.6014,-4.5232,-4.4814,-4.4587,-4.4587,-4.4587,-4.4587,-4.4587,-4.4587,-4.4587,-4.4587,-4.4587,-4.4587,-4.4587,-4.4587,-4.4587,-4.4587,-4.4587,-4.4418,-4.4231,-4.4231,-4.3352,-4.2202,-4.1677,-4.1221,-4.0764,-4.0223,-4.007,-4.007,-4.007,-4.007,-4.007,-4.007,-4.007,-4.007,-4.007,-4.007,-4.007,-4.007,-4.007,-4.007,-4.007,-4.007,-4.007,-4.007,-4.007,-4.007,-4.007,-4.007,-4.007,-4.007,-4.007,-4.007,-4.007,-4.007,-4.007,-4.007,-4.007,-4.007,-4.007,-3.9558,-3.9542,-4.007,-3.9542,-3.9542,-4.007,-4.007,-4.007,-4.007,-4.007,-4.007,-3.0008,-3.1421,-3.243,-3.1641,-3.0834,-2.9806,-2.8172,-2.6557,-2.5182,-2.4373,-2.419,-2.419,-2.419,-2.419,-2.4465,-2.5293,-2.6741,-2.9182,-3.322,-3.522,-3.7477,-4.0708,-4.1809,-4.2947,-4.4562,-4.6874,-4.8288,-4.8306,-4.8306,-4.8306,-4.8306,-4.8306,-4.8306,-4.8306,-4.8306,-4.8306,-4.8306,-4.8306,-4.7638,-4.643,-4.6413,-4.5783,-4.4626,-4.457,-4.4587,-4.4587,-4.4587,-4.4587,-4.4587,-4.4587,-4.4587,-4.4587,-4.4587,-4.4587,-4.4587,-4.4587,-4.4587,-4.4587,-4.4587,-4.4079,-4.3436,-4.3436,-4.2912,-4.2286,-4.2286,-4.1255,-4.0087,-4.007,-4.007,-4.007,-4.007,-4.007,-4.007,-4.007,-4.007,-4.007,-4.007,-4.007,-4.007,-4.007,-4.007,-4.007,-4.007,-4.007,-4.007,-4.007,-4.007,-4.007,-4.007,-4.007,-4.007,-4.007,-4.007,-4.007,-4.007,-4.007,-4.007,-4.007,-4.007,-4.007,-4.007,-4.007,-4.007,-4.007,-4.007,-4.007,-4.007,-4.007,-4.007,-4.007,-4.007,-4.007,-2.8191,-2.9329,-3.0075,-2.9824,-2.9145,-2.8282,-2.7218,-2.6153,-2.5182,-2.4373,-2.419,-2.419,-2.419,-2.419,-2.4997,-2.7457,-2.8301,0.0,-3.3311,-3.5716,-3.7698,-3.9276,-4.2121,-4.436,-4.5424,-4.633,-4.7075,-4.762,-4.7656,-4.7656,-4.7656,-4.7656,-4.7897,-4.8306,-4.8306,-4.8306,-4.8306,-4.8306,-4.7656,-4.6383,-4.6383,-4.5783,-4.4587,-4.4587,-4.4587,-4.4587,-4.4587,-4.4587,-4.4587,-4.4587,-4.4587,-4.4587,-4.4587,-4.4587,-4.4587,-4.4587,-4.4587,-4.4587,-4.4587,-4.4062,-4.342,-4.342,-4.2574,-4.1542,-4.1542,-4.1559,-4.1491,-4.0984,-4.0476,-4.007,-4.007,-4.007,-4.007,-4.007,-4.007,-4.007,-4.007,-4.007,-4.007,-4.007,-4.007,-4.007,-4.007,-4.007,-4.007,-4.007,-4.007,-4.007,-4.007,-4.007,-4.007,-4.007,-4.007,-4.007,-4.007,-4.007,-4.007,-4.007,-4.007,-4.007,-4.007,-4.007,-4.007,-4.007,-4.007,-4.007,-4.007,-4.007,-4.007,-4.007,-4.007,-4.007,-2.5915,-2.7475,-2.8484,-2.8168,-2.7732,-2.7145,-2.6337,-2.5511,-2.4795,-2.43,-2.419,-2.419,-2.419,-2.419,-2.485,-2.6869,-2.7952,-2.9567,-3.2467,-3.5275,-3.779,-3.9827,-4.2543,-4.4562,-4.5369,-4.5882,-4.6512,-4.7225,-4.7119,-4.7237,-4.7697,-4.7281,-4.7324,-4.7937,-4.7697,-4.7697,-4.7937,-4.7697,-4.7176,-4.6383,-4.6143,-4.5545,-4.4587,-4.4587,-4.4587,-4.4587,-4.4587,-4.4587,0.0,-4.4587,-4.4587,-4.4587,-4.4587,-4.4587,-4.4587,-4.4587,-4.4401,-4.4147,-4.4147,-4.3453,-4.2591,-4.2591,-4.1965,-4.1204,-4.1204,-4.1322,-4.1356,-4.0899,-4.0443,-4.007,-4.007,-4.007,-4.007,-4.007,-4.007,-4.007,-4.007,-4.007,-4.007,-4.007,-4.007,-4.007,-4.007,-4.007,-4.007,-4.007,-4.007,-4.007,-4.007,-4.007,-4.007,-4.007,-4.007,-4.007,-4.007,-4.007,-4.007,-4.007,-4.007,-4.007,-4.007,-4.007,-4.007,-4.007,-4.007,-4.007,-4.007,-4.007,-4.007,-4.007,-4.007,-4.007,0.0,-2.5621,-2.72,-2.6521,-2.6355,-2.6172,-2.5476,-2.474,0.0,-2.419,-2.419,-2.4226,-2.4355,-2.4318,-2.4373,-2.4667,-2.6631,-2.898,-3.1403,-3.4559,-3.8065,-4.1937,-4.3039,-4.3809,-4.4546,-4.5443,-4.621,-4.6813,-4.6462,-4.6757,-4.7944,-4.6963,-4.6618,-4.7255,-4.6618,-4.6635,-4.7385,-4.6728,-4.6383,-4.6383,-4.5783,-4.5178,-4.4587,-4.4587,-4.4587,-4.4587,-4.4587,-4.4587,-4.4587,-4.4587,-4.4587,-4.4587,-4.4587,-4.4587,-4.457,-4.4519,-4.4045,-4.3403,-4.3352,-4.2405,-4.1187,-4.1136,-4.1119,-4.1119,-4.1119,-4.0679,-4.0155,-4.0155,-4.0121,-4.007,-4.007,-4.007,-4.007,-4.007,-4.007,-4.007,-4.007,-4.007,-4.007,-4.007,-4.007,-4.007,-4.007,-4.007,-4.007,-4.007,-4.007,-4.007,-4.007,-4.007,-4.007,-4.007,-4.007,-4.007,-4.007,-4.007,-4.007,-4.007,-4.007,-4.007,-4.007,-4.007,-4.007,-4.007,-4.007,-4.007,-4.007,-4.007,-4.007,-4.007,-4.007,-4.007,-2.12,0.0,-2.3309,-2.3749,-2.3859,-2.3969,0.0,-2.4337,-2.419,-2.419,0.0,-2.4575,-2.5805,-2.5529,-2.6137,-2.92,-3.0705,-3.2339,-3.4798,-3.7936,-4.0781,-4.2947,-4.3369,-4.3632,-4.4046,-4.3829,-4.3846,-4.4195,-4.4603,-4.4991,-4.5311,-4.5551,-4.5783,-4.5933,-4.532,-4.58,-4.7385,-4.6728,-4.6383,-4.6383,-4.5783,-4.5178,-4.4587,-4.4587,-4.4587,-4.4587,-4.4587,-4.4587,-4.4587,-4.4587,-4.4587,-4.4587,-4.4587,-4.4587,-4.4502,-4.391,-4.3572,-4.3335,-4.276,-4.1965,-4.1119,-4.0527,-4.0341,-4.0341,-4.0341,-4.0629,-4.0933,-4.0933,-4.0527,-4.007,-4.007,-4.007,-4.007,-4.007,-4.007,-4.007,-4.007,-4.007,-4.007,-4.007,-4.007,-4.007,-4.007,-4.007,-4.007,-4.007,-4.007,-4.007,-4.007,-4.007,-4.007,-4.007,-4.007,-4.007,-4.007,-4.007,-4.007,-4.007,-4.007,-4.007,-4.007,-4.007,-4.007,-4.007,-4.007,-4.007,-4.007,-4.007,-4.007,-4.007,-4.007,-4.007,-1.9858,-2.1125,-2.2464,-2.2905,-2.329,-2.3657,-2.4098,0.0,0.0,0.0,0.0,-2.4575,-2.5823,-2.5988,-2.6888,-2.9824,-3.1604,-3.3862,-3.7441,-4.0084,-4.2121,-4.3332,-4.3497,-4.3468,-4.3367,-4.3066,-4.2988,-4.3156,-4.3299,-4.3698,-4.4301,-4.4457,-4.4698,-4.4974,-4.4719,-4.5232,-4.6495,-4.5883,-4.5681,-4.5965,-4.5372,-4.4906,-4.4587,-4.4587,-4.4587,-4.4587,-4.4587,-4.4587,-4.4587,-4.4587,-4.4587,-4.4587,-4.4587,-4.4587,-4.4485,-4.3707,-4.32,-4.2794,-4.2049,-4.1305,-4.0629,-4.0206,-4.007,-4.007,-4.007,-4.0358,-4.0696,-4.0696,-4.0392,-4.007,-4.007,-4.007,-4.007,-4.007,-4.007,-4.007,-4.007,-4.007,-4.007,-4.007,-4.007,-4.007,-4.007,-4.007,-4.007,-4.007,-4.007,-4.007,-4.007,-4.007,-4.007,-4.007,-4.007,-4.007,-4.007,-4.007,-4.007,-4.007,-4.007,-4.007,-4.007,-4.007,-4.007,-4.007,-4.007,-4.007,-4.007,-4.007,-4.007,-4.007,-4.007,-4.007,-1.9023,-2.0947,-2.274,-2.274,-2.3306,-2.3908,-2.4018,0.0,0.0,0.0,0.0,0.0,-2.5507,-2.6389,-2.7548,-2.925,-3.1696,-3.4981,-3.9606,-4.1442,-4.2564,-4.3283,-4.3375,-4.3124,-4.248,-4.2523,-4.2573,-4.2546,-4.2274,-4.2586,-4.3663,-4.3443,-4.3469,-4.4043,-4.417,-4.4562,-4.5182,-4.4801,-4.4906,-4.5511,-4.4906,-4.4587,-4.4587,-4.4587,-4.4587,-4.4587,-4.4587,-4.4587,-4.4587,-4.4587,-4.4587,-4.4587,-4.4587,-4.4502,-4.4316,-4.3538,-4.2777,-4.2016,-4.1288,-4.0612,-4.007,-4.007,-4.007,-4.007,-4.007,-4.007,-4.007,-4.007,-4.007,-4.007,-4.007,-4.007,-4.007,-4.007,-4.007,-4.007,-4.007,-4.007,-4.007,-4.007,-4.007,-4.007,-4.007,-4.007,-4.007,-4.007,-4.007,-4.007,-4.007,-4.007,-4.007,-4.007,-4.007,-4.007,-4.007,-4.007,-4.007,-4.007,-4.007,-4.007,-4.007,-4.007,-4.007,-4.007,-4.007,-4.007,-4.007,-4.007,-4.007,-4.007,-4.007,-4.007,-1.88,-2.0228,-2.1566,-2.1566,-2.1944,-2.2522,-2.3204,0.0,0.0,0.0,0.0,0.0,0.0,-2.7885,-2.936,-3.1671,-3.4688,-3.7955,-4.1442,-4.2139,-4.2443,-4.2774,-4.2826,-4.2382,-4.1251,-4.1192,-4.1,-4.0588,-4.1036,-4.146,-4.1631,-4.2155,-4.2509,-4.2598,-4.2627,-4.3,-4.3736,-4.4304,-4.4906,-4.5511,-4.4906,-4.4587,-4.4587,-4.4587,-4.4587,-4.4587,-4.4587,-4.4587,-4.4587,-4.4587,-4.4587,-4.4587,-4.4587,-4.4181,-4.3504,-4.2743,-4.1999,-4.1271,-4.051,-4.0172,-4.007,-4.007,-4.007,-4.007,-4.007,-4.007,-4.007,-4.007,-4.007,-4.007,-4.007,-4.007,-4.007,-4.007,-4.007,-4.007,-4.007,-4.007,-4.007,-4.007,-4.007,-4.007,-4.007,-4.007,-4.007,-4.007,-4.007,-4.007,-4.007,-4.007,-4.007,-4.007,-4.007,-4.007,-4.007,-4.007,-4.007,-4.007,-4.007,-4.007,-4.007,-4.007,-4.007,-4.007,-4.007,-4.007,-4.007,-4.007,-4.007,-4.007,-4.007,-4.007,-1.8115,-1.9612,-2.101,-2.0862,-2.2041,-2.3353,-2.3713,0.0,0.0,0.0,0.0,0.0,0.0,-2.8837,-3.0882,-3.4824,-3.7417,-3.9615,-4.1541,-4.1958,-4.2088,-4.2208,-4.2203,-4.1853,-4.0995,-4.0903,-4.0703,-4.0121,-4.0392,-4.0595,-4.0595,-4.1305,-4.1711,-4.1711,-4.2083,-4.2455,-4.2811,-4.3166,-4.3685,-4.4365,-4.4517,-4.435,-4.3961,-4.4384,-4.4587,-4.4587,-4.4587,-4.4587,-4.4587,-4.4587,-4.4587,-4.4536,-4.4113,-4.3741,-4.3284,-4.2117,-4.1238,-4.0544,-4.0206,-4.007,-4.007,-4.007,-4.007,-4.007,-4.007,-4.007,-4.007,-4.007,-4.007,-4.007,-4.007,-4.007,-4.007,-4.007,-4.007,-4.007,-4.007,-4.007,-4.007,-4.007,-4.007,-4.007,-4.007,-4.007,-4.007,-4.007,-4.007,-4.007,-4.007,-4.007,-4.0204,-4.0497,-4.0286,-4.0204,-4.0497,-4.0254,-4.007,-4.007,-4.007,-4.007,-4.007,-4.007,-4.007,-4.007,-4.007,-4.007,-4.007,-4.007,-4.007,-4.007,-4.007,-4.007,-1.7371,-1.8996,-2.0539,-2.0597,0.0,-2.392,-2.4261,0.0,0.0,0.0,0.0,0.0,0.0,-2.9763,-3.2494,-3.7254,-3.9157,-4.0359,-4.1366,-4.167,-4.175,-4.1621,-4.1578,-4.1358,-4.078,-4.0685,-4.0528,-4.0121,-4.007,-4.007,-4.007,-4.0629,-4.0933,-4.0933,-4.1474,-4.1863,-4.2033,-4.2033,-4.2405,-4.3166,-4.3758,-4.3724,-4.3166,-4.3775,-4.4045,-4.4045,-4.4045,-4.4045,-4.4045,-4.4045,-4.4045,-4.3978,-4.3386,-4.3047,-4.2743,-4.1424,-4.0578,-4.007,-4.007,-4.007,-4.007,-4.007,-4.007,-4.007,-4.007,-4.007,-4.007,-4.007,-4.007,-4.007,-4.007,-4.007,-4.007,-4.007,-4.007,-4.007,-4.007,-4.007,-4.007,-4.007,-4.007,-4.007,-4.007,-4.007,-4.007,-4.007,-4.0204,-4.0254,-4.0121,-4.0204,-4.0417,-4.0703,-4.0336,-4.0254,-4.0703,-4.0336,-4.007,-4.007,-4.007,-4.007,-4.007,-4.007,-4.007,-4.007,-4.007,-4.007,-4.007,-4.007,-4.007,-4.007,-4.007,-4.007,-1.6834,-1.8351,-1.9926,-2.0918,-2.179,0.0,-2.416,-2.4533,0.0,-2.635,0.0,0.0,-2.8236,-3.1091,-3.4429,-3.7816,-3.9039,-4.0046,-4.1552,-4.1817,-4.1578,-4.1041,-4.0949,-4.0733,-4.0204,-4.0171,-4.0121,-4.0121,-4.007,-4.007,-4.007,-4.0121,-4.0155,-4.0155,-4.0206,-4.0578,-4.1271,-4.1288,-4.1644,-4.2371,-4.2422,-4.2422,-4.2371,-4.2422,-4.2455,-4.2455,-4.2455,-4.2455,-4.2455,-4.2455,-4.2455,-4.2455,-4.2388,-4.1965,-4.1271,-4.046,-4.0121,-4.007,-4.007,-4.007,-4.007,-4.007,-4.007,-4.007,-4.007,-4.007,-4.007,-4.007,-4.007,-4.007,-4.007,-4.007,-4.007,-4.007,-4.007,-4.007,-4.007,-4.007,-4.007,-4.007,-4.007,-4.007,-4.007,-4.007,-4.007,-4.007,-4.0528,-4.0655,-4.0171,-4.0528,-4.0655,-4.0204,-4.0121,-4.0121,-4.0171,-4.0121,-4.007,-4.007,-4.007,-4.007,-4.007,-4.007,-4.007,-4.007,-4.007,-4.007,-4.007,-4.007,-4.007,-4.007,-4.007,-4.007,-1.6359,-1.8278,-2.0188,-2.0597,-2.2194,0.0,0.0,-2.5896,-2.6979,-2.8501,-2.927,0.0,-3.0694,-3.3136,-3.5645,-3.7591,-3.8489,-3.9477,-4.0996,-4.0938,-4.0642,-4.0417,-4.0417,-4.0336,-4.0121,-4.007,-4.007,-4.007,-4.007,-4.007,-4.007,-4.007,-4.007,-4.007,-4.007,-4.0206,-4.0493,-4.051,-4.0646,-4.0916,-4.1847,-4.2049,-4.1627,-4.2083,-4.2286,-4.2286,-4.2286,-4.2286,-4.2286,-4.2286,-4.2286,-4.2252,-4.1796,-4.117,-4.046,-4.0189,-4.007,-4.007,-4.007,-4.007,-4.007,-4.007,-4.007,-4.007,-4.007,-4.007,-4.007,-4.007,-4.007,-4.007,-4.007,-4.007,-4.007,-4.007,-4.007,-4.007,-4.007,-4.007,-4.007,-4.007,-4.007,-4.007,-4.007,-4.007,-4.007,-4.007,-4.0286,-4.0336,-4.0121,-4.0286,-4.0449,-4.0577,-4.0625,-4.0449,-4.0121,-4.007,-4.007,-4.007,-4.007,-4.007,-4.007,-4.007,-4.007,-4.007,-4.007,-4.007,-4.007,-4.007,-4.007,-4.007,-4.007,-4.007,-1.6291,-1.8367,-2.0481,0.0,0.0,0.0,-2.6031,-2.7097,-2.8383,-3.0378,-3.119,-3.1765,-3.2493,-3.4002,-3.5605,-3.7094,-3.7937,-3.8906,-4.0449,-4.0336,-4.007,-4.007,-4.007,-4.007,-4.007,-4.007,-4.007,-4.007,-4.007,-4.007,-4.007,-4.007,-4.007,-4.007,-4.007,-4.007,-4.007,-4.007,-4.007,-4.0087,-4.1102,-4.1339,-4.0865,-4.1373,-4.1593,-4.1593,-4.1593,-4.1593,-4.1593,-4.1593,-4.1593,-4.1542,-4.1052,-4.0527,-4.007,-4.007,-4.007,-4.007,-4.007,-4.007,-4.007,-4.007,-4.007,-4.007,-4.007,-4.007,-4.007,-4.007,-4.007,-4.007,-4.007,-4.007,-4.007,-4.007,-4.007,-4.007,-4.007,-4.007,-4.007,-4.007,-4.007,-4.007,-4.007,-4.007,-4.007,-4.007,-4.0254,-4.0286,-4.0121,-4.0254,-4.0417,-4.0625,-4.0655,-4.0497,-4.0121,-4.007,-4.007,-4.007,-4.007,-4.007,-4.007,-4.007,-4.007,-4.007,-4.007,-4.007,-4.007,-4.007,-4.007,-4.007,-4.007,-4.007,-1.6641,-1.8461,-2.0617,0.0,0.0,0.0,-2.7317,-2.7806,-2.8687,-3.1681,-3.2307,-3.2544,-3.3288,-3.3423,-3.4167,-3.6417,-3.7415,-3.8413,-3.9868,-4.007,-4.007,-4.007,-4.007,-4.007,-4.007,-4.007,-4.007,-4.007,-4.007,-4.007,-4.007,-4.007,-4.007,-4.007,-4.007,-4.007,-4.007,-4.007,-4.007,-4.007,-4.007,-4.007,-4.007,-4.007,-4.007,-4.007,-4.007,-4.007,-4.007,-4.007,-4.007,-4.007,-4.007,-4.007,-4.007,-4.007,-4.007,-4.007,-4.007,-4.007,-4.007,-4.007,-4.007,-4.007,-4.007,-4.007,-4.007,-4.007,-4.007,-4.007,-4.007,-4.007,-4.007,-4.007,-4.007,-4.007,-4.007,-4.007,-4.007,-4.007,-4.007,-4.007,-4.007,-4.007,-4.007,-4.007,-4.0528,-4.0703,-4.0171,-4.0577,-4.0703,-4.0171,-4.007,-4.007,-4.007,-4.007,-4.007,-4.007,-4.007,-4.007,-4.007,-4.007,-4.007,-4.007,-4.007,-4.007,-4.007,-4.007,-4.007,-4.007,-4.007,-4.007,-1.6956,-1.8505,0.0,-2.2141,0.0,0.0,0.0,-2.8653,0.0,0.0,-3.4252,-3.4539,-3.4235,-3.4607,-3.5351,-3.6586,-3.7415,-3.8413,-3.9868,-4.007,-4.007,-4.007,-4.007,-4.007,-4.007,-4.007,-4.007,-4.007,-4.007,-4.007,-4.007,-4.007,-4.007,-4.007,-4.007,-4.007,-4.007,-4.007,-4.007,-4.007,-4.007,-4.007,-4.007,-4.007,-4.007,-4.007,-4.007,-4.007,-4.007,-4.007,-4.007,-4.007,-4.007,-4.007,-4.007,-4.007,-4.007,-4.007,-4.007,-4.007,-4.007,-4.007,-4.007,-4.007,-4.007,-4.007,-4.007,-4.007,-4.007,-4.007,-4.007,-4.007,-4.007,-4.007,-4.007,-4.007,-4.007,-4.007,-4.007,-4.007,-4.007,-4.007,-4.007,-4.007,-4.007,-4.007,-4.0254,-4.0286,-4.0121,-4.0254,-4.0286,-4.0121,-4.007,-4.007,-4.007,-4.007,-4.007,-4.007,-4.007,-4.007,-4.007,-4.007,-4.007,-4.007,-4.007,-4.007,-4.007,-4.007,-4.007,-4.007,-4.007,-4.007,-1.8325,-1.9958,0.0,-2.31,-2.5309,-2.7486,-2.8856,0.0,0.0,-3.3694,-3.4658,-3.5131,-3.4962,-3.5064,-3.552,-3.6603,-3.7415,-3.8311,-3.9478,-3.9901,-4.007,-4.007,-4.007,-4.007,-4.007,-4.007,-4.007,-4.007,-4.007,-4.007,-4.007,-4.007,-4.007,-4.007,-4.007,-4.007,-4.007,-4.007,-4.007,-4.007,-4.007,-4.007,-4.007,-4.007,-4.007,-4.007,-4.007,-4.007,-4.007,-4.007,-4.007,-4.007,-4.007,-4.007,-4.007,-4.007,-4.007,-4.007,-4.007,-4.007,-4.007,-4.007,-4.007,-4.007,-4.007,-4.007,-4.007,-4.007,-4.007,-4.007,-4.007,-4.007,-4.007,-4.007,-4.007,-4.007,-4.007,-4.007,-4.007,-4.007,-4.007,-4.007,-4.007,-4.007,-4.007,-4.007,-4.007,-4.007,-4.007,-4.007,-4.007,-4.007,-4.007,-4.007,-4.007,-4.007,-4.007,-4.007,-4.007,-4.007,-4.007,-4.007,-4.007,-4.007,-4.007,-4.007,-4.007,-4.007,-4.007,-4.007,-4.007,-4.007,-2.0018,-2.1977,0.0,-2.4394,-2.6218,0.0,-3.07,-3.229,-3.3322,-3.3389,-3.3981,-3.4726,-3.547,-3.5064,-3.5081,-3.6535,-3.7347,-3.8075,-3.8886,-3.9563,-4.0003,-4.007,-4.007,-4.007,-4.007,-4.007,-4.007,-4.007,-4.007,-4.007,-4.007,-4.007,-4.007,-4.007,-4.007,-4.007,-4.007,-4.007,-4.007,-4.007,-4.007,-4.007,-4.007,-4.007,-4.007,-4.007,-4.007,-4.007,-4.007,-4.007,-4.007,-4.007,-4.007,-4.007,-4.007,-4.007,-4.007,-4.007,-4.007,-4.007,-4.007,-4.007,-4.007,-4.007,-4.007,-4.007,-4.007,-4.007,-4.007,-4.007,-4.007,-4.007,-4.007,-4.007,-4.007,-4.007,-4.007,-4.007,-4.007,-4.007,-4.007,-4.007,-4.007,-4.007,-4.007,-4.007,-4.007,-4.007,-4.007,-4.007,-4.007,-4.007,-4.007,-4.007,-4.007,-4.007,-4.007,-4.007,-4.007,-4.007,-4.007,-4.007,-4.007,-4.007,-4.007,-4.007,-4.007,-4.007,-4.007,-4.007,-4.007,-4.007,-1.8584,-2.0622,0.0,0.0,-2.6623,-2.9161,-3.0818,-3.1884,-3.2696,-3.3288,-3.3981,-3.4726,-3.547,-3.5487,-3.569,-3.662,-3.6907,-3.7483,-3.8802,-3.9123,-3.9445,-4.0003,-4.007,-4.007,-4.007,-4.007,-4.007,-4.007,-4.007,-4.007,-4.007,-4.007,-4.007,-4.007,-4.007,-4.007,-4.007,-4.007,-4.007,-4.007,-4.007,-4.007,-4.007,-4.007,-4.007,-4.007,-4.007,-4.007,-4.007,-4.007,-4.007,-4.007,-4.007,-4.007,-4.007,-4.007,-4.007,-4.007,-4.007,-4.007,-4.007,-4.007,-4.007,-4.007,-4.007,-4.007,-4.007,-4.007,-4.007,-4.007,-4.007,-4.007,-4.007,-4.007,-4.007,-4.007,-4.007,-4.007,-4.007,-4.007,-4.007,-4.007,-4.007,-4.007,-4.007,-4.007,-4.007,-4.007,-4.007,-4.007,-4.007,-4.007,-4.007,-4.007,-4.007,-4.007,-4.007,-4.007,-4.007,-4.007,-4.007,-4.007,-4.007,-4.007,-4.007,-4.007,-4.007,-4.007,-4.007,-4.007,-4.007,-4.007,-1.9181,0.0,0.0,-2.5122,0.0,-2.9279,-3.0412,-3.1241,-3.1968,-3.2713,-3.3728,-3.4607,-3.5013,-3.5368,-3.5757,-3.6163,-3.6535,-3.706,-3.7821,-3.8244,-3.8616,-3.8988,-3.9343,-3.9546,-3.9546,-3.9868,-4.007,-4.007,-4.007,-4.007,-4.007,-4.007,-4.007,-4.007,-4.007,-4.007,-4.007,-4.007,-4.007,-4.007,-4.007,-4.007,-4.007,-4.007,-4.007,-4.007,-4.007,-4.007,-4.007,-4.007,-4.007,-4.007,-4.007,-4.007,-4.007,-4.007,-4.007,-4.007,-4.007,-4.007,-4.007,-4.007,-4.007,-4.007,-4.007,-4.007,-4.007,-4.007,-4.007,-4.007,-4.007,-4.007,-4.007,-4.007,-4.007,-4.007,-4.007,-4.007,-4.007,-4.007,-4.007,-4.007,-4.007,-4.007,-4.007,-4.007,-4.007,-4.007,-4.007,-4.007,-4.007,-4.007,-4.007,-4.007,-4.007,-4.007,-4.007,-4.007,-4.007,-4.007,-4.007,-4.007,-4.007,-4.007,-4.007,-4.007,-4.007,-4.007,-4.007,-4.007,-4.007,-4.007,-1.9619,0.0,-2.3615,-2.6092,-2.774,0.0,-2.9905,-3.0581,-3.1207,-3.1935,-3.3169,-3.415,-3.4286,-3.4912,-3.5419,-3.5419,-3.6079,-3.662,-3.6755,-3.7313,-3.777,-3.7889,-3.8548,-3.8988,-3.8988,-3.9648,-4.007,-4.007,-4.007,-4.007,-4.007,-4.007,-4.007,-4.007,-4.007,-4.007,-4.007,-4.007,-4.007,-4.007,-4.007,-4.007,-4.007,-4.007,-4.007,-4.007,-4.007,-4.007,-4.007,-4.007,-4.007,-4.007,-4.007,-4.007,-4.007,-4.007,-4.007,-4.007,-4.007,-4.007,-4.007,-4.007,-4.007,-4.007,-4.007,-4.007,-4.007,-4.007,-4.007,-4.007,-4.007,-4.007,-4.007,-4.007,-4.007,-4.007,-4.007,-4.007,-4.007,-4.007,-4.007,-4.007,-4.007,-4.007,-4.007,-4.007,-4.007,-4.007,-4.007,-4.007,-4.007,-4.007,-4.007,-4.007,-4.007,-4.007,-4.007,-4.007,-4.007,-4.007,-4.007,-4.007,-4.007,-4.007,-4.007,-4.007,-4.007,-4.007,-4.007,-4.007,-4.007,-4.007,0.0,0.0,-2.3309,0.0,-2.7334,-2.8349,-2.9786,-3.0192,-3.0463,-3.119,-3.2002,-3.278,-3.344,-3.415,-3.4641,-3.4641,-3.5284,-3.6011,-3.6688,-3.6857,-3.7161,-3.7821,-3.8548,-3.8988,-3.8988,-3.9648,-4.007,-4.007,-4.007,-4.007,-4.007,-4.007,-4.007,-4.007,-4.007,-4.007,-4.007,-4.007,-4.007,-4.007,-4.007,-4.007,-4.007,-4.007,-4.007,-4.007,-4.007,-4.007,-4.007,-4.007,-4.007,-4.007,-4.007,-4.007,-4.007,-4.007,-4.007,-4.007,-4.007,-4.007,-4.007,-4.007,-4.007,-4.007,-4.007,-4.007,-4.007,-4.007,-4.007,-4.007,-4.007,-4.007,-4.007,-4.007,-4.007,-4.007,-4.007,-4.007,-4.007,-4.007,-4.007,-4.007,-4.007,-4.007,-4.007,-4.007,-4.007,-4.007,-4.007,-4.007,-4.007,-4.007,-4.007,-4.007,-4.007,-4.007,-4.007,-4.007,-4.007,-4.007,-4.007,-4.007,-4.007,-4.007,-4.007,-4.007,-4.007,-4.007,-4.007,-4.007,-4.007,-4.007,-1.763,-1.9985,-2.25,0.0,-2.6319,-2.7486,-2.8569,-2.9499,-3.0192,-3.0531,-3.1157,-3.1901,-3.2645,-3.3389,-3.4015,-3.4421,-3.4776,-3.525,-3.6028,-3.6129,-3.6248,-3.6586,-3.7297,-3.7753,-3.7753,-3.8802,-3.9462,-3.9462,-3.9851,-4.007,-4.007,-4.007,-4.007,-4.007,-4.007,-4.007,-4.007,-4.007,-4.007,-4.007,-4.007,-4.007,-4.007,-4.007,-4.007,-4.007,-4.007,-4.007,-4.007,-4.007,-4.007,-4.007,-4.007,-4.007,-4.007,-4.007,-4.007,-4.007,-4.007,-4.007,-4.007,-4.007,-4.007,-4.007,-4.007,-4.007,-4.007,-4.007,-4.007,-4.007,-4.007,-4.007,-4.007,-4.007,-4.007,-4.007,-4.007,-4.007,-4.007,-4.007,-4.007,-4.007,-4.007,-4.007,-4.007,-4.007,-4.007,-4.007,-4.007,-4.007,-4.007,-4.007,-4.007,-4.007,-4.007,-4.007,-4.007,-4.007,-4.007,-4.007,-4.007,-4.007,-4.007,-4.007,-4.007,-4.007,-4.007,-4.007,-4.007,-4.007,-4.007,-4.007,0.0,0.0,-2.1336,-2.3418,-2.5033,-2.637,-2.7317,-2.8416,-2.9347,-2.9736,-3.0412,-3.1089,-3.163,-3.2493,-3.3305,-3.3846,-3.4252,-3.4692,-3.525,-3.5504,-3.5622,-3.5622,-3.6315,-3.6772,-3.6772,-3.7956,-3.8717,-3.8717,-3.9225,-3.9597,-3.9783,-3.98,-3.9884,-4.007,-4.007,-4.007,-4.007,-4.007,-4.007,-4.007,-4.007,-4.007,-4.007,-4.007,-4.007,-4.007,-4.007,-4.007,-4.007,-4.007,-4.007,-4.007,-4.007,-4.007,-4.007,-4.007,-4.007,-4.007,-4.007,-4.007,-4.007,-4.007,-4.007,-4.007,-4.007,-4.007,-4.007,-4.007,-4.007,-4.007,-4.007,-4.007,-4.007,-4.007,-4.007,-4.007,-4.007,-4.007,-4.007,-4.007,-4.007,-4.007,-4.007,-4.007,-4.007,-4.007,-4.007,-4.007,-4.007,-4.007,-4.007,-4.007,-4.007,-4.007,-4.007,-4.007,-4.007,-4.007,-4.007,-4.007,-4.007,-4.007,-4.007,-4.007,-4.007,-4.007,-4.007,-4.007,-4.007,-4.007,-4.007,-4.007,0.0,-1.8339,0.0,-2.1908,-2.3511,-2.4997,-2.642,-2.681,-2.7283,-2.8738,-2.9634,-3.0176,-3.0226,-3.1376,-3.2381,-3.2432,-3.3575,-3.4506,-3.4539,-3.5165,-3.5622,-3.5622,-3.6315,-3.6772,-3.6772,-3.7499,-3.7973,-3.7973,-3.799,-3.8328,-3.9005,-3.9056,-3.9377,-4.0054,-4.007,-4.007,-4.007,-4.007,-4.007,-4.007,-4.007,-4.007,-4.007,-4.007,-4.007,-4.007,-4.007,-4.007,-4.007,-4.007,-4.007,-4.007,-4.007,-4.007,-4.007,-4.007,-4.007,-4.007,-4.007,-4.007,-4.007,-4.007,-4.007,-4.007,-4.007,-4.007,-4.007,-4.007,-4.007,-4.007,-4.007,-4.007,-4.007,-4.007,-4.007,-4.007,-4.007,-4.007,-4.007,-4.007,-4.007,-4.007,-4.007,-4.007,-4.007,-4.007,-4.007,-4.007,-4.007,-4.007,-4.007,-4.007,-4.007,-4.007,-4.007,-4.007,-4.007,-4.007,-4.007,-4.007,-4.007,-4.007,-4.007,-4.007,-4.007,-4.007,-4.007,-4.007,-4.007,-4.007,-4.007,-4.007,0.0,0.0,0.0,-2.0425,-2.1972,-2.3342,-2.434,-2.5676,-2.686,-2.7402,-2.8501,-2.9381,-2.9381,-3.0581,-3.1732,-3.2205,-3.273,-3.3237,-3.3728,-3.4438,-3.4895,-3.4895,-3.5571,-3.6028,-3.6028,-3.6738,-3.7178,-3.7178,-3.7635,-3.8024,-3.8278,-3.8294,-3.8413,-3.8684,-3.8684,-3.8903,-3.9377,-3.9834,-4.007,-4.007,-4.007,-4.007,-4.007,-4.007,-4.007,-4.007,-4.007,-4.007,-4.007,-4.007,-4.007,-4.007,-4.007,-4.007,-4.007,-4.007,-4.007,-4.007,-4.007,-4.007,-4.007,-4.007,-4.007,-4.007,-4.007,-4.007,-4.007,-4.007,-4.007,-4.007,-4.007,-4.007,-4.007,-4.007,-4.007,-4.007,-4.007,-4.007,-4.007,-4.007,-4.007,-4.007,-4.007,-4.007,-4.007,-4.007,-4.007,-4.007,-4.007,-4.007,-4.007,-4.007,-4.007,-4.007,-4.007,-4.007,-4.007,-4.007,-4.007,-4.007,-4.007,-4.007,-4.007,-4.007,-4.007,-4.007,-4.007,-4.007,-4.007,-4.007,-4.007,-4.007,-1.5142,0.0,0.0,0.0,-2.0416,-2.1549,-2.3054,-2.434,-2.5423,-2.6184,-2.7334,-2.8281,-2.8552,-2.9617,-3.0683,-3.1427,-3.1968,-3.2459,-3.2949,-3.366,-3.4134,-3.4134,-3.4776,-3.525,-3.525,-3.5943,-3.64,-3.64,-3.6857,-3.7263,-3.7516,-3.7533,-3.7652,-3.7905,-3.7905,-3.8261,-3.8988,-3.9478,-3.9834,-4.007,-4.007,-4.007,-4.007,-4.007,-4.007,-4.007,-4.007,-4.007,-4.007,-4.007,-4.007,-4.007,-4.007,-4.007,-4.007,-4.007,-4.007,-4.007,-4.007,-4.007,-4.007,-4.007,-4.007,-4.007,-4.007,-4.007,-4.007,-4.007,-4.007,-4.007,-4.007,-4.007,-4.007,-4.007,-4.007,-4.007,-4.007,-4.007,-4.007,-4.007,-4.007,-4.007,-4.007,-4.007,-4.007,-4.007,-4.007,-4.007,-4.007,-4.007,-4.007,-4.007,-4.007,-4.007,-4.007,-4.007,-4.007,-4.007,-4.007,-4.007,-4.007,-4.007,-4.007,-4.007,-4.007,-4.007,-4.007,-4.007,-4.007,-4.007,-4.007,-4.007,0.0,0.0,0.0,-1.8268,-1.8843,-1.9655,-2.2598,-2.275,-2.2885,-2.5067,-2.6116,-2.686,-2.7587,-2.8416,-2.9194,-2.9922,-3.1258,-3.2222,-3.2239,-3.2899,-3.3372,-3.3372,-3.4015,-3.4472,-3.4489,-3.5165,-3.5605,-3.5622,-3.5622,-3.5943,-3.6705,-3.6738,-3.7077,-3.7821,-3.7872,-3.821,-3.892,-3.8954,-3.9326,-4.0054,-4.0054,-4.0054,-4.007,-4.007,-4.007,-4.007,-4.007,-4.007,-4.007,-4.007,-4.007,-4.007,-4.007,-4.007,-4.007,-4.007,-4.007,-4.007,-4.007,-4.007,-4.007,-4.007,-4.007,-4.007,-4.007,-4.007,-4.007,-4.007,-4.007,-4.007,-4.007,-4.007,-4.007,-4.007,-4.007,-4.007,-4.007,-4.007,-4.007,-4.007,-4.007,-4.007,-4.007,-4.007,-4.007,-4.007,-4.007,-4.007,-4.007,-4.007,-4.007,-4.007,-4.007,-4.007,-4.007,-4.007,-4.007,-4.007,-4.007,-4.007,-4.007,-4.007,-4.007,-4.007,-4.007,-4.007,-4.007,-4.007,-4.007,-4.007,-4.007,-4.007,-1.382,0.0,0.0,0.0,0.0,0.0,-1.9942,-2.0839,-2.182,-2.2987,-2.4222,-2.5321,-2.6082,-2.7266,-2.8213,-2.8381,-2.9719,-3.0886,-3.1427,-3.2121,-3.2594,-3.2594,-3.3254,-3.3914,-3.4438,-3.4675,-3.503,-3.5571,-3.5622,-3.5723,-3.5926,-3.5943,-3.6045,-3.6248,-3.6789,-3.7195,-3.7398,-3.7939,-3.8565,-3.9292,-3.9292,-3.9563,-4.007,-4.007,-4.007,-4.007,-4.007,-4.007,-4.007,-4.007,-4.007,-4.007,-4.007,-4.007,-4.007,-4.007,-4.007,-4.007,-4.007,-4.007,-4.007,-4.007,-4.007,-4.007,-4.007,-4.007,-4.007,-4.007,-4.007,-4.007,-4.007,-4.007,-4.007,-4.007,-4.007,-4.007,-4.007,-4.007,-4.007,-4.007,-4.007,-4.007,-4.007,-4.007,-4.007,-4.007,-4.007,-4.007,-4.007,-4.007,-4.007,-4.007,-4.007,-4.007,-4.007,-4.007,-4.007,-4.007,-4.007,-4.007,-4.007,-4.007,-4.007,-4.007,-4.007,-4.007,-4.007,-4.007,-4.007,-4.007,-4.007,-4.007,-1.4903,-1.6018,-1.7354,-1.7422,0.0,0.0,-2.0027,-2.0517,-2.1092,-2.2479,-2.3427,-2.4255,-2.5,-2.5845,-2.6623,-2.7249,-2.8095,-2.9161,-3.0548,-3.1376,-3.1833,-3.1833,-3.2476,-3.3102,-3.3525,-3.3846,-3.4218,-3.4658,-3.4979,-3.5284,-3.5605,-3.5622,-3.5622,-3.5622,-3.6062,-3.6451,-3.6772,-3.7212,-3.7804,-3.8531,-3.8531,-3.8768,-3.9174,-3.9174,-3.9343,-3.9631,-3.9631,-3.98,-4.007,-4.007,-4.007,-4.007,-4.007,-4.007,-4.007,-4.007,-4.007,-4.007,-4.007,-4.007,-4.007,-4.007,-4.007,-4.007,-4.007,-4.007,-4.007,-4.007,-4.007,-4.007,-4.007,-4.007,-4.007,-4.007,-4.007,-4.007,-4.007,-4.007,-4.007,-4.007,-4.007,-4.007,-4.007,-4.007,-4.007,-4.007,-4.007,-4.007,-4.007,-4.007,-4.007,-4.007,-4.007,-4.007,-4.007,-4.007,-4.007,-4.007,-4.007,-4.007,-4.007,-4.007,-4.0204,-4.0417,-4.0449,-4.0449,-4.0449,-4.0204,-4.007,-4.007,-4.007,-4.007,-1.6851,-1.6953,-1.7507,-1.9393,-1.8937,0.0,-2.1346,-2.0846,-2.0441,-2.2479,-2.297,-2.3274,-2.4086,-2.4337,-2.4814,-2.6218,-2.659,-2.7469,-2.9668,-3.0615,-3.1072,-3.1072,-3.1715,-3.2188,-3.2273,-3.2882,-3.3322,-3.3406,-3.4015,-3.4692,-3.5453,-3.5504,-3.5537,-3.5622,-3.5622,-3.5943,-3.6637,-3.6654,-3.7026,-3.7787,-3.7787,-3.7821,-3.7905,-3.7905,-3.8261,-3.887,-3.887,-3.9292,-3.9952,-3.9952,-4.0003,-4.007,-4.007,-4.007,-4.007,-4.007,-4.007,-4.007,-4.007,-4.007,-4.007,-4.007,-4.007,-4.007,-4.007,-4.007,-4.007,-4.007,-4.007,-4.007,-4.007,-4.007,-4.007,-4.007,-4.007,-4.007,-4.007,-4.007,-4.007,-4.007,-4.007,-4.007,-4.007,-4.007,-4.007,-4.007,-4.007,-4.007,-4.007,-4.007,-4.007,-4.007,-4.007,-4.007,-4.007,-4.007,-4.007,-4.007,-4.007,-4.007,-4.007,-4.0171,-4.0368,-4.0827,-4.0827,-4.0827,-4.0827,-4.0336,-4.007,-4.007,-4.007,-4.007,-1.7743,-1.843,-1.9333,-1.9164,-1.935,0.0,-1.957,-1.9333,-1.9249,-1.9688,-2.0264,-2.1083,-2.2479,-2.3207,-2.39,-2.4811,-2.5913,-2.7283,-2.8975,-2.9854,-3.0311,-3.0311,-3.097,-3.163,-3.2222,-3.2408,-3.2747,-3.3372,-3.3541,-3.3947,-3.4675,-3.4709,-3.4996,-3.5605,-3.5622,-3.569,-3.5842,-3.5842,-3.6231,-3.6992,-3.6992,-3.7313,-3.7905,-3.7905,-3.799,-3.8125,-3.8125,-3.8531,-3.9208,-3.9208,-3.9546,-4.007,-4.007,-4.007,-4.007,-4.007,-4.007,-4.007,-4.007,-4.007,-4.007,-4.007,-4.007,-4.007,-4.007,-4.007,-4.007,-4.007,-4.007,-4.007,-4.007,-4.007,-4.007,-4.007,-4.007,-4.007,-4.007,-4.007,-4.007,-4.007,-4.007,-4.007,-4.007,-4.007,-4.007,-4.007,-4.007,-4.007,-4.007,-4.007,-4.007,-4.007,-4.007,-4.007,-4.007,-4.007,-4.007,-4.007,-4.007,-4.007,-4.007,-4.048,-4.0577,-4.0237,-4.0254,-4.0254,-4.0254,-4.0171,-4.007,-4.007,-4.007,-4.007,-1.9587,-2.0044,-2.0602,-2.0602,-2.0602,0.0,0.0,-2.0314,-2.0145,-2.0517,-2.0602,-2.0957,-2.2107,-2.2293,-2.2649,-2.3765,-2.456,-2.5439,-2.6606,-2.8366,-2.955,-2.955,-2.9871,-3.0378,-3.1123,-3.119,-3.1664,-3.2763,-3.2848,-3.3169,-3.3914,-3.3947,-3.4286,-3.503,-3.5064,-3.5233,-3.5622,-3.5622,-3.5808,-3.6197,-3.6197,-3.64,-3.6772,-3.6772,-3.6975,-3.7347,-3.7347,-3.777,-3.8447,-3.8447,-3.8886,-3.958,-3.9935,-4.007,-4.007,-4.007,-4.007,-4.007,-4.007,-4.007,-4.007,-4.007,-4.007,-4.007,-4.007,-4.007,-4.007,-4.007,-4.007,-4.007,-4.007,-4.007,-4.007,-4.007,-4.007,-4.007,-4.007,-4.007,-4.007,-4.007,-4.007,-4.007,-4.007,-4.007,-4.007,-4.007,-4.007,-4.007,-4.007,-4.007,-4.007,-4.007,-4.007,-4.007,-4.007,-4.007,-4.007,-4.007,-4.007,-4.007,-4.007,-4.0368,-4.0497,-4.0497,-4.0497,-4.0497,-4.0497,-4.0254,-4.007,-4.007,-4.007,-4.007,-2.1299,-2.1271,-2.1406,-2.1927,-2.1653,-2.1389,0.0,0.0,0.0,-2.1786,-2.138,-2.1194,-2.1955,-2.16,-2.1661,-2.297,-2.3308,-2.3596,-2.4188,-2.6521,-2.8198,-2.8315,-2.8586,-2.8991,-2.96,-2.9668,-3.0277,-3.1749,-3.1732,-3.2104,-3.3136,-3.3186,-3.3525,-3.4252,-3.4286,-3.4641,-3.5402,-3.5402,-3.547,-3.5622,-3.5622,-3.5622,-3.5622,-3.5622,-3.596,-3.6552,-3.6552,-3.6975,-3.7702,-3.7702,-3.8125,-3.8853,-3.958,-3.9952,-4.007,-4.007,-4.007,-4.007,-4.007,-4.007,-4.007,-4.007,-4.007,-4.007,-4.007,-4.007,-4.007,-4.007,-4.007,-4.007,-4.007,-4.007,-4.007,-4.007,-4.007,-4.007,-4.007,-4.007,-4.007,-4.007,-4.007,-4.007,-4.007,-4.007,-4.007,-4.007,-4.007,-4.007,-4.007,-4.007,-4.007,-4.007,-4.007,-4.007,-4.007,-4.007,-4.007,-4.007,-4.007,-4.007,-4.007,-4.007,-4.0368,-4.0903,-4.078,-4.075,-4.0733,-4.0336,-4.007,-4.007,-4.007,-4.007,-2.1661,-2.1556,-2.15,-2.1213,-2.135,-2.1407,-2.0846,0.0,-2.1008,-2.0373,0.0,-2.0382,-2.116,0.0,0.0,-2.2293,-2.297,-2.3427,-2.3511,-2.4374,-2.5236,-2.5913,-2.7148,-2.7958,-2.8026,-2.8043,-2.8721,-3.0243,-2.9736,-3.0281,-3.2307,-3.2408,-3.2747,-3.3508,-3.3525,-3.388,-3.4624,-3.4624,-3.4962,-3.5622,-3.5622,-3.5622,-3.5622,-3.5622,-3.5673,-3.5757,-3.5757,-3.6197,-3.6907,-3.6907,-3.7347,-3.8108,-3.8836,-3.9512,-4.007,-4.007,-4.007,-4.007,-4.007,-4.007,-4.007,-4.007,-4.007,-4.007,-4.007,-4.007,-4.007,-4.007,-4.007,-4.007,-4.007,-4.007,-4.007,-4.007,-4.007,-4.007,-4.007,-4.007,-4.007,-4.007,-4.007,-4.007,-4.007,-4.007,-4.007,-4.007,-4.007,-4.007,-4.007,-4.007,-4.007,-4.007,-4.007,-4.007,-4.007,-4.007,-4.007,-4.007,-4.007,-4.007,-4.007,-4.007,-4.0368,-4.0903,-4.0449,-4.0204,-4.0204,-4.0121,-4.007,-4.007,-4.007,-4.007,-2.1735,-2.1894,-2.1984,-2.1199,-2.1424,-2.1697,-2.1226,-2.1301,-2.1406,-2.136,0.0,0.0,0.0,0.0,0.0,0.0,-2.2564,-2.2615,-2.2175,-2.2406,-2.3185,-2.4763,-2.5507,-2.6218,-2.708,-2.7571,-2.8281,-2.9381,-2.8738,-2.911,-3.092,-3.1021,-3.1562,-3.2713,-3.2747,-3.3119,-3.3846,-3.4286,-3.4658,-3.4979,-3.5419,-3.5622,-3.5622,-3.5622,-3.5622,-3.5622,-3.5622,-3.5808,-3.6096,-3.6096,-3.6569,-3.728,-3.7584,-3.8159,-3.8819,-3.8819,-3.8819,-3.887,-3.9292,-3.9445,-3.9512,-3.9935,-4.007,-4.007,-4.007,-4.007,-4.007,-4.007,-4.007,-4.007,-4.007,-4.007,-4.007,-4.007,-4.007,-4.007,-4.007,-4.007,-4.007,-4.007,-4.007,-3.9952,-3.9489,-3.9782,-4.007,-4.007,-4.007,-4.007,-4.007,-4.007,-4.007,-4.007,-4.007,-4.007,-4.007,-4.007,-4.007,-4.007,-4.007,-4.007,-4.007,-4.007,-4.0204,-4.0449,-4.0204,-4.007,-4.007,-4.007,-4.007,-4.007,-4.007,-4.007,-2.1735,-2.1868,-2.1956,-2.1038,-2.1177,-2.1482,-2.1278,-2.1484,-2.1737,-2.1919,-2.1735,0.0,0.0,0.0,-2.1667,-2.2226,0.0,-2.2124,-2.1566,-2.1339,-2.1813,-2.3405,-2.3964,-2.4678,-2.5964,-2.6404,-2.7012,-2.7977,-2.7334,-2.7655,-2.9397,-2.9685,-3.0378,-3.1647,-3.1884,-3.2341,-3.3085,-3.3626,-3.4083,-3.4506,-3.5047,-3.5419,-3.5622,-3.5622,-3.5622,-3.5622,-3.5622,-3.5622,-3.5622,-3.5622,-3.5943,-3.6468,-3.6468,-3.6789,-3.733,-3.7753,-3.7905,-3.799,-3.8514,-3.8819,-3.9106,-3.9834,-4.007,-4.007,-4.007,-4.007,-4.007,-4.007,-4.007,-4.007,-4.007,-4.007,-4.007,-4.007,-4.007,-4.007,-4.007,-4.007,-4.007,-4.007,-4.007,-3.9901,-3.9315,-3.9714,-4.002,-3.9782,-3.9952,-4.007,-4.007,-4.007,-4.007,-4.007,-4.007,-4.007,-4.007,-4.007,-4.007,-4.007,-4.007,-4.007,-4.007,-4.007,-4.007,-4.007,-4.007,-4.007,-4.007,-4.007,-4.007,-4.007,-4.007,-4.007,-2.1735,-2.1323,-2.0926,-2.0449,-2.033,-2.0345,-2.0348,-2.1203,-2.1823,-2.1167,-2.1842,-2.2356,-2.1744,-2.1969,-2.2276,-2.231,-2.231,0.0,0.0,-2.1651,-2.1237,-2.1305,-2.2564,-2.3714,-2.4506,-2.3934,-2.4137,-2.5609,-2.5017,-2.5558,-2.7739,-2.8602,-2.9364,-3.0159,-3.0869,-3.1579,-3.2307,-3.2341,-3.3068,-3.4489,-3.4523,-3.4912,-3.5622,-3.5622,-3.5622,-3.5622,-3.5622,-3.5622,-3.5622,-3.5622,-3.5639,-3.5656,-3.5656,-3.5673,-3.5876,-3.7364,-3.7905,-3.7905,-3.7939,-3.8396,-3.9106,-3.9834,-4.007,-4.007,-4.007,-4.007,-4.007,-4.007,-4.007,-4.007,-4.007,-4.007,-4.007,-4.007,-4.007,-4.007,-4.007,-4.007,-4.007,-4.007,-4.007,-4.007,-4.007,-4.007,-3.9833,-3.9086,-3.961,-4.007,-4.007,-4.007,-4.007,-4.007,-4.007,-4.007,-4.007,-4.007,-4.007,-4.007,-4.007,-4.007,-4.007,-4.007,-4.007,-4.007,-4.007,-4.007,-4.007,-4.007,-4.007,-4.007,-4.007,-4.007,-2.2327,-2.2539,-2.2523,-2.1381,-2.1388,-2.1466,-2.0516,-2.0945,-2.1415,-2.107,-2.1843,-2.2422,-2.1713,-2.1974,-2.231,-2.231,-2.231,-2.1927,0.0,-2.0145,-1.9858,-2.0365,-2.1752,-2.2581,-2.2355,-2.2953,-2.3613,-2.4103,-2.4357,-2.5236,-2.6979,-2.7791,-2.8805,-3.0074,-3.0345,-3.0835,-3.1546,-3.2036,-3.2527,-3.3034,-3.3541,-3.3914,-3.4167,-3.4658,-3.4878,-3.4895,-3.5402,-3.5622,-3.5622,-3.5622,-3.5622,-3.5622,-3.5622,-3.5622,-3.569,-3.6197,-3.64,-3.6468,-3.6975,-3.7652,-3.8311,-3.8565,-3.8633,-3.8734,-3.9208,-3.936,-3.9462,-3.9935,-4.007,-4.007,-4.007,-4.007,-4.007,-4.007,-4.007,-4.007,-4.007,-4.007,-4.007,-4.007,-4.007,-3.9952,-3.9385,-3.9731,-4.002,-3.9731,-3.9901,-4.007,-4.007,-4.007,-4.007,-4.007,-4.007,-4.007,-4.007,-4.007,-4.007,-4.007,-4.007,-4.007,-4.007,-4.007,-4.007,-4.007,-4.007,-4.007,-4.007,-4.007,-4.007,-4.007,-4.007,-4.007,-2.2842,-2.3156,-2.3194,-2.2529,-2.2521,-2.2393,-2.1195,-2.1338,-2.1564,-2.1203,-2.1677,-2.2084,-2.1891,-2.182,-2.191,-2.2159,-2.2111,-2.1569,0.0,-1.9841,-1.9587,-1.9258,-2.0559,-2.1515,-2.1583,-2.1955,-2.2429,-2.297,-2.319,-2.3981,-2.5439,-2.6471,-2.7688,-2.9245,-2.982,-3.0446,-3.119,-3.1664,-3.2019,-3.233,-3.278,-3.3052,-3.3091,-3.3794,-3.4148,-3.4225,-3.4908,-3.5368,-3.5622,-3.5622,-3.5622,-3.5622,-3.5622,-3.5453,-3.5253,-3.5253,-3.5253,-3.5308,-3.5871,-3.6664,-3.7503,-3.753,-3.7679,-3.8041,-3.8768,-3.8988,-3.914,-3.9868,-4.007,-4.007,-4.007,-4.007,-4.007,-4.007,-4.007,-4.007,-4.007,-4.007,-4.007,-4.007,-4.007,-3.9952,-3.9437,-3.9782,-4.002,-3.9731,-3.9901,-4.007,-4.007,-4.007,-4.007,-4.007,-4.007,-4.007,-4.007,-4.007,-4.007,-4.007,-4.007,-4.007,-4.007,-4.007,-4.007,-4.007,-4.007,-4.007,-4.007,-4.007,-4.007,-4.007,-4.007,-4.007]}]]